[[{"header":{"parameterUnit":"m.s-1","parameterCategory":1,"la1":31.0,"la2":29.5877,"lo1":-88.7671,"lo2":-86.6584,"dy":0.0162,"dx":0.0185,"nx":115,"ny":88,"refTime":"2025-05-21T12:00:00:Z","depth":0,"parameterNumber":2,"parameterNumberName":"U-component_of_WINDS"},"data":[0.0,0.0,0.0,0.0,0.0,0.0,0.0,0.0,0.0,0.0,0.0,0.0,0.0,0.0,0.0,0.0,0.0,0.0,0.0,0.0,0.0,0.0,0.0,0.0,0.0,0.0,0.0,0.0,0.0,0.0,0.0,0.0,0.0,0.0,0.0,0.0,0.0,0.0,0.0,0.0,0.0,0.0,0.0,0.0,0.0,0.0,0.0,0.0,0.0,0.0,0.0,0.0,0.0,0.0,0.0,0.0,0.0,0.0,0.0,0.0,0.0,0.0,0.0,0.0,0.0,0.0,0.0,0.0,0.0,0.0,0.0,0.0,0.0,0.0,0.0,0.0,0.0,0.0,0.0,0.0,0.0,0.0,0.0,0.0,0.0,0.0,0.0,0.0,0.0,0.0,0.0,0.0,0.0,0.0,0.0,0.0,0.0,0.0,0.0,0.0,0.0,0.0,0.0,0.0,0.0,0.0,0.0,0.0,0.0,0.0,0.0,0.0,0.0,0.0,0.0,0.0,0.0,0.0,0.0,0.0,0.0,0.0,0.0,0.0,0.0,0.0,0.0,0.0,0.0,0.0,0.0,0.0,0.0,0.0,0.0,0.0,0.0,0.0,0.0,0.0,0.0,0.0,0.0,0.0,0.0,0.0,0.0,0.0,0.0,0.0,0.0,0.0,0.0,0.0,0.0,0.0,0.0,0.0,0.0,0.0,0.0,0.0,0.0,0.0,0.0,0.0,0.0,0.0,0.0,0.0,0.0,0.0,0.0,0.0,0.0,0.0,0.0,0.0,0.0,0.0,0.0,0.0,0.0,0.0,0.0,0.0,0.0,0.0,0.0,0.0,0.0,0.0,0.0,0.0,0.0,0.0,0.0,0.0,0.0,0.0,0.0,0.0,0.0,0.0,0.0,0.0,0.0,0.0,0.0,0.0,0.0,0.0,0.0,0.0,0.0,0.0,0.0,0.0,0.0,0.0,0.0,0.0,0.0,0.0,0.0,0.0,0.0,0.0,0.0,0.0,0.0,0.0,0.0,0.0,0.0,0.0,0.0,0.0,0.0,0.0,0.0,0.0,0.0,0.0,0.0,0.0,0.0,0.0,0.0,0.0,0.0,0.0,0.0,0.0,0.0,0.0,0.0,0.0,0.0,0.0,0.0,0.0,0.0,0.0,0.0,0.0,0.0,0.0,0.0,0.0,0.0,0.0,0.0,0.0,0.0,0.0,0.0,0.0,0.0,0.0,0.0,0.0,0.0,0.0,0.0,0.0,0.0,0.0,0.0,0.0,0.0,0.0,0.0,0.0,0.0,0.0,0.0,0.0,0.0,0.0,0.0,0.0,0.0,0.0,0.0,0.0,0.0,0.0,0.0,0.0,0.0,0.0,0.0,0.0,0.0,0.0,0.0,0.0,0.0,0.0,0.0,0.0,0.0,0.0,0.0,0.0,0.0,0.0,0.0,0.0,0.0,0.0,0.0,0.0,0.0,0.0,0.0,0.0,0.0,0.0,0.0,0.0,0.0,0.0,0.0,0.0,0.0,0.0,0.0,0.0,0.0,0.0,0.0,0.0,0.0,0.0,0.0,0.0,0.0,0.0,0.0,0.0,0.0,0.0,0.0,0.0,0.0,0.0,0.0,0.0,0.0,0.0,0.0,0.0,0.0,0.0,0.0,0.0,0.0,0.0,0.0,0.0,0.0,0.0,0.0,0.0,0.0,0.0,0.0,0.0,0.0,0.0,0.0,0.0,0.0,0.0,0.0,0.0,0.0,0.0,0.0,0.0,0.0,0.0,0.0,0.0,0.0,0.0,0.0,0.0,0.0,0.0,0.0,0.0,0.0,0.0,0.0,0.0,0.0,0.0,0.0,0.0,0.0,0.0,0.0,0.0,0.0,0.0,0.0,0.0,0.0,0.0,0.0,0.0,0.0,0.0,0.0,0.0,0.0,0.0,0.0,0.0,0.0,0.0,0.0,0.0,0.0,0.0,0.0,0.0,0.0,0.0,0.0,0.0,0.0,0.0,0.0,0.0,0.0,0.0,0.0,0.0,0.0,0.0,0.0,0.0,0.0,0.0,0.0,0.0,0.0,0.0,0.0,0.0,0.0,0.0,0.0,0.0,0.0,0.0,0.0,0.0,0.0,0.0,0.0,0.0,0.0,0.0,0.0,0.0,0.0,0.0,0.0,0.0,0.0,0.0,0.0,0.0,0.0,0.0,0.0,0.0,0.0,0.0,0.0,0.0,0.0,0.0,0.0,0.0,0.0,0.0,0.0,0.0,0.0,0.0,0.0,0.0,0.0,0.0,0.0,0.0,0.0,0.0,0.0,0.0,0.0,0.0,0.0,0.0,0.0,0.0,0.0,0.0,0.0,0.0,0.0,0.0,0.0,0.0,0.0,0.0,0.0,0.0,0.0,0.0,0.0,0.0,0.0,0.0,0.0,0.0,0.0,0.0,0.0,0.0,0.0,0.0,0.0,0.0,0.0,0.0,0.0,0.0,0.0,0.0,0.0,0.0,0.0,0.0,0.0,0.0,0.0,0.0,0.0,0.0,0.0,0.0,0.0,0.0,0.0,0.0,0.0,0.0,0.0,0.0,0.0,0.0,0.0,0.0,0.0,0.0,0.0,0.0,0.0,0.0,0.0,0.0,0.0,0.0,0.0,0.0,0.0,0.0,0.0,0.0,0.0,0.0,0.0,0.0,0.0,0.0,0.0,0.0,0.0,0.0,0.0,0.0,0.0,0.0,0.0,0.0,0.0,0.0,0.0,0.0,0.0,0.0,0.0,0.0,0.0,0.0,0.0,0.0,0.0,0.0,0.0,0.0,0.0,0.0,0.0,0.0,0.0,0.0,0.0,0.0,0.0,0.0,0.0,0.0,0.0,0.0,0.0,0.0,0.0,0.0,0.0,0.0,0.0,0.0,0.0,0.0,0.0,0.0,0.0,0.0,0.0,0.0,0.0,0.0,0.0,0.0,0.0,0.0,0.0,0.0,0.0,0.0,0.0,0.0,0.0,0.0,0.0,0.0,0.0,0.0,0.0,0.0,0.0,0.0,0.0,0.0,0.0,0.0,0.0,0.0,0.0,0.0,0.0,0.0,0.0,0.0,0.0,0.0,0.0,0.0,0.0,0.0,0.0,0.0,0.0,0.0,0.0,0.0,0.0,0.0,0.0,0.0,0.0,0.0,0.0,0.0,0.0,0.0,0.0,0.0,0.0,0.0,0.0,0.0,0.0,0.0,0.0,0.0,0.0,0.0,0.0,0.0,0.0,0.0,0.0,0.0,0.0,0.0,0.0,0.0,0.0,0.0,0.0,0.0,0.0,0.0,0.0,0.0,0.0,0.0,0.0,0.0,0.0,0.0,0.0,0.0,0.0,0.0,0.0,0.0,0.0,0.0,0.0,0.0,0.0,0.0,0.0,0.0,0.0,0.0,0.0,0.0,0.0,0.0,0.0,0.0,0.0,0.0,0.0,0.0,0.0,0.0,0.0,0.0,0.0,0.0,0.0,0.0,0.0,0.0,0.0,0.0,0.0,0.0,0.0,0.0,0.0,0.0,0.0,0.0,0.0,0.0,0.0,0.0,0.0,0.0,0.0,0.0,0.0,0.0,0.0,0.0,0.0,0.0,0.0,0.0,0.0,0.0,0.0,0.0,0.0,0.0,0.0,0.0,0.0,0.0,0.0,0.0,0.0,0.0,0.0,0.0,0.0,0.0,0.0,0.0,0.0,0.0,0.0,0.0,0.0,0.0,0.0,0.0,0.0,0.0,0.0,0.0,0.0,0.0,0.0,0.0,0.0,0.0,0.0,0.0,0.0,0.0,0.0,0.0,0.0,0.0,0.0,0.0,0.0,0.0,0.0,0.0,0.0,0.0,0.0,0.0,0.0,0.0,0.0,0.0,0.0,0.0,0.0,0.0,0.0,0.0,0.0,0.0,0.0,0.0,0.0,0.0,0.0,0.0,0.0,0.0,0.0,0.0,0.0,0.0,0.0,0.0,0.0,0.0,0.0,0.0,0.0,0.0,0.0,0.0,0.0,0.0,0.0,0.0,0.0,0.0,0.0,0.0,0.0,0.0,0.0,0.0,0.0,0.0,0.0,0.0,0.0,0.0,0.0,0.0,0.0,0.0,0.0,0.0,0.0,0.0,0.0,0.0,0.0,0.0,0.0,0.0,0.0,0.0,0.0,0.0,0.0,0.0,0.0,0.0,0.0,0.0,0.0,0.0,0.0,0.0,0.0,0.0,0.0,0.0,0.0,0.0,0.0,0.0,-3.3275,0.0,0.0,0.0,0.0,0.0,0.0,0.0,0.0,0.0,0.0,0.0,0.0,0.0,0.0,0.0,0.0,0.0,0.0,0.0,0.0,0.0,0.0,0.0,0.0,0.0,0.0,0.0,0.0,0.0,0.0,0.0,0.0,0.0,0.0,0.0,0.0,0.0,0.0,0.0,0.0,0.0,0.0,0.0,0.0,0.0,0.0,0.0,0.0,0.0,0.0,0.0,0.0,0.0,0.0,0.0,0.0,0.0,0.0,0.0,0.0,0.0,0.0,0.0,0.0,0.0,0.0,0.0,0.0,0.0,0.0,0.0,0.0,0.0,0.0,0.0,0.0,0.0,0.0,0.0,0.0,0.0,0.0,0.0,0.0,0.0,0.0,0.0,0.0,0.0,0.0,0.0,0.0,0.0,0.0,0.0,0.0,0.0,0.0,0.0,0.0,0.0,0.0,0.0,0.0,0.0,0.0,0.0,0.0,0.0,0.0,-3.696,-3.6923,-3.533,-3.4234,-3.3752,0.0,0.0,0.0,0.0,0.0,0.0,0.0,0.0,0.0,0.0,0.0,0.0,0.0,0.0,0.0,0.0,0.0,0.0,0.0,0.0,0.0,0.0,0.0,0.0,0.0,0.0,0.0,0.0,0.0,0.0,0.0,0.0,0.0,0.0,0.0,0.0,0.0,0.0,0.0,0.0,0.0,0.0,0.0,0.0,0.0,0.0,0.0,0.0,0.0,0.0,0.0,0.0,0.0,0.0,0.0,0.0,0.0,0.0,0.0,0.0,0.0,0.0,0.0,0.0,0.0,0.0,0.0,0.0,0.0,0.0,0.0,0.0,0.0,0.0,0.0,0.0,0.0,0.0,0.0,0.0,0.0,0.0,0.0,0.0,0.0,0.0,0.0,0.0,0.0,0.0,0.0,0.0,0.0,0.0,0.0,0.0,0.0,0.0,0.0,0.0,0.0,0.0,0.0,0.0,0.0,0.0,0.0,0.0,0.0,0.0,0.0,0.0,-3.634,-3.4912,-3.355,0.0,0.0,0.0,0.0,0.0,0.0,0.0,0.0,0.0,0.0,0.0,0.0,0.0,0.0,0.0,0.0,0.0,0.0,0.0,0.0,0.0,0.0,0.0,0.0,0.0,0.0,0.0,0.0,0.0,0.0,0.0,0.0,0.0,0.0,0.0,0.0,0.0,0.0,0.0,0.0,0.0,0.0,0.0,0.0,0.0,0.0,0.0,0.0,0.0,0.0,0.0,0.0,0.0,0.0,0.0,0.0,0.0,0.0,0.0,0.0,0.0,0.0,0.0,0.0,0.0,0.0,0.0,0.0,0.0,0.0,0.0,0.0,0.0,0.0,0.0,0.0,0.0,0.0,0.0,0.0,0.0,0.0,0.0,0.0,0.0,0.0,0.0,0.0,0.0,0.0,0.0,0.0,0.0,0.0,0.0,0.0,0.0,0.0,0.0,0.0,0.0,0.0,0.0,0.0,0.0,0.0,0.0,0.0,0.0,0.0,-3.8597,-3.8579,-3.7731,0.0,-3.2926,0.0,0.0,0.0,0.0,0.0,0.0,0.0,0.0,0.0,0.0,0.0,0.0,0.0,0.0,0.0,0.0,0.0,0.0,0.0,0.0,0.0,0.0,0.0,0.0,0.0,0.0,0.0,0.0,0.0,0.0,0.0,0.0,0.0,0.0,0.0,0.0,0.0,0.0,0.0,0.0,0.0,0.0,0.0,0.0,0.0,0.0,0.0,0.0,0.0,0.0,0.0,0.0,0.0,0.0,0.0,0.0,0.0,0.0,0.0,0.0,0.0,0.0,0.0,0.0,0.0,0.0,0.0,0.0,0.0,0.0,0.0,0.0,0.0,0.0,0.0,0.0,0.0,0.0,0.0,0.0,0.0,0.0,0.0,0.0,0.0,0.0,0.0,0.0,0.0,0.0,0.0,0.0,0.0,0.0,0.0,0.0,0.0,0.0,0.0,0.0,0.0,0.0,0.0,0.0,0.0,0.0,0.0,0.0,0.0,0.0,-3.8707,-3.8707,-3.7459,-3.5459,0.0,0.0,0.0,0.0,0.0,0.0,0.0,0.0,0.0,0.0,0.0,0.0,0.0,0.0,0.0,0.0,0.0,0.0,0.0,0.0,0.0,0.0,0.0,0.0,0.0,0.0,0.0,0.0,0.0,0.0,0.0,0.0,0.0,0.0,0.0,0.0,0.0,0.0,0.0,0.0,0.0,0.0,0.0,0.0,0.0,0.0,0.0,0.0,0.0,0.0,0.0,0.0,0.0,0.0,0.0,0.0,0.0,0.0,0.0,0.0,0.0,0.0,0.0,0.0,0.0,0.0,0.0,0.0,0.0,0.0,0.0,0.0,0.0,0.0,0.0,0.0,0.0,0.0,0.0,0.0,0.0,0.0,0.0,0.0,0.0,0.0,0.0,0.0,0.0,0.0,0.0,0.0,0.0,0.0,0.0,0.0,0.0,0.0,0.0,0.0,0.0,0.0,0.0,0.0,0.0,0.0,0.0,0.0,0.0,0.0,-3.8707,-3.8707,-3.8634,-3.7144,-3.5252,-3.2999,0.0,0.0,0.0,0.0,0.0,0.0,0.0,0.0,0.0,0.0,0.0,0.0,0.0,0.0,0.0,0.0,0.0,0.0,0.0,0.0,0.0,0.0,0.0,0.0,0.0,0.0,0.0,0.0,0.0,0.0,0.0,0.0,0.0,0.0,0.0,0.0,0.0,0.0,0.0,0.0,0.0,0.0,0.0,0.0,0.0,0.0,0.0,0.0,0.0,0.0,0.0,0.0,0.0,0.0,0.0,0.0,0.0,0.0,0.0,0.0,0.0,0.0,0.0,0.0,0.0,0.0,0.0,0.0,0.0,0.0,0.0,0.0,0.0,0.0,0.0,0.0,0.0,0.0,0.0,0.0,0.0,0.0,0.0,0.0,0.0,0.0,0.0,0.0,0.0,0.0,0.0,0.0,0.0,0.0,0.0,0.0,0.0,0.0,0.0,0.0,0.0,0.0,0.0,0.0,0.0,0.0,0.0,0.0,-3.8689,-3.8689,-3.8707,-3.867,-3.7202,-3.5565,0.0,0.0,0.0,0.0,0.0,0.0,0.0,0.0,0.0,0.0,0.0,0.0,0.0,0.0,0.0,0.0,0.0,0.0,0.0,0.0,0.0,0.0,0.0,0.0,0.0,0.0,0.0,0.0,0.0,0.0,0.0,0.0,0.0,0.0,0.0,0.0,0.0,0.0,0.0,0.0,0.0,0.0,0.0,0.0,0.0,0.0,0.0,0.0,0.0,0.0,0.0,0.0,0.0,0.0,0.0,0.0,0.0,0.0,0.0,0.0,0.0,0.0,0.0,0.0,0.0,0.0,0.0,0.0,0.0,0.0,0.0,0.0,0.0,0.0,0.0,0.0,0.0,0.0,0.0,0.0,0.0,0.0,0.0,0.0,0.0,0.0,0.0,0.0,0.0,0.0,0.0,0.0,0.0,0.0,0.0,0.0,0.0,0.0,0.0,0.0,0.0,0.0,0.0,0.0,0.0,0.0,0.0,0.0,0.0,-3.8822,-3.8822,-3.884,-3.8785,-3.726,-3.563,0.0,0.0,0.0,0.0,0.0,0.0,0.0,0.0,0.0,0.0,0.0,0.0,0.0,0.0,0.0,0.0,0.0,0.0,0.0,0.0,0.0,0.0,0.0,0.0,0.0,0.0,0.0,0.0,0.0,0.0,0.0,0.0,0.0,0.0,0.0,0.0,0.0,0.0,0.0,0.0,0.0,0.0,0.0,0.0,0.0,0.0,0.0,0.0,0.0,0.0,0.0,0.0,0.0,0.0,0.0,0.0,0.0,0.0,0.0,0.0,0.0,0.0,0.0,0.0,0.0,0.0,0.0,0.0,0.0,0.0,0.0,0.0,0.0,0.0,0.0,0.0,0.0,0.0,0.0,0.0,0.0,0.0,0.0,0.0,0.0,0.0,0.0,0.0,0.0,0.0,0.0,0.0,0.0,0.0,0.0,0.0,0.0,0.0,0.0,0.0,0.0,0.0,0.0,0.0,0.0,0.0,0.0,0.0,0.0,-3.8993,0.0,-3.8993,-3.8909,-3.7368,-3.5836,0.0,0.0,0.0,0.0,0.0,0.0,0.0,0.0,0.0,0.0,0.0,0.0,0.0,0.0,0.0,0.0,0.0,0.0,0.0,0.0,0.0,0.0,0.0,0.0,0.0,0.0,0.0,0.0,0.0,0.0,0.0,0.0,0.0,0.0,0.0,0.0,0.0,0.0,0.0,0.0,0.0,0.0,0.0,0.0,0.0,0.0,0.0,0.0,0.0,0.0,0.0,0.0,0.0,0.0,0.0,0.0,0.0,0.0,0.0,0.0,0.0,0.0,0.0,0.0,0.0,0.0,0.0,0.0,0.0,0.0,0.0,0.0,0.0,0.0,0.0,0.0,0.0,0.0,0.0,0.0,0.0,0.0,0.0,0.0,0.0,0.0,0.0,0.0,0.0,0.0,0.0,0.0,0.0,0.0,0.0,0.0,0.0,0.0,0.0,0.0,0.0,0.0,0.0,0.0,0.0,0.0,0.0,0.0,-3.9059,-3.9197,-3.921,-3.9183,-3.9078,-3.7541,-3.6237,0.0,0.0,0.0,0.0,0.0,0.0,0.0,0.0,0.0,0.0,0.0,0.0,0.0,0.0,0.0,0.0,0.0,0.0,0.0,0.0,0.0,0.0,0.0,0.0,0.0,0.0,0.0,0.0,0.0,0.0,0.0,0.0,0.0,0.0,0.0,0.0,0.0,0.0,0.0,0.0,0.0,0.0,0.0,0.0,0.0,0.0,0.0,0.0,0.0,0.0,0.0,0.0,0.0,0.0,0.0,0.0,0.0,0.0,0.0,0.0,0.0,0.0,0.0,0.0,0.0,0.0,0.0,0.0,0.0,0.0,0.0,0.0,0.0,0.0,0.0,0.0,0.0,0.0,0.0,0.0,0.0,0.0,0.0,0.0,0.0,0.0,0.0,0.0,0.0,0.0,0.0,0.0,0.0,0.0,0.0,0.0,0.0,0.0,0.0,0.0,0.0,0.0,0.0,0.0,0.0,0.0,0.0,0.0,0.0,-3.9496,-3.9526,-3.9489,-3.9332,-3.7729,-3.6398,0.0,0.0,0.0,0.0,0.0,0.0,0.0,0.0,0.0,0.0,0.0,0.0,0.0,0.0,0.0,0.0,0.0,0.0,0.0,0.0,0.0,0.0,0.0,0.0,0.0,0.0,0.0,0.0,0.0,0.0,0.0,0.0,0.0,0.0,0.0,0.0,0.0,0.0,0.0,0.0,0.0,0.0,0.0,0.0,0.0,0.0,0.0,0.0,0.0,0.0,0.0,0.0,0.0,0.0,0.0,0.0,0.0,0.0,0.0,0.0,0.0,0.0,0.0,0.0,0.0,0.0,0.0,0.0,0.0,0.0,0.0,0.0,0.0,0.0,0.0,0.0,0.0,0.0,0.0,0.0,0.0,0.0,0.0,0.0,0.0,0.0,0.0,0.0,0.0,0.0,0.0,0.0,0.0,0.0,0.0,0.0,0.0,0.0,0.0,0.0,0.0,0.0,0.0,0.0,0.0,0.0,0.0,0.0,0.0,-4.0328,-4.0,-3.9739,-3.9611,-3.8182,-3.6957,-3.595,0.0,0.0,0.0,0.0,0.0,0.0,0.0,0.0,0.0,0.0,0.0,0.0,0.0,0.0,0.0,0.0,0.0,0.0,0.0,0.0,0.0,0.0,0.0,0.0,0.0,0.0,0.0,0.0,0.0,0.0,0.0,0.0,0.0,0.0,0.0,0.0,0.0,0.0,0.0,0.0,0.0,0.0,0.0,0.0,0.0,0.0,0.0,0.0,0.0,0.0,0.0,0.0,0.0,0.0,0.0,0.0,0.0,0.0,0.0,0.0,0.0,0.0,0.0,0.0,0.0,0.0,0.0,0.0,0.0,0.0,0.0,0.0,0.0,0.0,0.0,0.0,0.0,0.0,0.0,0.0,0.0,0.0,0.0,0.0,0.0,0.0,0.0,0.0,0.0,0.0,0.0,0.0,0.0,0.0,0.0,0.0,0.0,0.0,0.0,0.0,0.0,0.0,0.0,0.0,0.0,0.0,0.0,0.0,-4.1665,-4.0691,-4.0127,-3.9977,-3.8938,-3.7897,0.0,0.0,0.0,0.0,0.0,0.0,0.0,0.0,0.0,0.0,0.0,0.0,0.0,0.0,0.0,0.0,0.0,0.0,0.0,0.0,0.0,0.0,0.0,0.0,0.0,0.0,0.0,0.0,0.0,0.0,0.0,0.0,0.0,0.0,0.0,0.0,0.0,0.0,0.0,0.0,0.0,0.0,0.0,0.0,0.0,0.0,0.0,0.0,0.0,0.0,0.0,0.0,0.0,0.0,0.0,0.0,0.0,0.0,0.0,0.0,0.0,0.0,0.0,0.0,0.0,0.0,0.0,0.0,0.0,0.0,0.0,0.0,0.0,0.0,0.0,0.0,0.0,0.0,0.0,0.0,0.0,0.0,0.0,0.0,0.0,0.0,0.0,0.0,0.0,0.0,0.0,0.0,0.0,0.0,0.0,0.0,0.0,0.0,0.0,0.0,0.0,0.0,0.0,0.0,0.0,0.0,0.0,0.0,0.0,-4.2588,-4.2352,-4.2106,-4.1852,-4.0265,-3.9209,0.0,0.0,0.0,0.0,0.0,0.0,0.0,0.0,0.0,0.0,0.0,0.0,0.0,0.0,0.0,0.0,0.0,0.0,0.0,0.0,0.0,0.0,0.0,0.0,0.0,0.0,0.0,0.0,0.0,0.0,0.0,0.0,0.0,0.0,0.0,0.0,0.0,0.0,0.0,0.0,0.0,0.0,0.0,0.0,0.0,0.0,0.0,0.0,0.0,0.0,0.0,0.0,0.0,0.0,0.0,0.0,0.0,0.0,0.0,0.0,0.0,0.0,0.0,0.0,0.0,0.0,0.0,0.0,0.0,0.0,0.0,0.0,0.0,0.0,0.0,0.0,0.0,0.0,0.0,0.0,0.0,0.0,0.0,0.0,0.0,0.0,0.0,0.0,0.0,0.0,0.0,0.0,0.0,0.0,0.0,0.0,0.0,0.0,0.0,0.0,0.0,0.0,0.0,0.0,0.0,0.0,0.0,0.0,-4.3,-4.3532,-4.388,-4.3981,-4.3784,-4.1535,-4.0087,0.0,0.0,0.0,0.0,0.0,0.0,0.0,0.0,0.0,0.0,0.0,0.0,0.0,0.0,0.0,0.0,0.0,0.0,0.0,0.0,0.0,0.0,0.0,0.0,0.0,0.0,0.0,0.0,0.0,0.0,0.0,0.0,0.0,0.0,0.0,0.0,0.0,0.0,0.0,0.0,0.0,0.0,0.0,0.0,0.0,0.0,0.0,0.0,0.0,0.0,0.0,0.0,0.0,0.0,0.0,0.0,0.0,0.0,0.0,0.0,0.0,0.0,0.0,0.0,0.0,0.0,0.0,0.0,0.0,0.0,0.0,0.0,0.0,0.0,0.0,0.0,0.0,0.0,0.0,0.0,0.0,0.0,0.0,0.0,0.0,0.0,0.0,0.0,0.0,0.0,0.0,0.0,0.0,0.0,0.0,0.0,0.0,0.0,0.0,0.0,0.0,0.0,0.0,0.0,0.0,0.0,0.0,0.0,-4.4331,-4.4432,-4.5147,-4.5477,-4.5331,-4.2781,-4.0912,0.0,0.0,0.0,0.0,0.0,0.0,0.0,0.0,0.0,0.0,0.0,0.0,0.0,0.0,0.0,0.0,0.0,0.0,0.0,0.0,0.0,0.0,0.0,0.0,0.0,0.0,0.0,0.0,0.0,0.0,0.0,0.0,0.0,0.0,0.0,0.0,0.0,0.0,0.0,0.0,0.0,0.0,0.0,0.0,0.0,0.0,0.0,0.0,0.0,0.0,0.0,0.0,0.0,0.0,0.0,0.0,0.0,0.0,0.0,0.0,0.0,0.0,0.0,0.0,0.0,0.0,0.0,0.0,0.0,0.0,0.0,0.0,0.0,0.0,0.0,0.0,0.0,0.0,0.0,0.0,0.0,0.0,0.0,0.0,0.0,0.0,0.0,0.0,0.0,0.0,0.0,0.0,0.0,0.0,0.0,0.0,0.0,0.0,0.0,0.0,0.0,0.0,0.0,0.0,0.0,0.0,0.0,0.0,-4.4635,-4.5306,-4.5509,-4.5532,-4.539,-4.3931,-4.2635,0.0,0.0,0.0,0.0,0.0,0.0,0.0,0.0,0.0,0.0,0.0,0.0,0.0,0.0,0.0,0.0,0.0,0.0,0.0,0.0,0.0,0.0,0.0,0.0,0.0,0.0,0.0,0.0,0.0,0.0,0.0,0.0,0.0,0.0,0.0,0.0,0.0,0.0,0.0,0.0,0.0,0.0,0.0,0.0,0.0,0.0,0.0,0.0,-3.7857,0.0,0.0,0.0,0.0,0.0,0.0,0.0,0.0,0.0,0.0,0.0,0.0,0.0,0.0,0.0,0.0,0.0,0.0,0.0,0.0,0.0,0.0,0.0,0.0,0.0,0.0,0.0,0.0,0.0,0.0,0.0,0.0,0.0,0.0,0.0,0.0,0.0,0.0,0.0,0.0,0.0,0.0,0.0,0.0,0.0,0.0,0.0,0.0,0.0,0.0,0.0,0.0,0.0,0.0,0.0,0.0,0.0,0.0,0.0,-4.5124,-4.5575,-4.5594,-4.5531,-4.5381,-4.4726,-4.3661,0.0,0.0,0.0,0.0,0.0,0.0,0.0,0.0,0.0,0.0,0.0,0.0,0.0,0.0,0.0,0.0,0.0,0.0,0.0,0.0,0.0,0.0,0.0,0.0,0.0,0.0,0.0,0.0,0.0,0.0,0.0,0.0,0.0,0.0,0.0,0.0,0.0,0.0,0.0,0.0,0.0,0.0,0.0,0.0,0.0,0.0,0.0,0.0,0.0,0.0,0.0,0.0,0.0,0.0,0.0,0.0,0.0,0.0,0.0,0.0,0.0,0.0,0.0,0.0,0.0,0.0,0.0,0.0,0.0,0.0,0.0,0.0,0.0,0.0,0.0,0.0,0.0,0.0,0.0,0.0,0.0,0.0,0.0,0.0,0.0,0.0,0.0,0.0,0.0,0.0,0.0,0.0,0.0,0.0,0.0,0.0,0.0,0.0,0.0,0.0,0.0,0.0,0.0,0.0,0.0,0.0,0.0,-4.4767,-4.5594,-4.5594,-4.5594,-4.555,-4.54,-4.5205,-4.4182,-4.2258,0.0,0.0,0.0,0.0,0.0,0.0,0.0,0.0,0.0,0.0,0.0,0.0,0.0,0.0,0.0,0.0,0.0,0.0,0.0,0.0,0.0,0.0,0.0,0.0,0.0,0.0,0.0,0.0,0.0,0.0,0.0,0.0,0.0,0.0,0.0,0.0,0.0,0.0,-3.4629,-3.6757,0.0,0.0,0.0,0.0,0.0,0.0,0.0,0.0,-4.0496,0.0,0.0,0.0,0.0,0.0,0.0,0.0,0.0,0.0,0.0,0.0,0.0,0.0,0.0,0.0,0.0,0.0,0.0,0.0,0.0,0.0,0.0,0.0,0.0,0.0,0.0,0.0,0.0,0.0,0.0,0.0,0.0,0.0,0.0,0.0,0.0,0.0,0.0,0.0,0.0,0.0,0.0,0.0,0.0,0.0,0.0,0.0,0.0,0.0,0.0,0.0,0.0,0.0,0.0,0.0,0.0,-4.3104,-4.4759,-4.5594,-4.5594,-4.5594,-4.555,-4.5381,-4.5205,-4.4182,-4.2296,0.0,0.0,0.0,0.0,0.0,0.0,0.0,0.0,0.0,0.0,0.0,0.0,0.0,0.0,0.0,0.0,0.0,0.0,0.0,0.0,0.0,0.0,0.0,0.0,0.0,0.0,0.0,0.0,0.0,0.0,0.0,0.0,0.0,0.0,0.0,0.0,0.0,0.0,0.0,-3.8373,-3.94,0.0,0.0,0.0,0.0,0.0,0.0,0.0,0.0,-4.0392,0.0,0.0,0.0,0.0,0.0,0.0,0.0,0.0,0.0,0.0,0.0,0.0,0.0,0.0,0.0,0.0,0.0,0.0,0.0,0.0,0.0,0.0,0.0,0.0,0.0,0.0,0.0,0.0,0.0,0.0,0.0,0.0,0.0,0.0,0.0,0.0,0.0,0.0,0.0,0.0,0.0,0.0,0.0,0.0,0.0,0.0,0.0,0.0,0.0,0.0,0.0,0.0,0.0,0.0,0.0,-4.3181,-4.4748,-4.5594,-4.5594,-4.5594,-4.555,-4.541,-4.5216,-4.4182,0.0,0.0,0.0,0.0,0.0,0.0,0.0,0.0,0.0,0.0,0.0,0.0,0.0,0.0,0.0,0.0,0.0,0.0,0.0,0.0,0.0,0.0,0.0,0.0,0.0,0.0,0.0,0.0,0.0,0.0,0.0,0.0,0.0,0.0,0.0,0.0,0.0,0.0,0.0,0.0,-3.8757,-3.9592,-4.0381,0.0,0.0,0.0,0.0,0.0,0.0,-4.0496,-4.0496,0.0,0.0,0.0,0.0,0.0,0.0,0.0,0.0,0.0,0.0,0.0,0.0,0.0,0.0,0.0,0.0,0.0,0.0,0.0,0.0,0.0,0.0,0.0,0.0,0.0,0.0,0.0,0.0,0.0,0.0,0.0,0.0,0.0,0.0,0.0,0.0,0.0,0.0,0.0,0.0,0.0,0.0,0.0,0.0,0.0,0.0,0.0,0.0,0.0,0.0,0.0,0.0,0.0,0.0,0.0,-4.3143,-4.4739,-4.5594,-4.5594,-4.5594,-4.555,-4.541,-4.5025,-4.4022,0.0,0.0,0.0,0.0,0.0,0.0,0.0,0.0,0.0,0.0,0.0,0.0,0.0,0.0,0.0,0.0,0.0,0.0,0.0,0.0,0.0,0.0,0.0,0.0,0.0,0.0,0.0,0.0,0.0,0.0,0.0,0.0,0.0,0.0,0.0,0.0,0.0,0.0,0.0,0.0,0.0,-3.9785,-4.0419,-4.0496,0.0,0.0,0.0,0.0,-4.0496,-4.0496,0.0,0.0,0.0,0.0,0.0,0.0,0.0,0.0,0.0,0.0,0.0,0.0,0.0,0.0,0.0,0.0,0.0,0.0,0.0,0.0,0.0,0.0,0.0,0.0,0.0,0.0,0.0,0.0,0.0,0.0,0.0,0.0,0.0,0.0,0.0,0.0,0.0,0.0,0.0,0.0,0.0,0.0,0.0,0.0,0.0,0.0,0.0,0.0,0.0,0.0,0.0,0.0,0.0,0.0,0.0,0.0,-4.3162,-4.4739,-4.5594,-4.5594,-4.5594,-4.5531,-4.5391,-4.4444,-4.343,0.0,0.0,0.0,0.0,0.0,0.0,0.0,0.0,0.0,0.0,0.0,0.0,0.0,0.0,0.0,0.0,0.0,0.0,0.0,0.0,0.0,0.0,0.0,0.0,0.0,0.0,0.0,0.0,0.0,0.0,0.0,0.0,0.0,0.0,0.0,0.0,0.0,0.0,0.0,0.0,0.0,-4.04,-4.0496,-4.0496,-4.0496,0.0,0.0,-4.0496,-4.0496,-4.0496,0.0,0.0,0.0,0.0,0.0,0.0,0.0,0.0,0.0,0.0,0.0,0.0,0.0,0.0,0.0,0.0,0.0,0.0,0.0,0.0,0.0,0.0,0.0,0.0,0.0,0.0,0.0,0.0,0.0,0.0,0.0,0.0,0.0,0.0,0.0,0.0,0.0,0.0,0.0,0.0,0.0,0.0,0.0,0.0,0.0,0.0,0.0,0.0,0.0,0.0,0.0,0.0,0.0,0.0,0.0,-4.3085,-4.3162,-4.4748,-4.5594,-4.5594,-4.5594,-4.555,-4.541,-4.4399,-4.3357,0.0,0.0,0.0,0.0,0.0,0.0,0.0,0.0,0.0,0.0,0.0,0.0,0.0,0.0,0.0,0.0,0.0,0.0,0.0,0.0,0.0,0.0,0.0,0.0,0.0,0.0,0.0,0.0,0.0,0.0,0.0,0.0,0.0,0.0,0.0,0.0,0.0,0.0,0.0,0.0,0.0,0.0,-4.1219,-4.1662,0.0,0.0,0.0,-4.1219,-4.1239,0.0,0.0,0.0,0.0,0.0,0.0,0.0,0.0,0.0,0.0,0.0,0.0,0.0,0.0,0.0,0.0,0.0,0.0,0.0,0.0,0.0,0.0,0.0,0.0,0.0,0.0,0.0,0.0,0.0,0.0,0.0,0.0,0.0,0.0,0.0,0.0,0.0,0.0,0.0,0.0,0.0,0.0,0.0,0.0,0.0,0.0,0.0,0.0,0.0,0.0,0.0,0.0,0.0,0.0,0.0,0.0,0.0,-4.3124,-4.4739,-4.5594,-4.5594,-4.5594,-4.5531,-4.541,-4.4438,0.0,0.0,0.0,0.0,0.0,0.0,0.0,0.0,0.0,0.0,0.0,0.0,0.0,0.0,0.0,0.0,0.0,0.0,0.0,0.0,0.0,0.0,0.0,0.0,0.0,0.0,0.0,-2.9183,0.0,0.0,0.0,0.0,0.0,0.0,0.0,0.0,0.0,0.0,0.0,0.0,0.0,0.0,-4.1816,-4.1816,-4.2547,-4.3085,0.0,0.0,-4.1816,-4.1816,-4.1066,-4.0496,0.0,0.0,0.0,0.0,0.0,0.0,0.0,0.0,0.0,0.0,0.0,0.0,0.0,0.0,0.0,0.0,0.0,0.0,0.0,0.0,0.0,0.0,0.0,0.0,0.0,0.0,0.0,0.0,0.0,0.0,0.0,0.0,0.0,0.0,0.0,0.0,0.0,0.0,0.0,0.0,0.0,0.0,0.0,0.0,0.0,0.0,0.0,0.0,0.0,0.0,0.0,0.0,0.0,0.0,-4.3085,-4.3143,-4.4739,-4.5594,-4.5594,-4.5594,-4.5568,-4.5475,-4.4459,-4.3493,0.0,0.0,0.0,0.0,0.0,0.0,0.0,0.0,0.0,0.0,0.0,0.0,0.0,0.0,0.0,0.0,0.0,0.0,0.0,0.0,0.0,0.0,0.0,0.0,0.0,0.0,0.0,0.0,0.0,0.0,0.0,0.0,0.0,0.0,0.0,0.0,0.0,0.0,0.0,0.0,0.0,-4.1816,-4.1816,-4.2547,-4.3104,0.0,-4.2374,-4.1816,-4.1816,-4.1066,-4.0496,-4.0496,0.0,0.0,0.0,0.0,0.0,0.0,0.0,0.0,0.0,0.0,0.0,0.0,0.0,0.0,0.0,0.0,0.0,0.0,0.0,0.0,0.0,0.0,0.0,0.0,0.0,0.0,0.0,0.0,0.0,0.0,0.0,0.0,0.0,0.0,0.0,0.0,0.0,0.0,0.0,0.0,0.0,0.0,0.0,0.0,0.0,0.0,0.0,0.0,0.0,0.0,0.0,0.0,0.0,-4.3085,-4.3124,-4.4748,-4.5594,-4.5594,-4.5594,-4.5568,-4.5504,-4.4547,-4.3586,0.0,0.0,0.0,0.0,0.0,0.0,0.0,0.0,0.0,0.0,0.0,0.0,0.0,0.0,0.0,0.0,0.0,0.0,0.0,0.0,0.0,0.0,0.0,0.0,0.0,0.0,0.0,0.0,-3.2237,-3.2776,-3.3603,0.0,0.0,0.0,0.0,0.0,0.0,0.0,0.0,0.0,0.0,-4.2777,-4.3278,-4.4085,0.0,0.0,-4.3893,-4.3162,-4.2681,-4.1873,-4.1123,-4.0593,-4.0496,0.0,0.0,0.0,0.0,0.0,0.0,0.0,0.0,0.0,0.0,0.0,0.0,0.0,0.0,0.0,0.0,0.0,0.0,0.0,0.0,0.0,0.0,0.0,0.0,0.0,0.0,0.0,0.0,0.0,0.0,0.0,0.0,0.0,0.0,0.0,0.0,0.0,0.0,0.0,0.0,0.0,0.0,0.0,0.0,0.0,0.0,0.0,0.0,0.0,0.0,0.0,0.0,-4.3085,-4.3104,-4.4748,-4.5594,-4.5594,-4.5594,-4.5577,-4.5503,-4.4854,-4.3943,0.0,0.0,0.0,0.0,0.0,0.0,0.0,0.0,0.0,0.0,0.0,0.0,0.0,0.0,0.0,0.0,0.0,0.0,0.0,0.0,0.0,0.0,0.0,0.0,0.0,0.0,0.0,0.0,-3.3141,-3.3622,-3.4507,0.0,0.0,0.0,0.0,0.0,0.0,0.0,0.0,0.0,0.0,-4.3393,-4.4182,-4.5056,-4.5594,-4.5594,-4.4874,-4.4105,-4.3547,-4.2758,-4.1989,-4.1381,0.0,0.0,0.0,0.0,0.0,0.0,0.0,0.0,0.0,0.0,0.0,0.0,0.0,0.0,0.0,0.0,0.0,0.0,0.0,0.0,0.0,0.0,0.0,0.0,0.0,0.0,0.0,-3.8027,0.0,0.0,-3.8065,0.0,0.0,0.0,0.0,0.0,0.0,0.0,0.0,0.0,0.0,0.0,0.0,0.0,0.0,0.0,0.0,0.0,0.0,0.0,0.0,0.0,0.0,-4.3104,-4.3124,-4.4767,-4.5594,-4.5594,-4.5594,-4.5594,-4.5586,-4.5438,-4.4576,-4.2927,0.0,0.0,0.0,0.0,0.0,0.0,0.0,0.0,0.0,0.0,0.0,0.0,0.0,0.0,0.0,0.0,0.0,0.0,0.0,0.0,0.0,0.0,0.0,0.0,0.0,0.0,-3.2968,-3.3667,-3.4507,0.0,0.0,0.0,0.0,0.0,0.0,0.0,0.0,0.0,-4.1692,-4.2566,-4.3393,-4.422,-4.5047,-4.5594,-4.5594,-4.4863,-4.4297,-4.4259,-4.3585,-4.3066,0.0,0.0,0.0,0.0,0.0,0.0,0.0,0.0,0.0,0.0,0.0,0.0,0.0,0.0,0.0,0.0,0.0,0.0,0.0,0.0,0.0,0.0,0.0,0.0,0.0,0.0,0.0,-4.1046,-4.0566,0.0,0.0,0.0,0.0,0.0,0.0,0.0,0.0,0.0,0.0,0.0,-4.3085,-4.3085,0.0,0.0,0.0,0.0,0.0,0.0,0.0,0.0,0.0,0.0,0.0,0.0,-4.3374,-4.3912,-4.5017,-4.5594,-4.5594,-4.5594,-4.5594,-4.5594,-4.5513,-4.4642,-4.2881,0.0,0.0,0.0,0.0,0.0,0.0,0.0,0.0,0.0,0.0,0.0,0.0,0.0,0.0,0.0,0.0,0.0,0.0,0.0,0.0,0.0,0.0,0.0,0.0,0.0,-3.3987,0.0,0.0,0.0,0.0,0.0,0.0,0.0,0.0,0.0,0.0,-4.0489,-4.1681,-4.2547,-4.3374,-4.4201,-4.5056,-4.5402,-4.5594,0.0,0.0,0.0,0.0,0.0,0.0,0.0,0.0,0.0,0.0,0.0,0.0,0.0,0.0,-4.222,-4.2239,-4.2239,-4.2239,-4.2239,0.0,0.0,0.0,0.0,0.0,0.0,0.0,0.0,0.0,0.0,0.0,0.0,0.0,0.0,-4.2777,-4.2269,-4.2258,0.0,0.0,0.0,0.0,0.0,0.0,0.0,0.0,-4.3508,-4.3662,-4.397,-4.397,-4.3797,-4.3528,-4.3508,-4.2508,0.0,0.0,0.0,0.0,0.0,0.0,0.0,0.0,-4.3778,-4.4297,-4.5171,-4.5594,-4.5594,-4.5594,-4.5594,-4.5594,-4.5252,-4.44,-4.2955,-4.0752,-3.9037,0.0,0.0,0.0,0.0,0.0,0.0,0.0,0.0,0.0,0.0,0.0,0.0,0.0,0.0,0.0,0.0,0.0,0.0,0.0,0.0,0.0,0.0,0.0,-3.4891,0.0,0.0,0.0,0.0,0.0,0.0,0.0,0.0,0.0,-4.0162,-4.1123,-4.2239,-4.3355,-4.397,-4.4624,-4.5479,0.0,0.0,0.0,0.0,0.0,0.0,0.0,-4.4566,-4.4047,-4.397,-4.3874,-4.3566,-4.3278,-4.3201,-4.3489,0.0,0.0,-4.3162,-4.3085,-4.3085,-4.3085,-4.3085,-4.3085,-4.3085,-4.3085,-4.3085,0.0,0.0,0.0,0.0,-4.322,0.0,0.0,0.0,-4.3201,-4.3181,0.0,-4.3143,0.0,0.0,0.0,0.0,-4.3124,-4.3124,0.0,0.0,-4.4335,-4.4786,-4.5537,-4.5556,-4.5133,-4.4355,-4.4355,-4.3932,-4.3124,-4.2297,0.0,0.0,0.0,0.0,0.0,0.0,-4.4316,-4.4374,-4.5171,-4.5594,-4.5594,-4.5594,-4.5594,-4.5575,-4.4759,-4.3951,-4.3143,-4.1467,-3.9753,-3.8051,-3.7218,0.0,0.0,0.0,0.0,0.0,0.0,0.0,0.0,0.0,0.0,0.0,0.0,0.0,0.0,0.0,0.0,0.0,0.0,0.0,0.0,-3.55,0.0,0.0,0.0,0.0,0.0,0.0,0.0,0.0,0.0,-4.1808,-4.1865,-4.1904,-4.247,-4.4066,0.0,0.0,0.0,0.0,-4.5594,-4.5594,-4.5594,-4.5594,-4.5575,-4.5575,-4.5575,-4.5575,0.0,0.0,-4.447,-4.3701,-4.347,-4.4182,-4.4355,-4.4085,-4.3355,-4.3278,-4.3258,-4.3239,-4.3297,-4.322,-4.3201,-4.3335,-4.3297,-4.6317,0.0,0.0,0.0,0.0,-4.4893,-4.4883,-4.4893,-4.4874,-4.4547,-4.397,-4.397,0.0,0.0,0.0,0.0,0.0,0.0,-4.4412,-4.5201,-4.5229,-4.5364,-4.5594,-4.5594,-4.5479,-4.522,-4.5248,-4.5105,-4.4863,-4.4008,-4.3297,-4.272,0.0,0.0,0.0,0.0,-4.4605,-4.521,-4.5479,-4.5594,-4.5594,-4.5594,-4.5594,-4.5594,-4.4767,-4.4201,-4.3951,-4.2319,-4.0915,-3.9788,-3.8377,0.0,0.0,0.0,0.0,0.0,0.0,0.0,0.0,0.0,0.0,0.0,0.0,0.0,0.0,0.0,0.0,0.0,0.0,0.0,-3.5385,-3.55,-3.5731,0.0,0.0,0.0,0.0,0.0,0.0,0.0,0.0,0.0,-4.3431,-4.3585,-4.3758,0.0,0.0,-4.5325,-4.5556,-4.5594,-4.5594,-4.5594,-4.5594,0.0,-4.5594,-4.5594,-4.5594,-4.5594,-4.5594,-4.5518,-4.5267,-4.5037,-4.496,-4.519,-4.5229,-4.5133,-4.496,-4.4874,-4.4863,-4.4902,-4.4883,-4.4883,-4.4883,-4.4874,-4.4863,-4.749,-4.6567,-4.624,-4.5922,-4.5614,-4.5594,-4.5594,-4.5594,-4.5594,-4.5306,-4.4816,-4.4825,-4.4528,-4.4085,-4.4085,0.0,0.0,0.0,-4.5094,-4.5594,-4.5594,-4.5594,-4.5594,-4.5594,-4.5594,-4.5594,-4.5594,-4.5594,-4.5594,-4.5075,-4.4575,-4.4066,0.0,-4.3816,-4.4297,-4.4643,-4.5075,-4.5575,-4.5594,-4.5594,-4.5594,-4.5594,-4.5594,-4.5575,-4.5094,-4.4662,-4.4297,-4.3028,-4.1739,-4.0554,-3.9246,-3.7969,0.0,0.0,0.0,0.0,0.0,0.0,0.0,0.0,0.0,0.0,0.0,-3.1602,-3.2122,0.0,0.0,0.0,-3.4802,-3.5276,-3.5481,-3.6096,0.0,0.0,0.0,0.0,0.0,0.0,0.0,-4.2162,-4.2585,-4.3162,-4.4162,-4.4605,-4.4825,-4.4816,-4.5267,-4.5594,-4.5594,0.0,-4.5594,-4.5594,-4.5594,-4.5594,-4.5594,-4.5594,-4.5594,-4.5594,-4.5594,-4.5594,-4.5594,-4.5594,-4.5594,-4.5594,-4.5594,-4.5594,-4.5594,-4.5594,-4.5594,-4.5594,-4.5594,-4.5594,-4.5594,-4.5594,-4.5594,-4.8259,-4.8115,-4.7413,-4.6567,-4.5729,-4.571,-4.5652,-4.5594,-4.5594,-4.5594,-4.5594,-4.5594,-4.5594,-4.5594,-4.5594,0.0,-4.5594,-4.5594,-4.5594,-4.5594,-4.5594,-4.5594,-4.5594,-4.5594,-4.5594,-4.5594,-4.5594,-4.5594,-4.5594,-4.5594,-4.5594,-4.5575,-4.4806,-4.4393,-4.4451,-4.519,-4.5594,-4.5594,-4.5594,-4.5594,-4.5594,-4.5594,-4.5594,-4.5594,-4.5594,-4.5229,-4.4412,-4.3547,-4.2354,-4.0785,-3.9823,-3.8565,-3.7007,0.0,0.0,0.0,0.0,0.0,0.0,0.0,0.0,0.0,0.0,0.0,0.0,0.0,0.0,0.0,-3.5911,0.0,-3.5769,-3.7084,0.0,0.0,0.0,-3.9727,-4.0516,-4.1373,-4.2239,-4.3085,0.0,0.0,-4.4393,-4.5114,-4.5594,-4.5594,-4.5594,-4.5594,-4.5594,-4.5594,-4.5594,-4.5594,-4.5594,-4.5594,-4.5594,-4.5594,-4.5594,-4.5594,-4.5594,-4.5594,-4.5594,-4.5594,-4.5594,-4.5594,-4.5594,-4.5594,-4.5594,-4.5594,-4.5594,-4.5594,-4.5594,-4.5594,-4.5594,-4.5594,-4.5594,-4.9683,-4.9086,-4.8875,-4.7952,-4.6605,-4.6605,-4.622,-4.5614,-4.5594,-4.5594,-4.5594,-4.5594,-4.5594,-4.5594,-4.5594,-4.5594,-4.5594,-4.5594,-4.5594,-4.5594,-4.5594,-4.5594,-4.5594,-4.5594,-4.5594,-4.5594,-4.5594,-4.5594,-4.5594,-4.5594,-4.5594,-4.5594,-4.5383,-4.5306,-4.5306,-4.5498,-4.5594,-4.5594,-4.5594,-4.5594,-4.5594,-4.5594,-4.5594,-4.5594,-4.5594,-4.5498,-4.5267,-4.3874,-4.2912,-4.245,-4.045,-3.9111,-3.87,-3.7238,0.0,0.0,0.0,0.0,0.0,0.0,0.0,0.0,0.0,-3.3449,-3.4788,0.0,-3.5718,0.0,-3.7469,-3.7623,-3.743,-3.7757,0.0,0.0,-3.9727,-4.0546,-4.1412,-4.2258,-4.3104,-4.3912,-4.4182,-4.4547,-4.521,-4.5479,-4.5594,-4.5594,-4.5594,-4.5594,-4.5594,-4.5594,-4.5594,-4.5594,-4.5594,-4.5594,-4.5594,-4.5594,-4.5594,-4.5594,-4.5594,-4.5594,-4.5594,-4.5594,-4.5594,-4.5594,-4.5594,-4.5594,-4.5594,-4.5594,-4.5594,-4.5594,-4.5594,-4.5594,-4.5594,-4.5594,-4.5594,-5.0423,-4.9971,-4.9981,-4.9221,-4.799,-4.7605,-4.7144,-4.6682,-4.6317,-4.6182,-4.6163,-4.5768,-4.5594,-4.5594,-4.5594,-4.5594,-4.5594,-4.5594,-4.5594,-4.5594,-4.5594,-4.5594,-4.5594,-4.5594,-4.5594,-4.5594,-4.5594,-4.5594,-4.5594,-4.5594,-4.5594,-4.5594,-4.5594,-4.5594,-4.5594,-4.5594,-4.5594,-4.5594,-4.5594,-4.5594,-4.5594,-4.5594,-4.5594,-4.5594,-4.5594,-4.5594,-4.5594,-4.397,-4.3085,-4.3028,-4.1008,-3.9669,-3.9323,-3.8373,-3.7488,0.0,0.0,0.0,0.0,0.0,0.0,0.0,0.0,0.0,0.0,0.0,-3.6988,-3.793,-3.8354,-3.8584,-3.8565,-3.8892,-3.945,-4.0315,-4.0816,-4.1566,-4.2777,-4.3355,-4.397,-4.4759,-4.4874,-4.5056,-4.5537,-4.5594,-4.5594,-4.5594,-4.5594,-4.5594,-4.5594,-4.5594,-4.5594,-4.5594,-4.5594,-4.5594,-4.5594,-4.5594,-4.5594,-4.5594,-4.5594,-4.5594,-4.5594,-4.5594,-4.5594,-4.5594,-4.5594,-4.5594,-4.5594,-4.5594,-4.5594,-4.5594,-4.5594,-4.5594,-4.5594,-4.5594,-4.5594,-5.0683,-5.0683,-5.0683,-5.0279,-4.951,-4.8759,-4.8317,-4.8048,-4.7355,-4.7058,-4.7009,-4.624,-4.5941,-4.5922,-4.5932,-4.5864,-4.5768,-4.5768,-4.571,-4.5594,-4.5594,-4.5594,-4.5594,-4.5594,-4.5594,-4.5594,-4.5594,-4.5594,-4.5594,-4.5594,-4.5594,-4.5594,-4.5594,-4.5594,-4.5594,-4.5594,-4.5594,-4.5594,-4.5594,-4.5594,-4.5594,-4.5594,-4.5594,-4.5594,-4.5594,-4.5594,-4.5556,-4.3989,-4.3085,-4.3028,-4.1431,-4.0169,-3.9496,-3.9361,-3.8957,0.0,-3.8065,0.0,0.0,0.0,0.0,0.0,0.0,0.0,0.0,-3.7834,-3.8315,-3.8315,-3.9123,-3.9623,-3.9604,-4.0335,-4.1143,-4.1893,-4.2066,-4.272,-4.4105,-4.4393,-4.4739,-4.5518,-4.5594,-4.5594,-4.5594,-4.5594,-4.5594,-4.5594,-4.5594,-4.5594,-4.5594,-4.5594,-4.5594,-4.5594,-4.5594,-4.5594,-4.5594,-4.5594,-4.5594,-4.5594,-4.5594,-4.5594,-4.5594,-4.5594,-4.5594,-4.5594,-4.5594,-4.5594,-4.5594,-4.5594,-4.5594,-4.5594,-4.5594,-4.5594,-4.5594,-4.5594,-4.5594,-5.0683,-5.0683,-5.0683,-5.0596,-5.0462,-5.0289,-4.9394,-4.8086,-4.7952,-4.7875,-4.7855,-4.7702,-4.7625,-4.7625,-4.7625,-4.7278,-4.6663,-4.6663,-4.6278,-4.5594,-4.5594,-4.5594,-4.5594,-4.5594,-4.5594,-4.5594,-4.5594,-4.5594,-4.5594,-4.5594,-4.5594,-4.5594,-4.5594,-4.5594,-4.5594,0.0,0.0,0.0,-4.5594,-4.5594,-4.5594,-4.5594,-4.5594,-4.5594,-4.5594,0.0,-4.5537,-4.3989,-4.3085,-4.3047,-4.1439,0.0,0.0,0.0,0.0,0.0,0.0,0.0,0.0,0.0,0.0,0.0,-3.8507,-3.8815,-3.8823,-3.9573,-4.0035,-4.0054,-4.0816,-4.1335,-4.1335,-4.2104,-4.2681,-4.2854,-4.3431,-4.3951,-4.4297,-4.4921,-4.5441,-4.5556,-4.5594,-4.5594,-4.5594,-4.5594,-4.5594,-4.5594,-4.5594,-4.5594,-4.5594,-4.5594,-4.5594,-4.5594,-4.5594,-4.5594,-4.5594,-4.5594,-4.5594,-4.5594,-4.5594,-4.5594,-4.5594,-4.5594,-4.5594,-4.5594,-4.5594,-4.5594,-4.5594,-4.5594,-4.5594,-4.5594,-4.5594,-4.5594,-4.5594,-4.5594,-4.5594,-5.0683,-5.0683,-5.0683,-5.0683,0.0,-5.0683,-5.0212,-4.9356,-4.8933,-4.8509,-4.8096,-4.8096,-4.8096,-4.8096,-4.8096,-4.7894,-4.7462,-4.7077,-4.6663,-4.622,-4.5778,-4.5594,-4.5594,-4.5594,-4.5594,-4.5594,-4.5594,-4.5594,-4.5594,-4.5594,-4.5594,-4.5594,-4.5594,-4.5594,-4.5594,-4.5594,-4.5594,-4.5594,-4.5594,-4.5594,-4.5594,-4.5594,-4.5594,-4.5594,-4.5594,0.0,0.0,0.0,0.0,0.0,0.0,0.0,0.0,0.0,0.0,-3.99,-3.9477,-3.9246,-3.9238,-3.9227,-3.9411,-3.9873,-4.0681,-4.0989,-4.0566,-4.1296,-4.1785,-4.1797,-4.22,-4.245,-4.247,-4.2835,-4.3278,-4.3643,-4.4066,-4.4432,-4.4902,-4.5325,-4.5594,-4.5594,-4.5594,-4.5594,-4.5594,-4.5594,-4.5594,-4.5594,-4.5594,-4.5594,-4.5594,-4.5594,-4.5594,-4.5594,-4.5594,-4.5594,-4.5594,-4.5594,-4.5594,-4.5594,-4.5594,-4.5594,-4.5594,-4.5594,-4.5594,-4.5594,-4.5594,-4.5594,-4.5594,-4.5594,-4.5594,-4.5594,-4.5594,-4.5594,-4.5594,-4.5594,-4.5594,-5.0683,-5.0683,-5.0683,-5.0683,-5.0683,-5.0683,-5.0683,-5.0654,-4.9952,0.0,0.0,-4.8567,-4.8567,-4.8567,-4.8567,-4.849,-4.8279,-4.7635,-4.7259,-4.7086,-4.622,-4.5845,-4.5806,-4.5671,-4.5594,-4.5594,-4.5594,-4.5594,-4.5594,-4.5594,-4.5594,-4.5594,-4.5594,-4.5594,-4.5594,-4.5594,-4.5594,-4.5594,-4.5594,-4.5594,-4.5594,-4.5594,-4.5594,-4.5594,-4.5594,-4.5594,-4.5575,-4.4739,-4.3989,-4.3335,-4.2489,-4.172,-4.1016,-4.0958,-4.0977,-4.0958,-4.095,-4.095,-4.0958,-4.0958,-4.1277,-4.1989,-4.2816,-4.2951,-4.2096,-4.2701,-4.3085,-4.3085,-4.322,-4.3297,-4.3316,-4.347,-4.3797,-4.447,-4.4528,-4.4836,-4.5479,-4.5594,-4.5594,-4.5594,-4.5594,-4.5594,-4.5594,-4.5594,-4.5594,-4.5594,-4.5594,-4.5594,-4.5594,-4.5594,-4.5594,-4.5594,-4.5594,-4.5594,-4.5594,-4.5594,-4.5594,-4.5594,-4.5594,-4.5594,-4.5594,-4.5594,-4.5594,-4.5594,-4.5594,-4.5594,-4.5594,-4.5594,-4.5594,-4.5594,-4.5594,-4.5594,-4.5594,-4.5594,-4.5594,-5.0683,-5.0683,-5.0683,-5.0683,-5.0683,-5.0683,-5.0683,-5.0683,-5.0577,-5.0442,-5.0337,-5.0346,-5.0337,-5.0327,-5.0317,-4.9933,-4.9221,-4.9106,-4.8644,-4.7913,-4.7086,-4.6721,-4.6682,-4.5951,-4.5594,-4.5594,-4.5594,-4.5594,-4.5594,-4.5594,-4.5594,-4.5594,-4.5594,-4.5594,-4.5594,-4.5594,-4.5594,-4.5594,-4.5594,-4.5594,-4.5594,-4.5594,-4.5594,-4.5594,-4.5594,-4.5594,-4.5575,-4.4759,-4.4259,-4.4124,-4.3355,-4.2854,-4.2739,-4.2681,-4.2739,-4.2739,-4.2739,-4.2739,-4.272,-4.272,-4.2797,-4.2951,-4.3682,-4.3797,-4.3008,-4.3028,-4.3085,-4.3124,-4.3758,-4.4143,-4.4162,-4.4759,-4.519,-4.5355,-4.5421,-4.5479,-4.5594,-4.5594,-4.5594,-4.5594,-4.5594,-4.5594,-4.5594,-4.5594,-4.5594,-4.5594,-4.5594,-4.5594,-4.5594,-4.5594,-4.5594,-4.5594,-4.5594,-4.5594,-4.5594,-4.5594,-4.5594,-4.5594,-4.5594,-4.5594,-4.5594,-4.5594,-4.5594,-4.5594,-4.5594,-4.5594,-4.5594,-4.5594,-4.5594,-4.5594,-4.5594,-4.5594,-4.5594,-4.5594,-4.5594,-5.0683,-5.0683,-5.0683,-5.0683,-5.0683,-5.0683,-5.0683,-5.0683,-5.0683,-5.0683,-5.0683,-5.0683,-5.0683,-5.0683,-5.0683,-5.0471,-5.0087,-4.9606,-4.9183,-4.874,-4.7509,-4.6904,-4.6808,-4.6009,-4.5594,-4.5594,-4.5594,-4.5594,-4.5594,-4.5594,-4.5594,-4.5594,-4.5594,-4.5594,-4.5594,-4.5594,-4.5594,-4.5594,-4.5594,-4.5594,-4.5594,-4.5594,-4.5594,-4.5594,-4.5594,-4.5594,-4.5594,-4.5229,-4.4778,-4.4316,-4.3932,-4.3547,-4.3124,-4.3085,-4.3085,-4.3085,-4.3085,-4.3085,-4.3085,-4.3528,-4.3739,-4.3778,-4.4528,-4.4863,-4.4498,-4.4451,-4.4451,-4.447,-4.4825,-4.4998,-4.4989,-4.5364,-4.5594,-4.5594,-4.5594,-4.5594,-4.5594,-4.5594,-4.5594,-4.5594,-4.5594,-4.5594,-4.5594,-4.5594,-4.5594,-4.5594,-4.5594,-4.5594,-4.5594,-4.5594,-4.5594,-4.5594,-4.5594,-4.5594,-4.5594,-4.5594,-4.5594,-4.5594,-4.5594,-4.5594,-4.5594,-4.5594,-4.5594,-4.5594,-4.5594,-4.5594,-4.5594,-4.5594,-4.5594,-4.5594,-4.5594,-4.5594,-4.5594,-4.5594,-4.5594,-5.0856,-5.0683,-5.0683,-5.0683,-5.0683,-5.0683,-5.0683,-5.0683,-5.0683,-5.0683,-5.0683,-5.0683,-5.0683,-5.0683,-5.0683,-5.0683,-5.0587,-5.001,-4.9702,-4.9529,-4.8163,-4.7355,-4.7086,-4.6297,-4.5787,-4.5614,-4.5594,-4.5594,-4.5594,-4.5594,-4.5594,-4.5594,-4.5594,-4.5594,-4.5594,-4.5594,-4.5594,-4.5594,-4.5594,-4.5594,-4.5594,-4.5594,-4.5594,-4.5594,-4.5594,-4.5594,-4.5594,-4.5594,-4.5287,-4.4652,-4.4586,-4.4297,-4.372,-4.3662,-4.3662,-4.3662,-4.3662,-4.3662,-4.3682,-4.4239,-4.4586,-4.4586,-4.5229,-4.5594,-4.5594,-4.5594,-4.5594,-4.5594,-4.5537,-4.5575,-4.5556,-4.5575,-4.5594,-4.5594,-4.5594,-4.5594,-4.5594,-4.5594,-4.5594,-4.5594,-4.5594,-4.5594,-4.5594,-4.5594,-4.5594,-4.5594,-4.5594,-4.5594,-4.5594,-4.5594,-4.5594,-4.5594,-4.5594,-4.5594,-4.5594,-4.5594,-4.5594,-4.5594,-4.5594,-4.5594,-4.5594,-4.5594,-4.5594,-4.5594,-4.5594,-4.5594,-4.5594,-4.5594,-4.5594,-4.5594,-4.5594,-4.5594,-4.5594,-4.5594,-4.5594,-5.1375,-5.075,-5.0712,-5.0683,-5.0683,-5.0683,-5.0683,-5.0683,-5.0683,-5.0683,-5.0683,-5.0683,-5.0683,-5.0683,-5.0683,-5.0683,-5.0683,-5.0616,-5.0558,-5.0442,-4.9606,-4.874,-4.7932,-4.7144,-4.6355,-4.5691,-4.5594,-4.5594,-4.5594,-4.5594,-4.5594,-4.5594,-4.5594,-4.5594,-4.5594,-4.5594,-4.5594,-4.5594,-4.5594,-4.5594,-4.5594,-4.5594,-4.5594,-4.5594,-4.5594,-4.5594,-4.5594,-4.5594,-4.5556,-4.5498,-4.5441,-4.5441,-4.5344,-4.5344,-4.5344,-4.5325,-4.5325,-4.5383,-4.5344,-4.5421,-4.5441,-4.5479,-4.5518,-4.5594,-4.5594,-4.5594,-4.5594,-4.5594,-4.5594,-4.5594,-4.5594,-4.5594,-4.5594,-4.5594,-4.5594,-4.5594,-4.5594,-4.5594,-4.5594,-4.5594,-4.5594,-4.5594,-4.5594,-4.5594,-4.5594,-4.5594,-4.5594,-4.5594,-4.5594,-4.5594,-4.5594,-4.5594,-4.5594,-4.5594,-4.5594,-4.5594,-4.5594,-4.5594,-4.5594,-4.5594,-4.5594,-4.5594,-4.5594,-4.5594,-4.5594,-4.5594,-4.5594,-4.5594,-4.5594,-4.5594,-4.5594,-4.5594,-4.5594,-4.5594,-4.5594,-5.1692,-5.1356,-5.0894,-5.0683,-5.0683,-5.0683,-5.0683,-5.0683,-5.0683,-5.0683,-5.0683,-5.0683,-5.0683,-5.0683,-5.0683,-5.0683,-5.0683,-5.0683,-5.0683,-5.0616,-4.9798,-4.8933,-4.8067,-4.7278,-4.6451,-4.5652,-4.5594,-4.5594,-4.5594,-4.5594,-4.5594,-4.5594,-4.5594,-4.5594,-4.5594,-4.5594,-4.5594,-4.5594,-4.5594,-4.5594,-4.5594,-4.5594,-4.5594,-4.5594,-4.5594,-4.5594,-4.5594,-4.5594,-4.5594,-4.5594,-4.5594,-4.5594,-4.5594,-4.5594,-4.5594,-4.5594,-4.5594,-4.5594,-4.5594,-4.5594,-4.5594,-4.5594,-4.5594,-4.5594,-4.5594,-4.5594,-4.5594,-4.5594,-4.5594,-4.5594,-4.5594,-4.5594,-4.5594,-4.5594,-4.5594,-4.5594,-4.5594,-4.5594,-4.5594,-4.5594,-4.5594,-4.5594,-4.5594,-4.5594,-4.5594,-4.5594,-4.5594,-4.5594,-4.5594,-4.5594,-4.5594,-4.5594,-4.5594,-4.5594,-4.5594,-4.5594,-4.5594,-4.5594,-4.5594,-4.5594,-4.5594,-4.5594,-4.5594,-4.5594,-4.5594,-4.5594,-4.5594,-4.5594,-4.5594,-4.5594,-4.5594,-4.5594,-4.5594,-4.5594,-4.5594,-5.2308,-5.1808,-5.1029,-5.0683,-5.0683,-5.0683,-5.0683,-5.0683,-5.0683,-5.0683,-5.0683,-5.0683,-5.0683,-5.0683,-5.0683,-5.0683,-5.0683,-5.0683,-5.0683,-5.0635,-5.0038,-4.9163,-4.8125,-4.7528,-4.6644,-4.5748,-4.5594,-4.5594,-4.5594,-4.5594,-4.5594,-4.5594,-4.5594,-4.5594,-4.5594,-4.5594,-4.5594,-4.5594,-4.5594,-4.5594,-4.5594,-4.5594,-4.5594,-4.5594,-4.5594,-4.5594,-4.5594,-4.5594,-4.5594,-4.5594,-4.5594,-4.5594,-4.5594,-4.5594,-4.5594,-4.5594,-4.5594,-4.5594,-4.5594,-4.5594,-4.5622,-4.5631,-4.5631,-4.564,-4.5629,-4.5629,-4.5629,-4.5629,-4.5629,-4.5629,-4.5594,-4.5594,-4.5594,-4.5594,-4.5594,-4.5594,-4.5594,-4.5594,-4.5594,-4.5594,-4.5594,-4.5594,-4.5594,-4.5594,-4.5594,-4.5594,-4.5594,-4.5594,-4.5594,-4.5594,-4.5594,-4.5594,-4.5594,-4.5594,-4.5594,-4.5594,-4.5594,-4.5594,-4.5594,-4.5594,-4.5594,-4.5594,-4.5594,-4.5594,-4.5594,-4.5594,-4.5594,-4.5594,-4.5594,-4.5594,-4.5594,-4.5594,-4.5594,-4.5594,-4.5594,-5.3433,-5.1885,-5.1029,-5.0731,-5.0683,-5.0683,-5.0683,-5.0683,-5.0683,-5.0683,-5.0683,-5.0683,-5.0683,-5.0683,-5.0683,-5.0683,-5.0683,-5.0683,-5.0683,-5.0683,-5.0616,-4.9721,-4.8154,-4.8048,-4.7182,-4.5691,-4.5594,-4.5594,-4.5594,-4.5594,-4.5594,-4.5594,-4.5594,-4.5594,-4.5594,-4.5594,-4.5594,-4.5594,-4.5594,-4.5594,-4.5594,-4.5594,-4.5594,-4.5594,-4.5594,-4.5594,-4.5594,-4.5594,-4.5594,-4.5594,-4.5594,-4.5594,-4.5594,-4.5594,-4.5594,-4.5594,-4.5594,-4.5594,-4.5594,-4.5603,-4.5612,-4.5684,-4.5682,-4.5679,-4.5665,-4.5684,-4.5665,-4.568,-4.5692,-4.566,-4.5612,-4.5612,-4.5603,-4.5614,-4.5594,-4.5594,-4.5594,-4.5594,-4.5594,-4.5594,-4.5594,-4.5594,-4.5594,-4.5594,-4.5594,-4.5594,-4.5594,-4.5594,-4.5594,-4.5594,-4.5594,-4.5594,-4.5594,-4.5594,-4.5594,-4.5594,-4.5594,-4.5421,-4.5306,-4.5421,-4.5556,-4.5594,-4.5518,-4.5498,-4.5402,-4.5402,-4.5537,-4.5594,-4.5594,-4.5594,-4.5594,-4.5594,-4.5594,-4.5594,-4.5594,-5.3491,-5.1885,-5.1596,-5.1183,-5.0712,-5.0683,-5.0683,-5.0683,-5.0683,-5.0683,-5.0683,-5.0683,-5.0683,-5.0683,-5.0683,-5.0683,-5.0683,-5.0683,-5.0683,-5.0683,-5.0683,-4.976,-4.824,-4.8096,-4.7221,-4.5806,-4.5594,-4.5594,-4.5594,-4.5594,-4.5594,-4.5594,-4.5594,-4.5594,-4.5594,-4.5594,-4.5594,-4.5594,-4.5594,-4.5594,-4.5594,-4.5594,-4.5594,-4.5594,-4.5594,-4.5594,-4.5594,-4.5594,-4.5594,-4.5594,-4.5594,-4.5594,-4.5594,-4.5594,-4.5603,-4.5648,-4.5676,-4.5673,-4.5651,-4.566,-4.5668,-4.5676,-4.5684,-4.5692,-4.568,-4.5688,-4.5688,-4.5688,-4.5688,-4.5684,-4.5695,-4.566,-4.5671,-4.5665,-4.5657,-4.5648,-4.5603,-4.5594,-4.5594,-4.5594,-4.5594,-4.5594,-4.5594,-4.5594,-4.5594,-4.5594,-4.5594,-4.5594,-4.5594,-4.5594,-4.5594,-4.5594,-4.5594,-4.5594,-4.5594,-4.5594,-4.5479,-4.4951,-4.4682,-4.4355,-4.4325,-4.4239,-4.4124,-4.4297,-4.447,-4.4836,-4.4874,-4.5441,-4.5479,-4.5594,-4.5594,-4.5594,-4.5594,-4.5594,-4.5594,-5.3645,-5.2385,-5.2019,-5.1433,-5.0721,-5.0683,-5.0683,-5.0683,-5.0683,-5.0683,-5.0683,-5.0683,-5.0702,-5.0693,-5.0693,-5.0702,-5.0731,-5.0702,-5.0683,-5.0683,-5.0683,-4.9923,-4.8663,-4.8221,-4.7384,-4.6151,-4.5725,-4.5637,-4.5637,-4.5637,-4.5618,-4.5637,-4.5637,-4.5637,-4.5637,-4.5637,-4.5618,-4.5637,-4.5618,-4.5637,-4.5637,-4.5637,-4.5637,-4.5618,-4.5637,-4.5629,-4.564,-4.5629,-4.5637,-4.5618,-4.5637,-4.5637,-4.5618,-4.5637,-4.5646,-4.5679,-4.5687,-4.5695,-4.568,-4.5688,-4.5708,-4.5723,-4.5719,-4.5727,-4.5761,-4.5757,-4.5764,-4.5764,-4.5764,-4.5764,-4.5764,-4.5757,-4.5758,-4.5703,-4.5679,-4.569,-4.5627,-4.5618,-4.5618,-4.5637,-4.5648,-4.564,-4.5631,-4.5603,-4.5594,-4.5594,-4.5594,-4.5594,-4.5594,-4.5594,-4.5594,-4.5594,-4.5612,-4.564,-4.5648,-4.5637,-4.5246,-4.4737,-4.4352,-4.3825,-4.3209,-4.3036,-4.2997,-4.3124,-4.347,-4.3912,-4.4451,-4.5086,-4.5402,-4.5556,-4.5594,-4.5594,-4.5594,-4.5594,-4.5594,-5.401,-5.3068,-5.2299,-5.1501,-5.075,-5.0721,-5.0693,-5.0702,-5.0721,-5.0712,-5.0712,-5.0702,-5.0712,-5.0692,-5.0701,-5.0729,-5.0766,-5.0721,-5.0702,-5.0702,-5.0721,-5.0221,-4.9298,-4.847,-4.7603,-4.6647,-4.6042,-4.57,-4.5673,-4.5692,-4.5673,-4.568,-4.5673,-4.5692,-4.568,-4.5692,-4.568,-4.5673,-4.5692,-4.568,-4.5688,-4.5673,-4.5692,-4.568,-4.57,-4.5703,-4.569,-4.5703,-4.5692,-4.568,-4.568,-4.568,-4.5692,-4.5692,-4.57,-4.5708,-4.5688,-4.5688,-4.5696,-4.5704,-4.5754,-4.5795,-4.5805,-4.5814,-4.586,-4.5874,-4.5867,-4.5886,-4.5886,-4.588,-4.5886,-4.5887,-4.5833,-4.5712,-4.5708,-4.57,-4.57,-4.568,-4.568,-4.5692,-4.5679,-4.5682,-4.5693,-4.5657,-4.5612,-4.5612,-4.5612,-4.5612,-4.5612,-4.562,-4.5603,-4.5612,-4.5637,-4.5662,-4.5679,-4.5629,-4.5076,-4.4562,-4.4234,-4.3772,-4.281,-4.2387,-4.2329,-4.2456,-4.3036,-4.3508,-4.4355,-4.4951,-4.5421,-4.5594,-4.5594,-4.5594,-4.5594,-4.5594,-4.5594,-5.4511,-5.3241,-5.2974,-5.2011,-5.0779,-5.0758,-5.0776,-5.0757,-5.0776,-5.0757,-5.0757,-5.0776,-5.0785,-5.0775,-5.0775,-5.0784,-5.0801,-5.0785,-5.0776,-5.0757,-5.0776,-5.0324,-4.9476,-4.8609,-4.7461,-4.6262,-4.5835,-4.5688,-4.5688,-4.5688,-4.5688,-4.5688,-4.5688,-4.5688,-4.5696,-4.5688,-4.5688,-4.5688,-4.5688,-4.5688,-4.5688,-4.5688,-4.5688,-4.5708,-4.5731,-4.5773,-4.5769,-4.5731,-4.5688,-4.5688,-4.5688,-4.5688,-4.5688,-4.5688,-4.5712,-4.5764,-4.5771,-4.58,-4.5822,-4.5841,-4.5848,-4.5861,-4.5874,-4.588,-4.5893,-4.5905,-4.5898,-4.5892,-4.5892,-4.5892,-4.5911,-4.5899,-4.5861,-4.5778,-4.5761,-4.5758,-4.5723,-4.5696,-4.5688,-4.5688,-4.5692,-4.5684,-4.5703,-4.5687,-4.566,-4.566,-4.566,-4.566,-4.566,-4.566,-4.5668,-4.5668,-4.5684,-4.5692,-4.5708,-4.5646,-4.5252,-4.4546,-4.4048,-4.34,-4.2456,-4.1744,-4.1686,-4.1959,-4.2533,-4.3275,-4.4113,-4.4872,-4.54,-4.5603,-4.5603,-4.5603,-4.5594,-4.5603,-4.5612,-5.4784,-5.3292,-5.3282,-5.2318,-5.0815,-5.0784,-5.0821,-5.0821,-5.0821,-5.0821,-5.0821,-5.0821,-5.0819,-5.0844,-5.0825,-5.0869,-5.0913,-5.0893,-5.0913,-5.0897,-5.0819,-5.0473,-4.9837,-4.8792,-4.7399,-4.6024,-4.5769,-4.5783,-4.5771,-4.5778,-4.5778,-4.5778,-4.5759,-4.5778,-4.5778,-4.5752,-4.5778,-4.5778,-4.5778,-4.5778,-4.5778,-4.5778,-4.5759,-4.5778,-4.5819,-4.584,-4.5822,-4.58,-4.5771,-4.5778,-4.5778,-4.5778,-4.5778,-4.5759,-4.58,-4.5834,-4.5848,-4.5874,-4.5917,-4.5943,-4.5935,-4.5941,-4.5953,-4.5964,-4.5964,-4.5969,-4.598,-4.5961,-4.598,-4.5975,-4.598,-4.5989,-4.596,-4.5931,-4.5874,-4.5826,-4.5778,-4.5778,-4.5771,-4.5764,-4.5769,-4.5746,-4.575,-4.5708,-4.5688,-4.5688,-4.5688,-4.5688,-4.5688,-4.568,-4.5688,-4.5696,-4.5723,-4.5731,-4.5734,-4.5614,-4.5416,-4.4641,-4.3854,-4.2949,-4.1981,-4.1287,-4.0971,-4.1485,-4.2021,-4.2965,-4.3832,-4.495,-4.5643,-4.5646,-4.5637,-4.5635,-4.5643,-4.5635,-4.5643,-5.4882,-5.3367,-5.331,-5.2354,-5.0887,-5.0819,-5.0827,-5.0846,-5.0846,-5.0855,-5.0846,-5.0855,-5.085,-5.0898,-5.0925,-5.0983,-5.108,-5.106,-5.106,-5.1032,-5.0917,-5.0717,-5.0312,-4.9003,-4.7526,-4.622,-4.5918,-4.5893,-4.5886,-4.5886,-4.5905,-4.5873,-4.5873,-4.5905,-4.5873,-4.5905,-4.5873,-4.5893,-4.5905,-4.5899,-4.5886,-4.5911,-4.5911,-4.5892,-4.5911,-4.5911,-4.5917,-4.5923,-4.5892,-4.5911,-4.5893,-4.5899,-4.5905,-4.5911,-4.5911,-4.5917,-4.5917,-4.596,-4.5978,-4.5994,-4.6,-4.6002,-4.6066,-4.6124,-4.6081,-4.608,-4.6108,-4.6093,-4.6093,-4.6093,-4.6093,-4.6099,-4.61,-4.609,-4.5983,-4.5911,-4.5911,-4.5886,-4.588,-4.5893,-4.5847,-4.5819,-4.5791,-4.5761,-4.5727,-4.5719,-4.5727,-4.5734,-4.5734,-4.5742,-4.5712,-4.5754,-4.5791,-4.5786,-4.5814,-4.5782,-4.5602,-4.5182,-4.424,-4.313,-4.2084,-4.1343,-4.0937,-4.1366,-4.208,-4.291,-4.3744,-4.4932,-4.5607,-4.5676,-4.5684,-4.568,-4.568,-4.5684,-4.5676,-5.4882,-5.3348,-5.3365,-5.2406,-5.099,-5.0925,-5.0975,-5.1017,-5.0998,-5.0998,-5.1017,-5.1024,-5.1024,-5.1066,-5.1046,-5.108,-5.1081,-5.1107,-5.1095,-5.1095,-5.1049,-5.0608,-4.9979,-4.8972,-4.7882,-4.6855,-4.619,-4.5905,-4.5892,-4.5923,-4.5898,-4.5892,-4.5923,-4.5898,-4.5892,-4.5917,-4.5923,-4.596,-4.5966,-4.5978,-4.5994,-4.598,-4.5956,-4.5961,-4.598,-4.5991,-4.6026,-4.6047,-4.5997,-4.5917,-4.5955,-4.5986,-4.5972,-4.5969,-4.5986,-4.6021,-4.6046,-4.6042,-4.6081,-4.6085,-4.6071,-4.606,-4.6083,-4.6111,-4.6111,-4.615,-4.6181,-4.6162,-4.6162,-4.6181,-4.6181,-4.6177,-4.617,-4.6106,-4.6032,-4.598,-4.5972,-4.5966,-4.5949,-4.5899,-4.5867,-4.588,-4.5867,-4.5854,-4.5828,-4.5848,-4.5848,-4.5848,-4.5841,-4.5822,-4.5822,-4.5835,-4.5874,-4.5854,-4.5861,-4.5886,-4.5796,-4.5641,-4.4821,-4.3729,-4.2744,-4.1925,-4.1712,-4.1833,-4.2992,-4.39,-4.4353,-4.5129,-4.538,-4.5719,-4.5712,-4.5727,-4.5704,-4.5708,-4.5708,-5.4671,-5.3404,-5.308,-5.2187,-5.1048,-5.1039,-5.108,-5.1081,-5.1095,-5.1082,-5.1089,-5.1076,-5.1108,-5.1146,-5.1146,-5.1133,-5.1145,-5.1145,-5.1138,-5.113,-5.1136,-5.0666,-4.982,-4.8935,-4.8107,-4.7264,-4.6416,-4.6033,-4.5986,-4.5986,-4.5966,-4.5991,-4.5986,-4.5986,-4.5991,-4.5986,-4.6011,-4.6051,-4.6032,-4.6017,-4.6052,-4.6056,-4.6042,-4.6047,-4.6051,-4.608,-4.6122,-4.6138,-4.6089,-4.6012,-4.6021,-4.6051,-4.6032,-4.6027,-4.6066,-4.6108,-4.6108,-4.6102,-4.6131,-4.6135,-4.6142,-4.613,-4.6141,-4.6144,-4.6148,-4.6177,-4.62,-4.62,-4.62,-4.62,-4.62,-4.62,-4.6177,-4.6144,-4.6096,-4.6074,-4.6061,-4.6051,-4.6016,-4.6,-4.5989,-4.5983,-4.5953,-4.5941,-4.5935,-4.5941,-4.5949,-4.5935,-4.5941,-4.5947,-4.5947,-4.5947,-4.5953,-4.5958,-4.5964,-4.5994,-4.6005,-4.5845,-4.5359,-4.4286,-4.3563,-4.272,-4.2607,-4.286,-4.3924,-4.4684,-4.4947,-4.5237,-4.5587,-4.5794,-4.5773,-4.5759,-4.5778,-4.5769,-4.5761,-5.426,-5.3395,-5.2639,-5.1851,-5.1172,-5.1114,-5.1108,-5.1108,-5.1108,-5.112,-5.1126,-5.1125,-5.1147,-5.1219,-5.1214,-5.121,-5.1215,-5.1211,-5.1196,-5.122,-5.1167,-5.0821,-5.0169,-4.9093,-4.8321,-4.7558,-4.6615,-4.6158,-4.6093,-4.6098,-4.6102,-4.6098,-4.6098,-4.6102,-4.6093,-4.6098,-4.6102,-4.6106,-4.6106,-4.6111,-4.6119,-4.6119,-4.6107,-4.6115,-4.6119,-4.6146,-4.6176,-4.6203,-4.6165,-4.6111,-4.6111,-4.6106,-4.6106,-4.6106,-4.6099,-4.6096,-4.6123,-4.6137,-4.618,-4.6203,-4.6209,-4.6198,-4.6206,-4.6211,-4.6231,-4.6214,-4.6219,-4.6221,-4.6216,-4.6219,-4.6214,-4.6214,-4.6228,-4.6203,-4.6184,-4.6157,-4.6135,-4.6106,-4.6117,-4.611,-4.6085,-4.6076,-4.6032,-4.603,-4.6019,-4.6007,-4.6021,-4.6021,-4.6007,-4.6007,-4.6007,-4.6026,-4.6037,-4.6047,-4.6056,-4.609,-4.6099,-4.6031,-4.5641,-4.4928,-4.4453,-4.3859,-4.3632,-4.3914,-4.4672,-4.5021,-4.5124,-4.544,-4.5795,-4.5899,-4.5874,-4.5886,-4.5893,-4.5854,-4.5834,-5.3398,-5.2628,-5.2453,-5.1909,-5.1239,-5.1181,-5.1173,-5.1189,-5.118,-5.1185,-5.1185,-5.119,-5.1211,-5.1273,-5.1278,-5.1287,-5.1284,-5.1269,-5.1277,-5.1277,-5.1346,-5.1291,-5.0685,-4.9461,-4.8636,-4.8042,-4.6851,-4.622,-4.6165,-4.6165,-4.6185,-4.6165,-4.6165,-4.6165,-4.6165,-4.6165,-4.6192,-4.6183,-4.6187,-4.617,-4.618,-4.6183,-4.6186,-4.6173,-4.6173,-4.6195,-4.6195,-4.6198,-4.6195,-4.6167,-4.6177,-4.6193,-4.6187,-4.6177,-4.6164,-4.617,-4.6173,-4.6195,-4.6201,-4.6206,-4.6206,-4.6214,-4.6247,-4.6275,-4.6277,-4.6267,-4.6273,-4.6274,-4.6294,-4.627,-4.6264,-4.6278,-4.6273,-4.6264,-4.6238,-4.6206,-4.617,-4.6177,-4.6153,-4.6127,-4.6115,-4.6111,-4.6089,-4.608,-4.6075,-4.608,-4.608,-4.6075,-4.608,-4.6069,-4.6074,-4.6098,-4.6083,-4.6095,-4.6119,-4.6146,-4.6154,-4.6162,-4.5854,-4.562,-4.5133,-4.4845,-4.4574,-4.4764,-4.5223,-4.5417,-4.5476,-4.5631,-4.5975,-4.5964,-4.5972,-4.5972,-4.5947,-4.5943,-4.5931,-5.2838,-5.2403,-5.2014,-5.1608,-5.1269,-5.123,-5.1244,-5.1243,-5.1256,-5.1241,-5.1265,-5.1269,-5.1304,-5.1331,-5.1335,-5.1339,-5.1346,-5.1346,-5.1353,-5.1343,-5.1388,-5.1394,-5.1026,-4.9724,-4.8714,-4.847,-4.7015,-4.6281,-4.6203,-4.6203,-4.6203,-4.6203,-4.6203,-4.6203,-4.6203,-4.6203,-4.6206,-4.6212,-4.6195,-4.6201,-4.6206,-4.6206,-4.6216,-4.6245,-4.6249,-4.6236,-4.6239,-4.6259,-4.6239,-4.6239,-4.6234,-4.6221,-4.6201,-4.6203,-4.6214,-4.6243,-4.6264,-4.6251,-4.6236,-4.6239,-4.6261,-4.6239,-4.6269,-4.6291,-4.6293,-4.6299,-4.6301,-4.6301,-4.6301,-4.6301,-4.6297,-4.6295,-4.629,-4.6287,-4.6282,-4.6239,-4.6236,-4.6216,-4.6192,-4.6174,-4.617,-4.6167,-4.616,-4.6142,-4.6146,-4.6153,-4.6142,-4.6142,-4.6157,-4.6141,-4.6141,-4.6144,-4.6148,-4.6151,-4.6154,-4.6177,-4.618,-4.6183,-4.6105,-4.5988,-4.58,-4.5604,-4.5449,-4.562,-4.5725,-4.5828,-4.5901,-4.6037,-4.6042,-4.6052,-4.6042,-4.6032,-4.6021,-4.6016,-4.603,-5.232,-5.2285,-5.1546,-5.1267,-5.1304,-5.1323,-5.1316,-5.1312,-5.133,-5.131,-5.1317,-5.1388,-5.1388,-5.14,-5.14,-5.1403,-5.1389,-5.1389,-5.1374,-5.1396,-5.1396,-5.1399,-5.0969,-4.9764,-4.8788,-4.8618,-4.706,-4.6299,-4.6221,-4.6199,-4.6223,-4.6221,-4.6221,-4.6243,-4.6221,-4.6221,-4.6223,-4.6225,-4.6225,-4.6225,-4.6225,-4.6225,-4.6253,-4.6284,-4.629,-4.6274,-4.6278,-4.6299,-4.6301,-4.6301,-4.6301,-4.627,-4.6232,-4.6221,-4.6247,-4.6305,-4.6305,-4.629,-4.6277,-4.628,-4.63,-4.6301,-4.6302,-4.6302,-4.6302,-4.6304,-4.6305,-4.6305,-4.6305,-4.6305,-4.6303,-4.6302,-4.6301,-4.6301,-4.6301,-4.6301,-4.6279,-4.6239,-4.6225,-4.6211,-4.6226,-4.6217,-4.6195,-4.6186,-4.6198,-4.6203,-4.6215,-4.6212,-4.6203,-4.6206,-4.6181,-4.6201,-4.6201,-4.6199,-4.6223,-4.6223,-4.6223,-4.6221,-4.6221,-4.6219,-4.6216,-4.6069,-4.5894,-4.5962,-4.6076,-4.6123,-4.6123,-4.6111,-4.6127,-4.6115,-4.6111,-4.6106,-4.6117,-4.6104,-4.6099,-5.1521,-5.157,-5.1418,-5.1379,-5.1382,-5.1382,-5.1366,-5.1385,-5.1391,-5.1372,-5.1372,-5.1394,-5.1394,-5.1384,-5.1388,-5.1398,-5.1385,-5.1387,-5.1389,-5.1389,-5.1389,-5.1389,-5.1057,-4.9711,-4.8912,-4.8425,-4.7174,-4.6294,-4.6274,-4.6277,-4.6272,-4.6276,-4.6274,-4.6274,-4.6273,-4.6296,-4.6273,-4.6272,-4.6272,-4.6273,-4.6273,-4.6273,-4.6274,-4.6297,-4.63,-4.6301,-4.6301,-4.6302,-4.6301,-4.6301,-4.6301,-4.63,-4.6277,-4.6276,-4.6277,-4.6297,-4.6299,-4.63,-4.6303,-4.6302,-4.6302,-4.6302,-4.6305,-4.6306,-4.6307,-4.6289,-4.6289,-4.6289,-4.6289,-4.6288,-4.6306,-4.6306,-4.6305,-4.6303,-4.6302,-4.6302,-4.6301,-4.6278,-4.627,-4.6261,-4.6271,-4.6264,-4.6243,-4.6221,-4.6223,-4.6225,-4.6221,-4.6219,-4.6221,-4.6221,-4.6194,-4.6219,-4.6245,-4.6262,-4.6276,-4.6274,-4.6274,-4.6272,-4.627,-4.6267,-4.6266,-4.628,-4.6267,-4.6209,-4.6173,-4.618,-4.6183,-4.6183,-4.6177,-4.6164,-4.6164,-4.6183,-4.6153,-4.6135,-4.6107,-5.1369,-5.1394,-5.1394,-5.1383,-5.1396,-5.1396,-5.1386,-5.1394,-5.1394,-5.1394,-5.1394,-5.1396,-5.14,-5.1387,-5.1389,-5.1394,-5.1397,-5.1398,-5.1398,-5.1398,-5.1398,-5.1398,-5.1184,-4.9682,-4.9058,-4.8414,-4.7205,-4.6305,-4.6302,-4.6301,-4.6302,-4.6301,-4.6301,-4.6301,-4.6301,-4.6301,-4.6301,-4.6301,-4.6302,-4.6302,-4.6301,-4.6301,-4.6302,-4.6305,-4.6305,-4.6306,-4.6287,-4.6287,-4.6287,-4.6288,-4.6287,-4.6289,-4.6289,-4.6289,-4.6289,-4.6305,-4.6305,-4.6306,-4.6307,-4.6287,-4.6288,-4.6288,-4.6289,-4.6289,-4.6289,-4.6289,-4.6289,-4.6289,-4.6289,-4.6289,-4.6289,-4.6289,-4.6288,-4.6288,-4.6289,-4.6289,-4.6306,-4.6305,-4.6302,-4.6297,-4.6294,-4.627,-4.6267,-4.6266,-4.6264,-4.6262,-4.6241,-4.6239,-4.6238,-4.6238,-4.6236,-4.6241,-4.6287,-4.6293,-4.6302,-4.6303,-4.6304,-4.6303,-4.6303,-4.6301,-4.63,-4.6294,-4.6291,-4.6246,-4.6238,-4.6219,-4.6206,-4.6198,-4.6198,-4.6201,-4.6198,-4.6195,-4.6186,-4.6161,-4.6154,-5.1391,-5.1391,-5.1391,-5.1384,-5.14,-5.14,-5.1389,-5.1397,-5.1397,-5.1397,-5.1398,-5.1398,-5.1398,-5.14,-5.1401,-5.1401,-5.1401,-5.1402,-5.1402,-5.1402,-5.1402,-5.1402,-5.0934,-4.988,-4.8886,-4.8632,-4.7148,-4.6308,-4.6306,-4.6305,-4.6305,-4.6305,-4.6305,-4.6304,-4.6305,-4.6305,-4.6304,-4.6304,-4.6304,-4.6304,-4.6304,-4.6305,-4.6305,-4.6288,-4.6288,-4.6288,-4.6289,-4.6289,-4.6289,-4.6289,-4.6289,-4.6289,-4.6289,-4.6289,-4.6289,-4.6288,-4.6288,-4.6289,-4.6289,-4.6289,-4.6289,-4.6289,-4.6289,-4.6289,-4.6289,-4.6289,-4.6289,-4.6289,-4.6289,-4.6289,-4.6289,-4.6289,-4.6289,-4.6289,-4.6289,-4.6289,-4.6289,-4.6289,-4.6288,-4.6306,-4.6289,-4.6283,-4.6279,-4.6277,-4.6274,-4.6274,-4.6273,-4.6274,-4.6273,-4.6276,-4.6276,-4.628,-4.6301,-4.6302,-4.6305,-4.6306,-4.6306,-4.6306,-4.6306,-4.6306,-4.6305,-4.6302,-4.6282,-4.6279,-4.627,-4.6236,-4.6225,-4.6221,-4.6251,-4.6253,-4.6225,-4.6206,-4.6228,-4.6221,-4.6211,-5.1394,-5.1394,-5.1394,-5.1395,-5.1396,-5.1396,-5.1396,-5.1398,-5.1399,-5.1398,-5.14,-5.1399,-5.1402,-5.1384,-5.1386,-5.1386,-5.1387,-5.1387,-5.1387,-5.1387,-5.1387,-5.1348,-5.1094,-4.9687,-4.8906,-4.8496,-4.709,-4.6406,-4.6289,-4.6289,-4.6289,-4.6289,-4.6289,-4.6289,-4.6289,-4.6289,-4.6289,-4.6289,-4.6289,-4.6289,-4.6289,-4.6289,-4.6289,-4.6289,-4.6289,-4.6289,-4.6289,-4.6289,-4.6289,-4.6289,-4.6289,-4.6289,-4.6289,-4.6289,-4.6289,-4.6289,-4.6289,-4.6289,-4.6289,-4.6289,-4.6289,-4.6289,-4.6289,-4.6289,-4.6289,-4.6289,-4.6289,-4.6289,-4.6289,-4.6289,-4.6289,-4.6289,-4.6289,-4.6289,-4.6289,-4.6289,-4.6289,-4.6289,-4.6289,-4.6289,-4.6289,-4.6289,-4.6284,-4.6302,-4.6301,-4.6301,-4.6289,-4.6289,-4.6303,-4.6304,-4.6305,-4.6306,-4.6306,-4.6287,-4.6289,-4.6289,-4.6289,-4.6289,-4.6289,-4.6289,-4.6288,-4.6306,-4.6305,-4.6283,-4.6269,-4.6269,-4.6274,-4.6274,-4.6296,-4.6274,-4.6248,-4.6273,-4.6279,-4.6291,-4.6277,-5.1384,-5.1398,-5.1398,-5.14,-5.1402,-5.1402,-5.1384,-5.1385,-5.1385,-5.1385,-5.1385,-5.1385,-5.1386,-5.1387,-5.1387,-5.1387,-5.1387,-5.1387,-5.1387,-5.1367,-5.1348,-5.1152,-5.0508,-4.9512,-4.8769,-4.7969,-4.7051,-4.6367,-4.6289,-4.6289,-4.6289,-4.6289,-4.6289,-4.6289,-4.6289,-4.6289,-4.6289,-4.6289,-4.6289,-4.6289,-4.6289,-4.6289,-4.6289,-4.6289,-4.6289,-4.6289,-4.6289,-4.6289,-4.6289,-4.6289,-4.6289,-4.6289,-4.6289,-4.6289,-4.6289,-4.6289,-4.6289,-4.6289,-4.6289,-4.6289,-4.6289,-4.6289,-4.6289,-4.6289,-4.6289,-4.6289,-4.6289,-4.6289,-4.6289,-4.6289,-4.6289,-4.6289,-4.6289,-4.6289,-4.6289,-4.6289,-4.6289,-4.6289,-4.6289,-4.6289,-4.6289,-4.6289,-4.6289,-4.6289,-4.6289,-4.6289,-4.6289,-4.6289,-4.6289,-4.6288,-4.6288,-4.6289,-4.6289,-4.6289,-4.6289,-4.6289,-4.6289,-4.6289,-4.6289,-4.6289,-4.6289,-4.6289,-4.6289,-4.6289,-4.6289,-4.6289,-4.6289,-4.6305,-4.6301,-4.6301,-4.6301,-4.6303,-4.6304,-4.6301,-4.6294,-5.1386,-5.1402,-5.1402,-5.1384,-5.1386,-5.1386,-5.1386,-5.1387,-5.1387,-5.1387,-5.1387,-5.1387,-5.1387,-5.1387,-5.1387,-5.1387,-5.1387,-5.1387,-5.1387,-5.1367,-5.1133,-5.0762,-5.0058,-4.918,-4.8203,-4.7578,-4.6777,-4.6348,-4.6289,-4.6289,-4.6289,-4.6289,-4.6289,-4.6289,-4.6289,-4.6289,-4.6289,-4.6289,-4.6289,-4.6289,-4.6289,-4.6289,-4.6289,-4.6289,-4.6289,-4.6289,-4.6289,-4.6289,-4.6289,-4.6289,-4.6289,-4.6289,-4.6289,-4.6289,-4.6289,-4.6289,-4.6289,-4.6289,-4.6289,-4.6289,-4.6289,-4.6289,-4.6289,-4.6289,-4.6289,-4.6289,-4.6289,-4.6289,-4.6289,-4.6289,-4.6289,-4.6289,-4.6289,-4.6289,-4.6289,-4.6289,-4.6289,-4.6289,-4.6289,-4.6289,-4.6289,-4.6289,-4.6289,-4.6289,-4.6289,-4.6289,-4.6289,-4.6289,-4.6289,-4.6289,-4.6289,-4.6289,-4.6289,-4.6289,-4.6289,-4.6289,-4.6289,-4.6289,-4.6289,-4.6289,-4.6289,-4.6289,-4.6289,-4.6289,-4.6289,-4.6289,-4.6289,-4.6289,-4.6305,-4.6306,-4.6306,-4.6306,-4.6305,-4.6304,-4.6302,-5.1387,-5.1387,-5.1387,-5.1387,-5.1387,-5.1387,-5.1387,-5.1387,-5.1387,-5.1387,-5.1387,-5.1387,-5.1387,-5.1387,-5.1387,-5.1387,-5.1387,-5.1387,-5.1328,-5.1094,-5.0703,-5.0254,-4.9531,-4.8574,-4.7695,-4.7402,-4.668,-4.6328,-4.6289,-4.6289,-4.6289,-4.6289,-4.6289,-4.6289,-4.6289,-4.6289,-4.6289,-4.6289,-4.6289,-4.6289,-4.6289,-4.6289,-4.6289,-4.6289,-4.6289,-4.6289,-4.6289,-4.6289,-4.6289,-4.6289,-4.6289,-4.6289,-4.6289,-4.6289,-4.6289,-4.6289,-4.6289,-4.6289,-4.6289,-4.6289,-4.6289,-4.6289,-4.6289,-4.6289,-4.6289,-4.6289,-4.6289,-4.6289,-4.6289,-4.6289,-4.6289,-4.6289,-4.6289,-4.6289,-4.6289,-4.6289,-4.6289,-4.6289,-4.6289,-4.6289,-4.6289,-4.6289,-4.6289,-4.6289,-4.6289,-4.6289,-4.6289,-4.6289,-4.6289,-4.6289,-4.6289,-4.6289,-4.6289,-4.6289,-4.6289,-4.6289,-4.6289,-4.6289,-4.6289,-4.6289,-4.6289,-4.6289,-4.6289,-4.6289,-4.6289,-4.6289,-4.6289,-4.6289,-4.6289,-4.6289,-4.6289,-4.6289,-4.6289,-4.6288,-4.6306,-5.1387,-5.1387,-5.1387,-5.1387,-5.1387,-5.1387,-5.1387,-5.1387,-5.1387,-5.1387,-5.1387,-5.1387,-5.1387,-5.1387,-5.1387,-5.1387,-5.1387,-5.1387,-5.1094,-5.0723,-5.0312,-4.959,-4.8769,-4.8008,-4.7363,-4.6894,-4.6426,-4.6289,-4.6289,-4.6289,-4.6289,-4.6289,-4.6289,-4.6289,-4.6289,-4.6289,-4.6289,-4.6289,-4.6289,-4.6289,-4.6289,-4.6289,-4.6289,-4.6289,-4.6289,-4.6289,-4.6289,-4.6289,-4.6289,-4.6289,-4.6289,-4.6289,-4.6289,-4.6289,-4.6289,-4.6289,-4.6289,-4.6289,-4.6289,-4.6289,-4.6289,-4.6289,-4.6289,-4.6289,-4.6289,-4.6289,-4.6289,-4.6289,-4.6289,-4.6289,-4.6289,-4.6289,-4.6289,-4.6289,-4.6289,-4.6289,-4.6289,-4.6289,-4.6289,-4.6289,-4.6289,-4.6289,-4.6289,-4.6289,-4.6289,-4.6289,-4.6289,-4.6289,-4.6289,-4.6289,-4.6289,-4.6289,-4.6289,-4.6289,-4.6289,-4.6289,-4.6289,-4.6289,-4.6289,-4.6289,-4.6289,-4.6289,-4.6289,-4.6289,-4.6289,-4.6289,-4.6289,-4.6289,-4.6289,-4.6289,-4.6289,-4.6289,-4.6289,-4.6289,-4.6289,-5.1387,-5.1387,-5.1387,-5.1387,-5.1387,-5.1387,-5.1387,-5.1387,-5.1387,-5.1387,-5.1387,-5.1387,-5.1387,-5.1387,-5.1387,-5.1387,-5.1289,-5.1094,-5.0703,-5.0176,-4.9531,-4.875,-4.7891,-4.7246,-4.6836,-4.6367,-4.6289,-4.6289,-4.6289,-4.6289,-4.6289,-4.6289,-4.6289,-4.6289,-4.6289,-4.6289,-4.6289,-4.6289,-4.6289,-4.6289,-4.6289,-4.6289,-4.6289,-4.6289,-4.6289,-4.6289,-4.6289,-4.6289,-4.6289,-4.6289,-4.6289,-4.6289,-4.6289,-4.6289,-4.6289,-4.6289,-4.6289,-4.6289,-4.6289,-4.6289,-4.6289,-4.6289,-4.6289,-4.6289,-4.6289,-4.6289,-4.6289,-4.6289,-4.6289,-4.6289,-4.6289,-4.6289,-4.6289,-4.6289,-4.6289,-4.6289,-4.6289,-4.6289,-4.6289,-4.6289,-4.6289,-4.6289,-4.6289,-4.6289,-4.6289,-4.6289,-4.6289,-4.6289,-4.6289,-4.6289,-4.6289,-4.6289,-4.6289,-4.6289,-4.6289,-4.6289,-4.6289,-4.6289,-4.6289,-4.6289,-4.6289,-4.6289,-4.6289,-4.6289,-4.6289,-4.6289,-4.6289,-4.6289,-4.6289,-4.6289,-4.6289,-4.6289,-4.6289,-4.6289,-4.6289,-5.1387,-5.1387,-5.1387,-5.1387,-5.1387,-5.1387,-5.1387,-5.1387,-5.1387,-5.1387,-5.1387,-5.1387,-5.1387,-5.1387,-5.1387,-5.1328,-5.1074,-5.0625,-5.0137,-4.9648,-4.8672,-4.7832,-4.7324,-4.6836,-4.6504,-4.6348,-4.6289,-4.6289,-4.6289,-4.6289,-4.6289,-4.6289,-4.6289,-4.6289,-4.6289,-4.6289,-4.6289,-4.6289,-4.6289,-4.6289,-4.6289,-4.6289,-4.6289,-4.6289,-4.6289,-4.6289,-4.6289,-4.6289,-4.6289,-4.6289,-4.6289,-4.6289,-4.6289,-4.6289,-4.6289,-4.6289,-4.6289,-4.6289,-4.6289,-4.6289,-4.6289,-4.6289,-4.6289,-4.6289,-4.6289,-4.6289,-4.6289,-4.6289,-4.6289,-4.6289,-4.6289,-4.6289,-4.6289,-4.6289,-4.6289,-4.6289,-4.6289,-4.6289,-4.6289,-4.6289,-4.6289,-4.6289,-4.6289,-4.6289,-4.6289,-4.6289,-4.6289,-4.6289,-4.6289,-4.6289,-4.6289,-4.6289,-4.6289,-4.6289,-4.6289,-4.6289,-4.6289,-4.6289,-4.6289,-4.6289,-4.6289,-4.6289,-4.6289,-4.6289,-4.6289,-4.6289,-4.6289,-4.6289,-4.6289,-4.6289,-4.6289,-4.6289,-4.6289,-4.6289,-4.6289,-5.1387,-5.1387,-5.1387,-5.1387,-5.1387,-5.1387,-5.1387,-5.1387,-5.1387,-5.1387,-5.1387,-5.1387,-5.1387,-5.1387,-5.1289,-5.1094,-5.0605,-5.0449,-4.9941,-4.8476,-4.7773,-4.7266,-4.6816,-4.6543,-4.6289,-4.6289,-4.6289,-4.6289,-4.6289,-4.6289,-4.6289,-4.6289,-4.6289,-4.6289,-4.6289,-4.6289,-4.6289,-4.6289,-4.6289,-4.6289,-4.6289,-4.6289,-4.6289,-4.6289,-4.6289,-4.6289,-4.6289,-4.6289,-4.6289,-4.6289,-4.6289,-4.6289,-4.6289,-4.6289,-4.6289,-4.6289,-4.6289,-4.6289,-4.6289,-4.6289,-4.6289,-4.6289,-4.6289,-4.6289,-4.6289,-4.6289,-4.6289,-4.6289,-4.6289,-4.6289,-4.6289,-4.6289,-4.6289,-4.6289,-4.6289,-4.6289,-4.6289,-4.6289,-4.6289,-4.6289,-4.6289,-4.6289,-4.6289,-4.6289,-4.6289,-4.6289,-4.6289,-4.6289,-4.6289,-4.6289,-4.6289,-4.6289,-4.6289,-4.6289,-4.6289,-4.6289,-4.6289,-4.6289,-4.6289,-4.6289,-4.6289,-4.6289,-4.6289,-4.6289,-4.6289,-4.6289,-4.6289,-4.6289,-4.6289,-4.6289,-4.6289,-4.6289,-4.6289,-4.6289,-4.6289,-5.1387,-5.1387,-5.1387,-5.1387,-5.1387,-5.1387,-5.1387,-5.1387,-5.1387,-5.1387,-5.1387,-5.1387,-5.1387,-5.1328,-5.1055,-5.0801,-5.0137,-4.9433,-4.9062,-4.7578,-4.7246,-4.6836,-4.6465,-4.6289,-4.6289,-4.6289,-4.6289,-4.6289,-4.6289,-4.6289,-4.6289,-4.6289,-4.6289,-4.6289,-4.6289,-4.6289,-4.6289,-4.6289,-4.6289,-4.6289,-4.6289,-4.6289,-4.6289,-4.6289,-4.6289,-4.6289,-4.6289,-4.6289,-4.6289,-4.6289,-4.6289,-4.6289,-4.6289,-4.6289,-4.6289,-4.6289,-4.6289,-4.6289,-4.6289,-4.6289,-4.6289,-4.6289,-4.6289,-4.6289,-4.6289,-4.6289,-4.6289,-4.6289,-4.6289,-4.6289,-4.6289,-4.6289,-4.6289,-4.6289,-4.6289,-4.6289,-4.6289,-4.6289,-4.6289,-4.6289,-4.6289,-4.6289,-4.6289,-4.6289,-4.6289,-4.6289,-4.6289,-4.6289,-4.6289,-4.6289,-4.6289,-4.6289,-4.6289,-4.6289,-4.6289,-4.6289,-4.6289,-4.6289,-4.6289,-4.6289,-4.6289,-4.6289,-4.6289,-4.6289,-4.6289,-4.6289,-4.6289,-4.6289,-4.6289,-4.6289,-4.6289,-4.6289,-4.6289,-4.6289,-4.6289,-5.1387,-5.1387,-5.1387,-5.1387,-5.1387,-5.1387,-5.1387,-5.1387,-5.1387,-5.1387,-5.1387,-5.1387,-5.1308,-5.1152,-5.0566,-5.0117,-4.9707,-4.8398,-4.7812,-4.7344,-4.6816,-4.6445,-4.6348,-4.6289,-4.6289,-4.6289,-4.6289,-4.6289,-4.6289,-4.6289,-4.6289,-4.6289,-4.6289,-4.6289,-4.6289,-4.6289,-4.6289,-4.6289,-4.6289,-4.6289,-4.6289,-4.6289,-4.6289,-4.6289,-4.6289,-4.6289,-4.6289,-4.6289,-4.6289,-4.6289,-4.6289,-4.6289,-4.6289,-4.6289,-4.6289,-4.6289,-4.6289,-4.6289,-4.6289,-4.6289,-4.6289,-4.6289,-4.6289,-4.6289,-4.6289,-4.6289,-4.6289,-4.6289,-4.6289,-4.6289,-4.6289,-4.6289,-4.6289,-4.6289,-4.6289,-4.6289,-4.6289,-4.6289,-4.6289,-4.6289,-4.6289,-4.6289,-4.6289,-4.6289,-4.6289,-4.6289,-4.6289,-4.6289,-4.6289,-4.6289,-4.6289,-4.6289,-4.6289,-4.6289,-4.6289,-4.6289,-4.6289,-4.6289,-4.6289,-4.6289,-4.6289,-4.6289,-4.6289,-4.6289,-4.6289,-4.6289,-4.6289,-4.6289,-4.6289,-4.6289,-4.6289,-4.6289,-4.6289,-4.6289,-4.6289,-5.1387,-5.1387,-5.1387,-5.1387,-5.1387,-5.1387,-5.1387,-5.1387,-5.1387,-5.1387,-5.1387,-5.1387,-5.1074,-5.0527,-5.0273,-4.9433,-4.8574,-4.7812,-4.7226,-4.6777,-4.6465,-4.6348,-4.6289,-4.6289,-4.6289,-4.6289,-4.6289,-4.6289,-4.6289,-4.6289,-4.6289,-4.6289,-4.6289,-4.6289,-4.6289,-4.6289,-4.6289,-4.6289,-4.6289,-4.6289,-4.6289,-4.6289,-4.6289,-4.6289,-4.6289,-4.6289,-4.6289,-4.6289,-4.6289,-4.6289,-4.6289,-4.6289,-4.6289,-4.6289,-4.6289,-4.6289,-4.6289,-4.6289,-4.6289,-4.6289,-4.6289,-4.6289,-4.6289,-4.6289,-4.6289,-4.6289,-4.6289,-4.6289,-4.6289,-4.6289,-4.6289,-4.6289,-4.6289,-4.6289,-4.6289,-4.6289,-4.6289,-4.6289,-4.6289,-4.6289,-4.6289,-4.6289,-4.6289,-4.6289,-4.6289,-4.6289,-4.6289,-4.6289,-4.6289,-4.6289,-4.6289,-4.6289,-4.6289,-4.6289,-4.6289,-4.6289,-4.6289,-4.6289,-4.6289,-4.6289,-4.6289,-4.6289,-4.6289,-4.6289,-4.6289,-4.6289,-4.6289,-4.6289,-4.6289,-4.6289,-4.6289,-4.6289,-4.6289,-4.6289,-4.6289,-5.1387,-5.1387,-5.1387,-5.1387,-5.1387,-5.1387,-5.1387,-5.1387,-5.1387,-5.1387,-5.1367,-5.1035,-5.0664,-5.0156,-4.9453,-4.8574,-4.7734,-4.7207,-4.6758,-4.6523,-4.6289,-4.6289,-4.6289,-4.6289,-4.6289,-4.6289,-4.6289,-4.6289,-4.6289,-4.6289,-4.6289,-4.6289,-4.6289,-4.6289,-4.6289,-4.6289,-4.6289,-4.6289,-4.6289,-4.6289,-4.6289,-4.6289,-4.6289,-4.6289,-4.6289,-4.6289,-4.6289,-4.6289,-4.6289,-4.6289,-4.6289,-4.6289,-4.6289,-4.6289,-4.6289,-4.6289,-4.6289,-4.6289,-4.6289,-4.6289,-4.6289,-4.6289,-4.6289,-4.6289,-4.6289,-4.6289,-4.6289,-4.6289,-4.6289,-4.6289,-4.6289,-4.6289,-4.6289,-4.6289,-4.6289,-4.6289,-4.6289,-4.6289,-4.6289,-4.6289,-4.6289,-4.6289,-4.6289,-4.6289,-4.6289,-4.6289,-4.6289,-4.6289,-4.6289,-4.6289,-4.6289,-4.6289,-4.6289,-4.6289,-4.6289,-4.6289,-4.6289,-4.6289,-4.6289,-4.6289,-4.6289,-4.6289,-4.6289,-4.6289,-4.6289,-4.6289,-4.6289,-4.6289,-4.6289,-4.6289,-4.6289,-4.6289,-4.6289,-4.6289,-4.6289,-5.1191,-5.1133,-5.1211,-5.1055,-5.1191,-5.1094,-5.1094,-5.1211,-5.1055,-5.123,-5.1074,-5.0449,-5.0,-4.9433,-4.8516,-4.7812,-4.7207,-4.6738,-4.6504,-4.6289,-4.6289,-4.6289,-4.6289,-4.6289,-4.6289,-4.6289,-4.6289,-4.6289,-4.6289,-4.6289,-4.6289,-4.6289,-4.6289,-4.6289,-4.6289,-4.6289,-4.6289,-4.6289,-4.6289,-4.6289,-4.6289,-4.6289,-4.6289,-4.6289,-4.6289,-4.6289,-4.6289,-4.6289,-4.6289,-4.6289,-4.6289,-4.6289,-4.6289,-4.6289,-4.6289,-4.6289,-4.6289,-4.6289,-4.6289,-4.6289,-4.6289,-4.6289,-4.6289,-4.6289,-4.6289,-4.6289,-4.6289,-4.6289,-4.6289,-4.6289,-4.6289,-4.6289,-4.6289,-4.6289,-4.6289,-4.6289,-4.6289,-4.6289,-4.6289,-4.6289,-4.6289,-4.6289,-4.6289,-4.6289,-4.6289,-4.6289,-4.6289,-4.6289,-4.6289,-4.6289,-4.6289,-4.6289,-4.6289,-4.6289,-4.6289,-4.6289,-4.6289,-4.6289,-4.6289,-4.6289,-4.6289,-4.6289,-4.6289,-4.6289,-4.6289,-4.6289,-4.6289,-4.6289,-4.6289,-4.6289,-4.6289,-4.6289,-4.6289,-4.6289,-4.6289,-4.9492,-4.9492,-4.9512,-4.9492,-4.9492,-4.9492,-4.9531,-4.9492,-4.9492,-4.9863,-5.0234,-4.957,-4.8867,-4.8301,-4.7851,-4.7246,-4.6641,-4.6504,-4.6328,-4.6289,-4.6289,-4.6289,-4.6289,-4.6289,-4.6289,-4.6289,-4.6289,-4.6289,-4.6289,-4.6289,-4.6289,-4.6289,-4.6289,-4.6289,-4.6289,-4.6289,-4.6289,-4.6289,-4.6289,-4.6289,-4.6289,-4.6289,-4.6289,-4.6289,-4.6289,-4.6289,-4.6289,-4.6289,-4.6289,-4.6289,-4.6289,-4.6289,-4.6289,-4.6289,-4.6289,-4.6289,-4.6289,-4.6289,-4.6289,-4.6289,-4.6289,-4.6289,-4.6289,-4.6289,-4.6289,-4.6289,-4.6289,-4.6289,-4.6289,-4.6289,-4.6289,-4.6289,-4.6289,-4.6289,-4.6289,-4.6289,-4.6289,-4.6289,-4.6289,-4.6289,-4.6289,-4.6289,-4.6289,-4.6289,-4.6289,-4.6289,-4.6289,-4.6289,-4.6289,-4.6289,-4.6289,-4.6289,-4.6289,-4.6289,-4.6289,-4.6289,-4.6289,-4.6289,-4.6289,-4.6289,-4.6289,-4.6289,-4.6289,-4.6289,-4.6289,-4.6289,-4.6289,-4.6289,-4.6289,-4.6289,-4.6289,-4.6289,-4.6289,-4.6289,-4.6289,-4.8887,-4.8887,-4.8887,-4.8887,-4.8887,-4.8887,-4.8887,-4.8828,-4.8496,-4.8574,-4.8965,-4.8516,-4.8027,-4.7461,-4.7226,-4.6914,-4.6328,-4.6308,-4.6289,-4.6289,-4.6289,-4.6289,-4.6289,-4.6289,-4.6289,-4.6289,-4.6289,-4.6289,-4.6289,-4.6289,-4.6289,-4.6289,-4.6289,-4.6289,-4.6289,-4.6289,-4.6289,-4.6289,-4.6289,-4.6289,-4.6289,-4.6289,-4.6289,-4.6289,-4.6289,-4.6289,-4.6289,-4.6289,-4.6289,-4.6289,-4.6289,-4.6289,-4.6289,-4.6289,-4.6289,-4.6289,-4.6289,-4.6289,-4.6289,-4.6289,-4.6289,-4.6289,-4.6289,-4.6289,-4.6289,-4.6289,-4.6289,-4.6289,-4.6289,-4.6289,-4.6289,-4.6289,-4.6289,-4.6289,-4.6289,-4.6289,-4.6289,-4.6289,-4.6289,-4.6289,-4.6289,-4.6289,-4.6289,-4.6289,-4.6289,-4.6289,-4.6289,-4.6289,-4.6289,-4.6289,-4.6289,-4.6289,-4.6289,-4.6289,-4.6289,-4.6289,-4.6289,-4.6289,-4.6289,-4.6289,-4.6289,-4.6289,-4.6289,-4.6289,-4.6289,-4.6289,-4.6289,-4.6289,-4.6289,-4.6289,-4.6289,-4.6289,-4.6289,-4.6289,-4.6289,-4.8496,-4.8555,-4.8535,-4.8535,-4.8555,-4.8535,-4.8496,-4.8379,-4.7773,-4.7422,-4.75,-4.748,-4.7422,-4.7148,-4.6738,-4.6465,-4.6289,-4.6289,-4.6289,-4.6289,-4.6289,-4.6289,-4.6289,-4.6289,-4.6289,-4.6289,-4.6289,-4.6289,-4.6289,-4.6289,-4.6289,-4.6289,-4.6289,-4.6289,-4.6289,-4.6289,-4.6289,-4.6289,-4.6289,-4.6289,-4.6289,-4.6289,-4.6289,-4.6289,-4.6289,-4.6289,-4.6289,-4.6289,-4.6289,-4.6289,-4.6289,-4.6289,-4.6289,-4.6289,-4.6289,-4.6289,-4.6289,-4.6289,-4.6289,-4.6289,-4.6289,-4.6289,-4.6289,-4.6289,-4.6289,-4.6289,-4.6289,-4.6289,-4.6289,-4.6289,-4.6289,-4.6289,-4.6289,-4.6289,-4.6289,-4.6289,-4.6289,-4.6289,-4.6289,-4.6289,-4.6289,-4.6289,-4.6289,-4.6289,-4.6289,-4.6289,-4.6289,-4.6289,-4.6289,-4.6289,-4.6289,-4.6289,-4.6289,-4.6289,-4.6289,-4.6289,-4.6289,-4.6289,-4.6289,-4.6289,-4.6289,-4.6289,-4.6289,-4.6289,-4.6289,-4.6289,-4.6289,-4.6289,-4.6289,-4.6289,-4.6289,-4.6289,-4.6289,-4.6289,-4.6289,-4.6797,-4.6797,-4.6777,-4.6816,-4.6836,-4.6836,-4.6777,-4.6777,-4.668,-4.6543,-4.6621,-4.6562,-4.6543,-4.6562,-4.6426,-4.6289,-4.6289,-4.6289,-4.6289,-4.6289,-4.6289,-4.6289,-4.6289,-4.6289,-4.6289,-4.6289,-4.6289,-4.6289,-4.6289,-4.6289,-4.6289,-4.6289,-4.6289,-4.6289,-4.6289,-4.6289,-4.6289,-4.6289,-4.6289,-4.6289,-4.6289,-4.6289,-4.6289,-4.6289,-4.6289,-4.6289,-4.6289,-4.6289,-4.6289,-4.6289,-4.6289,-4.6289,-4.6289,-4.6289,-4.6289,-4.6289,-4.6289,-4.6289,-4.6289,-4.6289,-4.6289,-4.6289,-4.6289,-4.6289,-4.6289,-4.6289,-4.6289,-4.6289,-4.6289,-4.6289,-4.6289,-4.6289,-4.6289,-4.6289,-4.6289,-4.6289,-4.6289,-4.6289,-4.6289,-4.6289,-4.6289,-4.6289,-4.6289,-4.6289,-4.6289,-4.6289,-4.6289,-4.6289,-4.6289,-4.6289,-4.6289,-4.6289,-4.6289,-4.6289,-4.6289,-4.6289,-4.6289,-4.6289,-4.6289,-4.6289,-4.6289,-4.6289,-4.6289,-4.6289,-4.6289,-4.6289,-4.6289,-4.6289,-4.6289,-4.6289,-4.6289,-4.6289,-4.6289,-4.6289,-4.6289]},{"header":{"parameterUnit":"m.s-1","parameterCategory":1,"la1":31.0,"la2":29.5877,"lo1":-88.7671,"lo2":-86.6584,"dy":0.0162,"dx":0.0185,"nx":115,"ny":88,"refTime":"2025-05-21T12:00:00:Z","depth":0,"parameterNumber":3,"parameterNumberName":"V-component_of_WINDS"},"data":[0.0,0.0,0.0,0.0,0.0,0.0,0.0,0.0,0.0,0.0,0.0,0.0,0.0,0.0,0.0,0.0,0.0,0.0,0.0,0.0,0.0,0.0,0.0,0.0,0.0,0.0,0.0,0.0,0.0,0.0,0.0,0.0,0.0,0.0,0.0,0.0,0.0,0.0,0.0,0.0,0.0,0.0,0.0,0.0,0.0,0.0,0.0,0.0,0.0,0.0,0.0,0.0,0.0,0.0,0.0,0.0,0.0,0.0,0.0,0.0,0.0,0.0,0.0,0.0,0.0,0.0,0.0,0.0,0.0,0.0,0.0,0.0,0.0,0.0,0.0,0.0,0.0,0.0,0.0,0.0,0.0,0.0,0.0,0.0,0.0,0.0,0.0,0.0,0.0,0.0,0.0,0.0,0.0,0.0,0.0,0.0,0.0,0.0,0.0,0.0,0.0,0.0,0.0,0.0,0.0,0.0,0.0,0.0,0.0,0.0,0.0,0.0,0.0,0.0,0.0,0.0,0.0,0.0,0.0,0.0,0.0,0.0,0.0,0.0,0.0,0.0,0.0,0.0,0.0,0.0,0.0,0.0,0.0,0.0,0.0,0.0,0.0,0.0,0.0,0.0,0.0,0.0,0.0,0.0,0.0,0.0,0.0,0.0,0.0,0.0,0.0,0.0,0.0,0.0,0.0,0.0,0.0,0.0,0.0,0.0,0.0,0.0,0.0,0.0,0.0,0.0,0.0,0.0,0.0,0.0,0.0,0.0,0.0,0.0,0.0,0.0,0.0,0.0,0.0,0.0,0.0,0.0,0.0,0.0,0.0,0.0,0.0,0.0,0.0,0.0,0.0,0.0,0.0,0.0,0.0,0.0,0.0,0.0,0.0,0.0,0.0,0.0,0.0,0.0,0.0,0.0,0.0,0.0,0.0,0.0,0.0,0.0,0.0,0.0,0.0,0.0,0.0,0.0,0.0,0.0,0.0,0.0,0.0,0.0,0.0,0.0,0.0,0.0,0.0,0.0,0.0,0.0,0.0,0.0,0.0,0.0,0.0,0.0,0.0,0.0,0.0,0.0,0.0,0.0,0.0,0.0,0.0,0.0,0.0,0.0,0.0,0.0,0.0,0.0,0.0,0.0,0.0,0.0,0.0,0.0,0.0,0.0,0.0,0.0,0.0,0.0,0.0,0.0,0.0,0.0,0.0,0.0,0.0,0.0,0.0,0.0,0.0,0.0,0.0,0.0,0.0,0.0,0.0,0.0,0.0,0.0,0.0,0.0,0.0,0.0,0.0,0.0,0.0,0.0,0.0,0.0,0.0,0.0,0.0,0.0,0.0,0.0,0.0,0.0,0.0,0.0,0.0,0.0,0.0,0.0,0.0,0.0,0.0,0.0,0.0,0.0,0.0,0.0,0.0,0.0,0.0,0.0,0.0,0.0,0.0,0.0,0.0,0.0,0.0,0.0,0.0,0.0,0.0,0.0,0.0,0.0,0.0,0.0,0.0,0.0,0.0,0.0,0.0,0.0,0.0,0.0,0.0,0.0,0.0,0.0,0.0,0.0,0.0,0.0,0.0,0.0,0.0,0.0,0.0,0.0,0.0,0.0,0.0,0.0,0.0,0.0,0.0,0.0,0.0,0.0,0.0,0.0,0.0,0.0,0.0,0.0,0.0,0.0,0.0,0.0,0.0,0.0,0.0,0.0,0.0,0.0,0.0,0.0,0.0,0.0,0.0,0.0,0.0,0.0,0.0,0.0,0.0,0.0,0.0,0.0,0.0,0.0,0.0,0.0,0.0,0.0,0.0,0.0,0.0,0.0,0.0,0.0,0.0,0.0,0.0,0.0,0.0,0.0,0.0,0.0,0.0,0.0,0.0,0.0,0.0,0.0,0.0,0.0,0.0,0.0,0.0,0.0,0.0,0.0,0.0,0.0,0.0,0.0,0.0,0.0,0.0,0.0,0.0,0.0,0.0,0.0,0.0,0.0,0.0,0.0,0.0,0.0,0.0,0.0,0.0,0.0,0.0,0.0,0.0,0.0,0.0,0.0,0.0,0.0,0.0,0.0,0.0,0.0,0.0,0.0,0.0,0.0,0.0,0.0,0.0,0.0,0.0,0.0,0.0,0.0,0.0,0.0,0.0,0.0,0.0,0.0,0.0,0.0,0.0,0.0,0.0,0.0,0.0,0.0,0.0,0.0,0.0,0.0,0.0,0.0,0.0,0.0,0.0,0.0,0.0,0.0,0.0,0.0,0.0,0.0,0.0,0.0,0.0,0.0,0.0,0.0,0.0,0.0,0.0,0.0,0.0,0.0,0.0,0.0,0.0,0.0,0.0,0.0,0.0,0.0,0.0,0.0,0.0,0.0,0.0,0.0,0.0,0.0,0.0,0.0,0.0,0.0,0.0,0.0,0.0,0.0,0.0,0.0,0.0,0.0,0.0,0.0,0.0,0.0,0.0,0.0,0.0,0.0,0.0,0.0,0.0,0.0,0.0,0.0,0.0,0.0,0.0,0.0,0.0,0.0,0.0,0.0,0.0,0.0,0.0,0.0,0.0,0.0,0.0,0.0,0.0,0.0,0.0,0.0,0.0,0.0,0.0,0.0,0.0,0.0,0.0,0.0,0.0,0.0,0.0,0.0,0.0,0.0,0.0,0.0,0.0,0.0,0.0,0.0,0.0,0.0,0.0,0.0,0.0,0.0,0.0,0.0,0.0,0.0,0.0,0.0,0.0,0.0,0.0,0.0,0.0,0.0,0.0,0.0,0.0,0.0,0.0,0.0,0.0,0.0,0.0,0.0,0.0,0.0,0.0,0.0,0.0,0.0,0.0,0.0,0.0,0.0,0.0,0.0,0.0,0.0,0.0,0.0,0.0,0.0,0.0,0.0,0.0,0.0,0.0,0.0,0.0,0.0,0.0,0.0,0.0,0.0,0.0,0.0,0.0,0.0,0.0,0.0,0.0,0.0,0.0,0.0,0.0,0.0,0.0,0.0,0.0,0.0,0.0,0.0,0.0,0.0,0.0,0.0,0.0,0.0,0.0,0.0,0.0,0.0,0.0,0.0,0.0,0.0,0.0,0.0,0.0,0.0,0.0,0.0,0.0,0.0,0.0,0.0,0.0,0.0,0.0,0.0,0.0,0.0,0.0,0.0,0.0,0.0,0.0,0.0,0.0,0.0,0.0,0.0,0.0,0.0,0.0,0.0,0.0,0.0,0.0,0.0,0.0,0.0,0.0,0.0,0.0,0.0,0.0,0.0,0.0,0.0,0.0,0.0,0.0,0.0,0.0,0.0,0.0,0.0,0.0,0.0,0.0,0.0,0.0,0.0,0.0,0.0,0.0,0.0,0.0,0.0,0.0,0.0,0.0,0.0,0.0,0.0,0.0,0.0,0.0,0.0,0.0,0.0,0.0,0.0,0.0,0.0,0.0,0.0,0.0,0.0,0.0,0.0,0.0,0.0,0.0,0.0,0.0,0.0,0.0,0.0,0.0,0.0,0.0,0.0,0.0,0.0,0.0,0.0,0.0,0.0,0.0,0.0,0.0,0.0,0.0,0.0,0.0,0.0,0.0,0.0,0.0,0.0,0.0,0.0,0.0,0.0,0.0,0.0,0.0,0.0,0.0,0.0,0.0,0.0,0.0,0.0,0.0,0.0,0.0,0.0,0.0,0.0,0.0,0.0,0.0,0.0,0.0,0.0,0.0,0.0,0.0,0.0,0.0,0.0,0.0,0.0,0.0,0.0,0.0,0.0,0.0,0.0,0.0,0.0,0.0,0.0,0.0,0.0,0.0,0.0,0.0,0.0,0.0,0.0,0.0,0.0,0.0,0.0,0.0,0.0,0.0,0.0,0.0,0.0,0.0,0.0,0.0,0.0,0.0,0.0,0.0,0.0,0.0,0.0,0.0,0.0,0.0,0.0,0.0,0.0,0.0,0.0,0.0,0.0,0.0,0.0,0.0,0.0,0.0,0.0,0.0,0.0,0.0,0.0,0.0,0.0,0.0,0.0,0.0,0.0,0.0,0.0,0.0,0.0,0.0,0.0,0.0,0.0,0.0,0.0,0.0,0.0,0.0,0.0,0.0,0.0,0.0,0.0,0.0,0.0,0.0,0.0,0.0,0.0,0.0,0.0,0.0,0.0,0.0,0.0,0.0,0.0,0.0,0.0,0.0,0.0,0.0,0.0,0.0,0.0,0.0,0.0,0.0,0.0,0.0,0.0,0.0,0.0,0.0,0.0,0.0,0.0,0.0,0.0,0.0,0.0,0.0,0.0,-1.2111,0.0,0.0,0.0,0.0,0.0,0.0,0.0,0.0,0.0,0.0,0.0,0.0,0.0,0.0,0.0,0.0,0.0,0.0,0.0,0.0,0.0,0.0,0.0,0.0,0.0,0.0,0.0,0.0,0.0,0.0,0.0,0.0,0.0,0.0,0.0,0.0,0.0,0.0,0.0,0.0,0.0,0.0,0.0,0.0,0.0,0.0,0.0,0.0,0.0,0.0,0.0,0.0,0.0,0.0,0.0,0.0,0.0,0.0,0.0,0.0,0.0,0.0,0.0,0.0,0.0,0.0,0.0,0.0,0.0,0.0,0.0,0.0,0.0,0.0,0.0,0.0,0.0,0.0,0.0,0.0,0.0,0.0,0.0,0.0,0.0,0.0,0.0,0.0,0.0,0.0,0.0,0.0,0.0,0.0,0.0,0.0,0.0,0.0,0.0,0.0,0.0,0.0,0.0,0.0,0.0,0.0,0.0,0.0,0.0,0.0,-1.3407,-1.3393,-1.2859,-1.2502,-1.2285,0.0,0.0,0.0,0.0,0.0,0.0,0.0,0.0,0.0,0.0,0.0,0.0,0.0,0.0,0.0,0.0,0.0,0.0,0.0,0.0,0.0,0.0,0.0,0.0,0.0,0.0,0.0,0.0,0.0,0.0,0.0,0.0,0.0,0.0,0.0,0.0,0.0,0.0,0.0,0.0,0.0,0.0,0.0,0.0,0.0,0.0,0.0,0.0,0.0,0.0,0.0,0.0,0.0,0.0,0.0,0.0,0.0,0.0,0.0,0.0,0.0,0.0,0.0,0.0,0.0,0.0,0.0,0.0,0.0,0.0,0.0,0.0,0.0,0.0,0.0,0.0,0.0,0.0,0.0,0.0,0.0,0.0,0.0,0.0,0.0,0.0,0.0,0.0,0.0,0.0,0.0,0.0,0.0,0.0,0.0,0.0,0.0,0.0,0.0,0.0,0.0,0.0,0.0,0.0,0.0,0.0,0.0,0.0,0.0,0.0,0.0,0.0,-1.3227,-1.275,-1.2211,0.0,0.0,0.0,0.0,0.0,0.0,0.0,0.0,0.0,0.0,0.0,0.0,0.0,0.0,0.0,0.0,0.0,0.0,0.0,0.0,0.0,0.0,0.0,0.0,0.0,0.0,0.0,0.0,0.0,0.0,0.0,0.0,0.0,0.0,0.0,0.0,0.0,0.0,0.0,0.0,0.0,0.0,0.0,0.0,0.0,0.0,0.0,0.0,0.0,0.0,0.0,0.0,0.0,0.0,0.0,0.0,0.0,0.0,0.0,0.0,0.0,0.0,0.0,0.0,0.0,0.0,0.0,0.0,0.0,0.0,0.0,0.0,0.0,0.0,0.0,0.0,0.0,0.0,0.0,0.0,0.0,0.0,0.0,0.0,0.0,0.0,0.0,0.0,0.0,0.0,0.0,0.0,0.0,0.0,0.0,0.0,0.0,0.0,0.0,0.0,0.0,0.0,0.0,0.0,0.0,0.0,0.0,0.0,0.0,0.0,-1.4048,-1.4041,-1.3686,0.0,-1.1984,0.0,0.0,0.0,0.0,0.0,0.0,0.0,0.0,0.0,0.0,0.0,0.0,0.0,0.0,0.0,0.0,0.0,0.0,0.0,0.0,0.0,0.0,0.0,0.0,0.0,0.0,0.0,0.0,0.0,0.0,0.0,0.0,0.0,0.0,0.0,0.0,0.0,0.0,0.0,0.0,0.0,0.0,0.0,0.0,0.0,0.0,0.0,0.0,0.0,0.0,0.0,0.0,0.0,0.0,0.0,0.0,0.0,0.0,0.0,0.0,0.0,0.0,0.0,0.0,0.0,0.0,0.0,0.0,0.0,0.0,0.0,0.0,0.0,0.0,0.0,0.0,0.0,0.0,0.0,0.0,0.0,0.0,0.0,0.0,0.0,0.0,0.0,0.0,0.0,0.0,0.0,0.0,0.0,0.0,0.0,0.0,0.0,0.0,0.0,0.0,0.0,0.0,0.0,0.0,0.0,0.0,0.0,0.0,0.0,0.0,-1.4088,-1.4088,-1.3634,-1.2906,0.0,0.0,0.0,0.0,0.0,0.0,0.0,0.0,0.0,0.0,0.0,0.0,0.0,0.0,0.0,0.0,0.0,0.0,0.0,0.0,0.0,0.0,0.0,0.0,0.0,0.0,0.0,0.0,0.0,0.0,0.0,0.0,0.0,0.0,0.0,0.0,0.0,0.0,0.0,0.0,0.0,0.0,0.0,0.0,0.0,0.0,0.0,0.0,0.0,0.0,0.0,0.0,0.0,0.0,0.0,0.0,0.0,0.0,0.0,0.0,0.0,0.0,0.0,0.0,0.0,0.0,0.0,0.0,0.0,0.0,0.0,0.0,0.0,0.0,0.0,0.0,0.0,0.0,0.0,0.0,0.0,0.0,0.0,0.0,0.0,0.0,0.0,0.0,0.0,0.0,0.0,0.0,0.0,0.0,0.0,0.0,0.0,0.0,0.0,0.0,0.0,0.0,0.0,0.0,0.0,0.0,0.0,0.0,0.0,0.0,-1.4088,-1.4088,-1.4062,-1.3473,-1.2787,-1.2011,0.0,0.0,0.0,0.0,0.0,0.0,0.0,0.0,0.0,0.0,0.0,0.0,0.0,0.0,0.0,0.0,0.0,0.0,0.0,0.0,0.0,0.0,0.0,0.0,0.0,0.0,0.0,0.0,0.0,0.0,0.0,0.0,0.0,0.0,0.0,0.0,0.0,0.0,0.0,0.0,0.0,0.0,0.0,0.0,0.0,0.0,0.0,0.0,0.0,0.0,0.0,0.0,0.0,0.0,0.0,0.0,0.0,0.0,0.0,0.0,0.0,0.0,0.0,0.0,0.0,0.0,0.0,0.0,0.0,0.0,0.0,0.0,0.0,0.0,0.0,0.0,0.0,0.0,0.0,0.0,0.0,0.0,0.0,0.0,0.0,0.0,0.0,0.0,0.0,0.0,0.0,0.0,0.0,0.0,0.0,0.0,0.0,0.0,0.0,0.0,0.0,0.0,0.0,0.0,0.0,0.0,0.0,0.0,-1.4082,-1.4082,-1.4088,-1.4075,-1.3311,-1.2725,0.0,0.0,0.0,0.0,0.0,0.0,0.0,0.0,0.0,0.0,0.0,0.0,0.0,0.0,0.0,0.0,0.0,0.0,0.0,0.0,0.0,0.0,0.0,0.0,0.0,0.0,0.0,0.0,0.0,0.0,0.0,0.0,0.0,0.0,0.0,0.0,0.0,0.0,0.0,0.0,0.0,0.0,0.0,0.0,0.0,0.0,0.0,0.0,0.0,0.0,0.0,0.0,0.0,0.0,0.0,0.0,0.0,0.0,0.0,0.0,0.0,0.0,0.0,0.0,0.0,0.0,0.0,0.0,0.0,0.0,0.0,0.0,0.0,0.0,0.0,0.0,0.0,0.0,0.0,0.0,0.0,0.0,0.0,0.0,0.0,0.0,0.0,0.0,0.0,0.0,0.0,0.0,0.0,0.0,0.0,0.0,0.0,0.0,0.0,0.0,0.0,0.0,0.0,0.0,0.0,0.0,0.0,0.0,0.0,-1.3652,-1.3652,-1.3659,-1.3639,-1.3149,-1.2661,0.0,0.0,0.0,0.0,0.0,0.0,0.0,0.0,0.0,0.0,0.0,0.0,0.0,0.0,0.0,0.0,0.0,0.0,0.0,0.0,0.0,0.0,0.0,0.0,0.0,0.0,0.0,0.0,0.0,0.0,0.0,0.0,0.0,0.0,0.0,0.0,0.0,0.0,0.0,0.0,0.0,0.0,0.0,0.0,0.0,0.0,0.0,0.0,0.0,0.0,0.0,0.0,0.0,0.0,0.0,0.0,0.0,0.0,0.0,0.0,0.0,0.0,0.0,0.0,0.0,0.0,0.0,0.0,0.0,0.0,0.0,0.0,0.0,0.0,0.0,0.0,0.0,0.0,0.0,0.0,0.0,0.0,0.0,0.0,0.0,0.0,0.0,0.0,0.0,0.0,0.0,0.0,0.0,0.0,0.0,0.0,0.0,0.0,0.0,0.0,0.0,0.0,0.0,0.0,0.0,0.0,0.0,0.0,0.0,-1.3094,0.0,-1.3094,-1.316,-1.2776,-1.2427,0.0,0.0,0.0,0.0,0.0,0.0,0.0,0.0,0.0,0.0,0.0,0.0,0.0,0.0,0.0,0.0,0.0,0.0,0.0,0.0,0.0,0.0,0.0,0.0,0.0,0.0,0.0,0.0,0.0,0.0,0.0,0.0,0.0,0.0,0.0,0.0,0.0,0.0,0.0,0.0,0.0,0.0,0.0,0.0,0.0,0.0,0.0,0.0,0.0,0.0,0.0,0.0,0.0,0.0,0.0,0.0,0.0,0.0,0.0,0.0,0.0,0.0,0.0,0.0,0.0,0.0,0.0,0.0,0.0,0.0,0.0,0.0,0.0,0.0,0.0,0.0,0.0,0.0,0.0,0.0,0.0,0.0,0.0,0.0,0.0,0.0,0.0,0.0,0.0,0.0,0.0,0.0,0.0,0.0,0.0,0.0,0.0,0.0,0.0,0.0,0.0,0.0,0.0,0.0,0.0,0.0,0.0,0.0,-1.2833,-1.2406,-1.2363,-1.2448,-1.265,-1.2198,-1.2037,0.0,0.0,0.0,0.0,0.0,0.0,0.0,0.0,0.0,0.0,0.0,0.0,0.0,0.0,0.0,0.0,0.0,0.0,0.0,0.0,0.0,0.0,0.0,0.0,0.0,0.0,0.0,0.0,0.0,0.0,0.0,0.0,0.0,0.0,0.0,0.0,0.0,0.0,0.0,0.0,0.0,0.0,0.0,0.0,0.0,0.0,0.0,0.0,0.0,0.0,0.0,0.0,0.0,0.0,0.0,0.0,0.0,0.0,0.0,0.0,0.0,0.0,0.0,0.0,0.0,0.0,0.0,0.0,0.0,0.0,0.0,0.0,0.0,0.0,0.0,0.0,0.0,0.0,0.0,0.0,0.0,0.0,0.0,0.0,0.0,0.0,0.0,0.0,0.0,0.0,0.0,0.0,0.0,0.0,0.0,0.0,0.0,0.0,0.0,0.0,0.0,0.0,0.0,0.0,0.0,0.0,0.0,0.0,0.0,-1.1419,-1.1241,-1.137,-1.1697,-1.1535,-1.1476,0.0,0.0,0.0,0.0,0.0,0.0,0.0,0.0,0.0,0.0,0.0,0.0,0.0,0.0,0.0,0.0,0.0,0.0,0.0,0.0,0.0,0.0,0.0,0.0,0.0,0.0,0.0,0.0,0.0,0.0,0.0,0.0,0.0,0.0,0.0,0.0,0.0,0.0,0.0,0.0,0.0,0.0,0.0,0.0,0.0,0.0,0.0,0.0,0.0,0.0,0.0,0.0,0.0,0.0,0.0,0.0,0.0,0.0,0.0,0.0,0.0,0.0,0.0,0.0,0.0,0.0,0.0,0.0,0.0,0.0,0.0,0.0,0.0,0.0,0.0,0.0,0.0,0.0,0.0,0.0,0.0,0.0,0.0,0.0,0.0,0.0,0.0,0.0,0.0,0.0,0.0,0.0,0.0,0.0,0.0,0.0,0.0,0.0,0.0,0.0,0.0,0.0,0.0,0.0,0.0,0.0,0.0,0.0,0.0,-1.0055,-1.0159,-1.0463,-1.0939,-1.1039,-1.1255,-1.1594,0.0,0.0,0.0,0.0,0.0,0.0,0.0,0.0,0.0,0.0,0.0,0.0,0.0,0.0,0.0,0.0,0.0,0.0,0.0,0.0,0.0,0.0,0.0,0.0,0.0,0.0,0.0,0.0,0.0,0.0,0.0,0.0,0.0,0.0,0.0,0.0,0.0,0.0,0.0,0.0,0.0,0.0,0.0,0.0,0.0,0.0,0.0,0.0,0.0,0.0,0.0,0.0,0.0,0.0,0.0,0.0,0.0,0.0,0.0,0.0,0.0,0.0,0.0,0.0,0.0,0.0,0.0,0.0,0.0,0.0,0.0,0.0,0.0,0.0,0.0,0.0,0.0,0.0,0.0,0.0,0.0,0.0,0.0,0.0,0.0,0.0,0.0,0.0,0.0,0.0,0.0,0.0,0.0,0.0,0.0,0.0,0.0,0.0,0.0,0.0,0.0,0.0,0.0,0.0,0.0,0.0,0.0,0.0,-0.8382,-0.9114,-0.9726,-1.0246,-1.0661,-1.1181,0.0,0.0,0.0,0.0,0.0,0.0,0.0,0.0,0.0,0.0,0.0,0.0,0.0,0.0,0.0,0.0,0.0,0.0,0.0,0.0,0.0,0.0,0.0,0.0,0.0,0.0,0.0,0.0,0.0,0.0,0.0,0.0,0.0,0.0,0.0,0.0,0.0,0.0,0.0,0.0,0.0,0.0,0.0,0.0,0.0,0.0,0.0,0.0,0.0,0.0,0.0,0.0,0.0,0.0,0.0,0.0,0.0,0.0,0.0,0.0,0.0,0.0,0.0,0.0,0.0,0.0,0.0,0.0,0.0,0.0,0.0,0.0,0.0,0.0,0.0,0.0,0.0,0.0,0.0,0.0,0.0,0.0,0.0,0.0,0.0,0.0,0.0,0.0,0.0,0.0,0.0,0.0,0.0,0.0,0.0,0.0,0.0,0.0,0.0,0.0,0.0,0.0,0.0,0.0,0.0,0.0,0.0,0.0,0.0,-0.8037,-0.8232,-0.8854,-0.9903,-1.0226,-1.0781,0.0,0.0,0.0,0.0,0.0,0.0,0.0,0.0,0.0,0.0,0.0,0.0,0.0,0.0,0.0,0.0,0.0,0.0,0.0,0.0,0.0,0.0,0.0,0.0,0.0,0.0,0.0,0.0,0.0,0.0,0.0,0.0,0.0,0.0,0.0,0.0,0.0,0.0,0.0,0.0,0.0,0.0,0.0,0.0,0.0,0.0,0.0,0.0,0.0,0.0,0.0,0.0,0.0,0.0,0.0,0.0,0.0,0.0,0.0,0.0,0.0,0.0,0.0,0.0,0.0,0.0,0.0,0.0,0.0,0.0,0.0,0.0,0.0,0.0,0.0,0.0,0.0,0.0,0.0,0.0,0.0,0.0,0.0,0.0,0.0,0.0,0.0,0.0,0.0,0.0,0.0,0.0,0.0,0.0,0.0,0.0,0.0,0.0,0.0,0.0,0.0,0.0,0.0,0.0,0.0,0.0,0.0,0.0,-0.8067,-0.7872,-0.8034,-0.8549,-0.9507,-0.9972,-1.0601,0.0,0.0,0.0,0.0,0.0,0.0,0.0,0.0,0.0,0.0,0.0,0.0,0.0,0.0,0.0,0.0,0.0,0.0,0.0,0.0,0.0,0.0,0.0,0.0,0.0,0.0,0.0,0.0,0.0,0.0,0.0,0.0,0.0,0.0,0.0,0.0,0.0,0.0,0.0,0.0,0.0,0.0,0.0,0.0,0.0,0.0,0.0,0.0,0.0,0.0,0.0,0.0,0.0,0.0,0.0,0.0,0.0,0.0,0.0,0.0,0.0,0.0,0.0,0.0,0.0,0.0,0.0,0.0,0.0,0.0,0.0,0.0,0.0,0.0,0.0,0.0,0.0,0.0,0.0,0.0,0.0,0.0,0.0,0.0,0.0,0.0,0.0,0.0,0.0,0.0,0.0,0.0,0.0,0.0,0.0,0.0,0.0,0.0,0.0,0.0,0.0,0.0,0.0,0.0,0.0,0.0,0.0,0.0,-0.8066,-0.7834,-0.8164,-0.8634,-0.9171,-0.9877,-1.0533,0.0,0.0,0.0,0.0,0.0,0.0,0.0,0.0,0.0,0.0,0.0,0.0,0.0,0.0,0.0,0.0,0.0,0.0,0.0,0.0,0.0,0.0,0.0,0.0,0.0,0.0,0.0,0.0,0.0,0.0,0.0,0.0,0.0,0.0,0.0,0.0,0.0,0.0,0.0,0.0,0.0,0.0,0.0,0.0,0.0,0.0,0.0,0.0,0.0,0.0,0.0,0.0,0.0,0.0,0.0,0.0,0.0,0.0,0.0,0.0,0.0,0.0,0.0,0.0,0.0,0.0,0.0,0.0,0.0,0.0,0.0,0.0,0.0,0.0,0.0,0.0,0.0,0.0,0.0,0.0,0.0,0.0,0.0,0.0,0.0,0.0,0.0,0.0,0.0,0.0,0.0,0.0,0.0,0.0,0.0,0.0,0.0,0.0,0.0,0.0,0.0,0.0,0.0,0.0,0.0,0.0,0.0,0.0,-0.7921,-0.7938,-0.8024,-0.8336,-0.8874,-0.984,-1.0729,0.0,0.0,0.0,0.0,0.0,0.0,0.0,0.0,0.0,0.0,0.0,0.0,0.0,0.0,0.0,0.0,0.0,0.0,0.0,0.0,0.0,0.0,0.0,0.0,0.0,0.0,0.0,0.0,0.0,0.0,0.0,0.0,0.0,0.0,0.0,0.0,0.0,0.0,0.0,0.0,0.0,0.0,0.0,0.0,0.0,0.0,0.0,0.0,-0.7402,0.0,0.0,0.0,0.0,0.0,0.0,0.0,0.0,0.0,0.0,0.0,0.0,0.0,0.0,0.0,0.0,0.0,0.0,0.0,0.0,0.0,0.0,0.0,0.0,0.0,0.0,0.0,0.0,0.0,0.0,0.0,0.0,0.0,0.0,0.0,0.0,0.0,0.0,0.0,0.0,0.0,0.0,0.0,0.0,0.0,0.0,0.0,0.0,0.0,0.0,0.0,0.0,0.0,0.0,0.0,0.0,0.0,0.0,0.0,-0.7957,-0.7985,-0.7988,-0.8233,-0.8821,-0.9864,-1.0734,0.0,0.0,0.0,0.0,0.0,0.0,0.0,0.0,0.0,0.0,0.0,0.0,0.0,0.0,0.0,0.0,0.0,0.0,0.0,0.0,0.0,0.0,0.0,0.0,0.0,0.0,0.0,0.0,0.0,0.0,0.0,0.0,0.0,0.0,0.0,0.0,0.0,0.0,0.0,0.0,0.0,0.0,0.0,0.0,0.0,0.0,0.0,0.0,0.0,0.0,0.0,0.0,0.0,0.0,0.0,0.0,0.0,0.0,0.0,0.0,0.0,0.0,0.0,0.0,0.0,0.0,0.0,0.0,0.0,0.0,0.0,0.0,0.0,0.0,0.0,0.0,0.0,0.0,0.0,0.0,0.0,0.0,0.0,0.0,0.0,0.0,0.0,0.0,0.0,0.0,0.0,0.0,0.0,0.0,0.0,0.0,0.0,0.0,0.0,0.0,0.0,0.0,0.0,0.0,0.0,0.0,0.0,-0.7843,-0.7988,-0.7988,-0.7988,-0.8237,-0.8825,-0.9867,-1.0658,-1.1175,0.0,0.0,0.0,0.0,0.0,0.0,0.0,0.0,0.0,0.0,0.0,0.0,0.0,0.0,0.0,0.0,0.0,0.0,0.0,0.0,0.0,0.0,0.0,0.0,0.0,0.0,0.0,0.0,0.0,0.0,0.0,0.0,0.0,0.0,0.0,0.0,0.0,0.0,-0.6067,-0.6481,0.0,0.0,0.0,0.0,0.0,0.0,0.0,0.0,-0.7095,0.0,0.0,0.0,0.0,0.0,0.0,0.0,0.0,0.0,0.0,0.0,0.0,0.0,0.0,0.0,0.0,0.0,0.0,0.0,0.0,0.0,0.0,0.0,0.0,0.0,0.0,0.0,0.0,0.0,0.0,0.0,0.0,0.0,0.0,0.0,0.0,0.0,0.0,0.0,0.0,0.0,0.0,0.0,0.0,0.0,0.0,0.0,0.0,0.0,0.0,0.0,0.0,0.0,0.0,0.0,0.0,-0.76,-0.7892,-0.7988,-0.7988,-0.7988,-0.8237,-0.8821,-0.9867,-1.0658,-1.1185,0.0,0.0,0.0,0.0,0.0,0.0,0.0,0.0,0.0,0.0,0.0,0.0,0.0,0.0,0.0,0.0,0.0,0.0,0.0,0.0,0.0,0.0,0.0,0.0,0.0,0.0,0.0,0.0,0.0,0.0,0.0,0.0,0.0,0.0,0.0,0.0,0.0,0.0,0.0,-0.6766,-0.6903,0.0,0.0,0.0,0.0,0.0,0.0,0.0,0.0,-0.7122,0.0,0.0,0.0,0.0,0.0,0.0,0.0,0.0,0.0,0.0,0.0,0.0,0.0,0.0,0.0,0.0,0.0,0.0,0.0,0.0,0.0,0.0,0.0,0.0,0.0,0.0,0.0,0.0,0.0,0.0,0.0,0.0,0.0,0.0,0.0,0.0,0.0,0.0,0.0,0.0,0.0,0.0,0.0,0.0,0.0,0.0,0.0,0.0,0.0,0.0,0.0,0.0,0.0,0.0,0.0,-0.7614,-0.784,-0.7988,-0.7988,-0.7988,-0.8237,-0.8775,-0.9817,-1.0658,0.0,0.0,0.0,0.0,0.0,0.0,0.0,0.0,0.0,0.0,0.0,0.0,0.0,0.0,0.0,0.0,0.0,0.0,0.0,0.0,0.0,0.0,0.0,0.0,0.0,0.0,0.0,0.0,0.0,0.0,0.0,0.0,0.0,0.0,0.0,0.0,0.0,0.0,0.0,0.0,-0.6834,-0.6937,-0.7075,0.0,0.0,0.0,0.0,0.0,0.0,-0.7095,-0.7095,0.0,0.0,0.0,0.0,0.0,0.0,0.0,0.0,0.0,0.0,0.0,0.0,0.0,0.0,0.0,0.0,0.0,0.0,0.0,0.0,0.0,0.0,0.0,0.0,0.0,0.0,0.0,0.0,0.0,0.0,0.0,0.0,0.0,0.0,0.0,0.0,0.0,0.0,0.0,0.0,0.0,0.0,0.0,0.0,0.0,0.0,0.0,0.0,0.0,0.0,0.0,0.0,0.0,0.0,0.0,-0.7607,-0.7889,-0.7988,-0.7988,-0.7988,-0.8237,-0.8775,-0.9776,-1.0569,0.0,0.0,0.0,0.0,0.0,0.0,0.0,0.0,0.0,0.0,0.0,0.0,0.0,0.0,0.0,0.0,0.0,0.0,0.0,0.0,0.0,0.0,0.0,0.0,0.0,0.0,0.0,0.0,0.0,0.0,0.0,0.0,0.0,0.0,0.0,0.0,0.0,0.0,0.0,0.0,0.0,-0.697,-0.7082,-0.7095,0.0,0.0,0.0,0.0,-0.7095,-0.7095,0.0,0.0,0.0,0.0,0.0,0.0,0.0,0.0,0.0,0.0,0.0,0.0,0.0,0.0,0.0,0.0,0.0,0.0,0.0,0.0,0.0,0.0,0.0,0.0,0.0,0.0,0.0,0.0,0.0,0.0,0.0,0.0,0.0,0.0,0.0,0.0,0.0,0.0,0.0,0.0,0.0,0.0,0.0,0.0,0.0,0.0,0.0,0.0,0.0,0.0,0.0,0.0,0.0,0.0,0.0,0.0,-0.7611,-0.7889,-0.7988,-0.7988,-0.7988,-0.8233,-0.8772,-0.9599,-1.0276,0.0,0.0,0.0,0.0,0.0,0.0,0.0,0.0,0.0,0.0,0.0,0.0,0.0,0.0,0.0,0.0,0.0,0.0,0.0,0.0,0.0,0.0,0.0,0.0,0.0,0.0,0.0,0.0,0.0,0.0,0.0,0.0,0.0,0.0,0.0,0.0,0.0,0.0,0.0,0.0,0.0,-0.7078,-0.7095,-0.7095,-0.7095,0.0,0.0,-0.7095,-0.7095,-0.7095,0.0,0.0,0.0,0.0,0.0,0.0,0.0,0.0,0.0,0.0,0.0,0.0,0.0,0.0,0.0,0.0,0.0,0.0,0.0,0.0,0.0,0.0,0.0,0.0,0.0,0.0,0.0,0.0,0.0,0.0,0.0,0.0,0.0,0.0,0.0,0.0,0.0,0.0,0.0,0.0,0.0,0.0,0.0,0.0,0.0,0.0,0.0,0.0,0.0,0.0,0.0,0.0,0.0,0.0,0.0,-0.7597,-0.7611,-0.784,-0.7988,-0.7988,-0.7988,-0.8237,-0.8775,-0.9437,-1.0159,0.0,0.0,0.0,0.0,0.0,0.0,0.0,0.0,0.0,0.0,0.0,0.0,0.0,0.0,0.0,0.0,0.0,0.0,0.0,0.0,0.0,0.0,0.0,0.0,0.0,0.0,0.0,0.0,0.0,0.0,0.0,0.0,0.0,0.0,0.0,0.0,0.0,0.0,0.0,0.0,0.0,0.0,-0.7268,-0.7346,0.0,0.0,0.0,-0.7268,-0.7272,0.0,0.0,0.0,0.0,0.0,0.0,0.0,0.0,0.0,0.0,0.0,0.0,0.0,0.0,0.0,0.0,0.0,0.0,0.0,0.0,0.0,0.0,0.0,0.0,0.0,0.0,0.0,0.0,0.0,0.0,0.0,0.0,0.0,0.0,0.0,0.0,0.0,0.0,0.0,0.0,0.0,0.0,0.0,0.0,0.0,0.0,0.0,0.0,0.0,0.0,0.0,0.0,0.0,0.0,0.0,0.0,0.0,-0.7604,-0.7889,-0.7988,-0.7988,-0.7988,-0.8233,-0.8673,-0.9344,0.0,0.0,0.0,0.0,0.0,0.0,0.0,0.0,0.0,0.0,0.0,0.0,0.0,0.0,0.0,0.0,0.0,0.0,0.0,0.0,0.0,0.0,0.0,0.0,0.0,0.0,0.0,-0.5343,0.0,0.0,0.0,0.0,0.0,0.0,0.0,0.0,0.0,0.0,0.0,0.0,0.0,0.0,-0.7373,-0.7373,-0.7502,-0.7597,0.0,0.0,-0.7373,-0.7373,-0.7241,-0.7095,0.0,0.0,0.0,0.0,0.0,0.0,0.0,0.0,0.0,0.0,0.0,0.0,0.0,0.0,0.0,0.0,0.0,0.0,0.0,0.0,0.0,0.0,0.0,0.0,0.0,0.0,0.0,0.0,0.0,0.0,0.0,0.0,0.0,0.0,0.0,0.0,0.0,0.0,0.0,0.0,0.0,0.0,0.0,0.0,0.0,0.0,0.0,0.0,0.0,0.0,0.0,0.0,0.0,0.0,-0.7597,-0.7607,-0.7889,-0.7988,-0.7988,-0.7988,-0.8137,-0.8428,-0.9247,-0.9742,0.0,0.0,0.0,0.0,0.0,0.0,0.0,0.0,0.0,0.0,0.0,0.0,0.0,0.0,0.0,0.0,0.0,0.0,0.0,0.0,0.0,0.0,0.0,0.0,0.0,0.0,0.0,0.0,0.0,0.0,0.0,0.0,0.0,0.0,0.0,0.0,0.0,0.0,0.0,0.0,0.0,-0.7373,-0.7373,-0.7502,-0.76,0.0,-0.7472,-0.7373,-0.7373,-0.7241,-0.7095,-0.7095,0.0,0.0,0.0,0.0,0.0,0.0,0.0,0.0,0.0,0.0,0.0,0.0,0.0,0.0,0.0,0.0,0.0,0.0,0.0,0.0,0.0,0.0,0.0,0.0,0.0,0.0,0.0,0.0,0.0,0.0,0.0,0.0,0.0,0.0,0.0,0.0,0.0,0.0,0.0,0.0,0.0,0.0,0.0,0.0,0.0,0.0,0.0,0.0,0.0,0.0,0.0,0.0,0.0,-0.7597,-0.7604,-0.784,-0.7988,-0.7988,-0.7988,-0.8137,-0.8382,-0.8911,-0.9314,0.0,0.0,0.0,0.0,0.0,0.0,0.0,0.0,0.0,0.0,0.0,0.0,0.0,0.0,0.0,0.0,0.0,0.0,0.0,0.0,0.0,0.0,0.0,0.0,0.0,0.0,0.0,0.0,-0.5684,-0.5779,-0.5925,0.0,0.0,0.0,0.0,0.0,0.0,0.0,0.0,0.0,0.0,-0.7543,-0.7631,-0.7773,0.0,0.0,-0.774,-0.7611,-0.7526,-0.7383,-0.7251,-0.7112,-0.7095,0.0,0.0,0.0,0.0,0.0,0.0,0.0,0.0,0.0,0.0,0.0,0.0,0.0,0.0,0.0,0.0,0.0,0.0,0.0,0.0,0.0,0.0,0.0,0.0,0.0,0.0,0.0,0.0,0.0,0.0,0.0,0.0,0.0,0.0,0.0,0.0,0.0,0.0,0.0,0.0,0.0,0.0,0.0,0.0,0.0,0.0,0.0,0.0,0.0,0.0,0.0,0.0,-0.7597,-0.76,-0.784,-0.7988,-0.7988,-0.7988,-0.8088,-0.828,-0.8668,-0.894,0.0,0.0,0.0,0.0,0.0,0.0,0.0,0.0,0.0,0.0,0.0,0.0,0.0,0.0,0.0,0.0,0.0,0.0,0.0,0.0,0.0,0.0,0.0,0.0,0.0,0.0,0.0,0.0,-0.5844,-0.5928,-0.6084,0.0,0.0,0.0,0.0,0.0,0.0,0.0,0.0,0.0,0.0,-0.7651,-0.779,-0.7894,-0.7988,-0.7988,-0.7913,-0.7777,-0.7678,-0.7539,-0.7404,-0.725,0.0,0.0,0.0,0.0,0.0,0.0,0.0,0.0,0.0,0.0,0.0,0.0,0.0,0.0,0.0,0.0,0.0,0.0,0.0,0.0,0.0,0.0,0.0,0.0,0.0,0.0,0.0,-0.6705,0.0,0.0,-0.6712,0.0,0.0,0.0,0.0,0.0,0.0,0.0,0.0,0.0,0.0,0.0,0.0,0.0,0.0,0.0,0.0,0.0,0.0,0.0,0.0,0.0,0.0,-0.76,-0.7604,-0.7843,-0.7988,-0.7988,-0.7988,-0.7988,-0.8038,-0.8524,-0.8665,-0.8344,0.0,0.0,0.0,0.0,0.0,0.0,0.0,0.0,0.0,0.0,0.0,0.0,0.0,0.0,0.0,0.0,0.0,0.0,0.0,0.0,0.0,0.0,0.0,0.0,0.0,0.0,-0.5813,-0.5899,-0.6084,0.0,0.0,0.0,0.0,0.0,0.0,0.0,0.0,0.0,-0.7398,-0.7506,-0.7651,-0.7797,-0.7943,-0.7988,-0.7988,-0.786,-0.7811,-0.7804,-0.7685,-0.7594,0.0,0.0,0.0,0.0,0.0,0.0,0.0,0.0,0.0,0.0,0.0,0.0,0.0,0.0,0.0,0.0,0.0,0.0,0.0,0.0,0.0,0.0,0.0,0.0,0.0,0.0,0.0,-0.7238,-0.7153,0.0,0.0,0.0,0.0,0.0,0.0,0.0,0.0,0.0,0.0,0.0,-0.7597,-0.7597,0.0,0.0,0.0,0.0,0.0,0.0,0.0,0.0,0.0,0.0,0.0,0.0,-0.7648,-0.7743,-0.7887,-0.7988,-0.7988,-0.7988,-0.7988,-0.7988,-0.8333,-0.8526,-0.8578,0.0,0.0,0.0,0.0,0.0,0.0,0.0,0.0,0.0,0.0,0.0,0.0,0.0,0.0,0.0,0.0,0.0,0.0,0.0,0.0,0.0,0.0,0.0,0.0,0.0,-0.5993,0.0,0.0,0.0,0.0,0.0,0.0,0.0,0.0,0.0,0.0,-0.7139,-0.735,-0.7502,-0.7648,-0.7794,-0.7894,-0.7955,-0.7988,0.0,0.0,0.0,0.0,0.0,0.0,0.0,0.0,0.0,0.0,0.0,0.0,0.0,0.0,-0.7444,-0.7448,-0.7448,-0.7448,-0.7448,0.0,0.0,0.0,0.0,0.0,0.0,0.0,0.0,0.0,0.0,0.0,0.0,0.0,0.0,-0.7543,-0.7501,-0.7451,0.0,0.0,0.0,0.0,0.0,0.0,0.0,0.0,-0.7672,-0.7699,-0.7753,-0.7753,-0.7723,-0.7675,-0.7672,-0.7495,0.0,0.0,0.0,0.0,0.0,0.0,0.0,0.0,-0.7719,-0.7811,-0.7914,-0.7988,-0.7988,-0.7988,-0.7988,-0.7988,-0.8132,-0.8229,-0.8301,-0.7967,-0.7677,0.0,0.0,0.0,0.0,0.0,0.0,0.0,0.0,0.0,0.0,0.0,0.0,0.0,0.0,0.0,0.0,0.0,0.0,0.0,0.0,0.0,0.0,0.0,-0.6152,0.0,0.0,0.0,0.0,0.0,0.0,0.0,0.0,0.0,-0.7082,-0.7251,-0.7448,-0.7645,-0.7753,-0.7868,-0.7968,0.0,0.0,0.0,0.0,0.0,0.0,0.0,-0.7858,-0.7767,-0.7753,-0.7736,-0.7682,-0.7631,-0.7617,-0.7668,0.0,0.0,-0.7611,-0.7597,-0.7597,-0.7597,-0.7597,-0.7597,-0.7597,-0.7597,-0.7597,0.0,0.0,0.0,0.0,-0.7621,0.0,0.0,0.0,-0.7617,-0.7614,0.0,-0.7607,0.0,0.0,0.0,0.0,-0.7604,-0.7604,0.0,0.0,-0.7818,-0.7847,-0.7978,-0.7982,-0.7907,-0.7821,-0.7821,-0.7746,-0.7604,-0.7458,0.0,0.0,0.0,0.0,0.0,0.0,-0.7814,-0.7824,-0.7914,-0.7988,-0.7988,-0.7988,-0.7988,-0.7985,-0.7892,-0.775,-0.7607,-0.7545,-0.7368,-0.7009,-0.6898,0.0,0.0,0.0,0.0,0.0,0.0,0.0,0.0,0.0,0.0,0.0,0.0,0.0,0.0,0.0,0.0,0.0,0.0,0.0,0.0,-0.63,0.0,0.0,0.0,0.0,0.0,0.0,0.0,0.0,0.0,-0.7419,-0.7429,-0.7436,-0.7489,-0.777,0.0,0.0,0.0,0.0,-0.7988,-0.7988,-0.7988,-0.7988,-0.7985,-0.7985,-0.7985,-0.7985,0.0,0.0,-0.7841,-0.7706,-0.7665,-0.779,-0.7821,-0.7773,-0.7645,-0.7631,-0.7628,-0.7624,-0.7634,-0.7621,-0.7617,-0.7641,-0.7634,-0.8167,0.0,0.0,0.0,0.0,-0.7916,-0.7864,-0.7916,-0.7913,-0.7855,-0.7753,-0.7753,0.0,0.0,0.0,0.0,0.0,0.0,-0.7831,-0.797,-0.7924,-0.7948,-0.7988,-0.7988,-0.7968,-0.7974,-0.7928,-0.7953,-0.786,-0.776,-0.7634,-0.7533,0.0,0.0,0.0,0.0,-0.7865,-0.7921,-0.7968,-0.7988,-0.7988,-0.7988,-0.7988,-0.7988,-0.7843,-0.7794,-0.775,-0.7557,-0.7307,-0.7061,-0.6853,0.0,0.0,0.0,0.0,0.0,0.0,0.0,0.0,0.0,0.0,0.0,0.0,0.0,0.0,0.0,0.0,0.0,0.0,0.0,-0.6279,-0.63,-0.634,0.0,0.0,0.0,0.0,0.0,0.0,0.0,0.0,0.0,-0.7658,-0.7685,-0.7716,0.0,0.0,-0.7941,-0.7982,-0.7988,-0.7988,-0.7988,-0.7988,0.0,-0.7988,-0.7988,-0.7988,-0.7988,-0.7988,-0.7975,-0.7931,-0.7891,-0.7877,-0.7917,-0.7924,-0.7907,-0.7877,-0.7913,-0.786,-0.7867,-0.7864,-0.7864,-0.7864,-0.7913,-0.786,-0.8374,-0.8211,-0.8153,-0.8046,-0.7992,-0.7988,-0.7988,-0.7988,-0.7988,-0.7938,-0.7902,-0.7853,-0.7851,-0.7773,-0.7773,0.0,0.0,0.0,-0.7901,-0.7988,-0.7988,-0.7988,-0.7988,-0.7988,-0.7988,-0.7988,-0.7988,-0.7988,-0.7988,-0.7897,-0.781,-0.777,0.0,-0.7726,-0.7811,-0.7872,-0.7897,-0.7985,-0.7988,-0.7988,-0.7988,-0.7988,-0.7988,-0.7985,-0.7901,-0.7875,-0.7811,-0.7587,-0.736,-0.7105,-0.6876,-0.6695,0.0,0.0,0.0,0.0,0.0,0.0,0.0,0.0,0.0,0.0,0.0,-0.5572,-0.5664,0.0,0.0,0.0,-0.6097,-0.622,-0.6296,-0.6405,0.0,0.0,0.0,0.0,0.0,0.0,0.0,-0.7434,-0.7509,-0.7611,-0.7787,-0.7865,-0.7853,-0.7902,-0.7931,-0.7988,-0.7988,0.0,-0.7988,-0.7988,-0.7988,-0.7988,-0.7988,-0.7988,-0.7988,-0.7988,-0.7988,-0.7988,-0.7988,-0.7988,-0.7988,-0.7988,-0.7988,-0.7988,-0.7988,-0.7988,-0.7988,-0.7988,-0.7988,-0.7988,-0.7988,-0.7988,-0.7988,-0.8509,-0.8538,-0.836,-0.8211,-0.8012,-0.8008,-0.7998,-0.7988,-0.7988,-0.7988,-0.7988,-0.7988,-0.7988,-0.7988,-0.7988,0.0,-0.7988,-0.7988,-0.7988,-0.7988,-0.7988,-0.7988,-0.7988,-0.7988,-0.7988,-0.7988,-0.7988,-0.7988,-0.7988,-0.7988,-0.7988,-0.7985,-0.785,-0.7828,-0.7838,-0.7917,-0.7988,-0.7988,-0.7988,-0.7988,-0.7988,-0.7988,-0.7988,-0.7988,-0.7988,-0.7924,-0.7831,-0.7678,-0.7468,-0.7146,-0.6977,-0.68,-0.6525,0.0,0.0,0.0,0.0,0.0,0.0,0.0,0.0,0.0,0.0,0.0,0.0,0.0,0.0,0.0,-0.6332,0.0,-0.6347,-0.6539,0.0,0.0,0.0,-0.696,-0.7098,-0.7295,-0.7448,-0.7597,0.0,0.0,-0.7828,-0.7904,-0.7988,-0.7988,-0.7988,-0.7988,-0.7988,-0.7988,-0.7988,-0.7988,-0.7988,-0.7988,-0.7988,-0.7988,-0.7988,-0.7988,-0.7988,-0.7988,-0.7988,-0.7988,-0.7988,-0.7988,-0.7988,-0.7988,-0.7988,-0.7988,-0.7988,-0.7988,-0.7988,-0.7988,-0.7988,-0.7988,-0.7988,-0.876,-0.8655,-0.8618,-0.8455,-0.8218,-0.8218,-0.815,-0.7992,-0.7988,-0.7988,-0.7988,-0.7988,-0.7988,-0.7988,-0.7988,-0.7988,-0.7988,-0.7988,-0.7988,-0.7988,-0.7988,-0.7988,-0.7988,-0.7988,-0.7988,-0.7988,-0.7988,-0.7988,-0.7988,-0.7988,-0.7988,-0.7988,-0.7951,-0.7938,-0.7938,-0.7971,-0.7988,-0.7988,-0.7988,-0.7988,-0.7988,-0.7988,-0.7988,-0.7988,-0.7988,-0.7971,-0.7931,-0.7736,-0.7567,-0.7485,-0.7132,-0.6852,-0.6824,-0.6566,0.0,0.0,0.0,0.0,0.0,0.0,0.0,0.0,0.0,-0.5898,-0.6173,0.0,-0.6298,0.0,-0.6607,-0.6634,-0.66,-0.6658,0.0,0.0,-0.696,-0.7149,-0.7302,-0.7451,-0.76,-0.7743,-0.779,-0.7855,-0.7921,-0.7968,-0.7988,-0.7988,-0.7988,-0.7988,-0.7988,-0.7988,-0.7988,-0.7988,-0.7988,-0.7988,-0.7988,-0.7988,-0.7988,-0.7988,-0.7988,-0.7988,-0.7988,-0.7988,-0.7988,-0.7988,-0.7988,-0.7988,-0.7988,-0.7988,-0.7988,-0.7988,-0.7988,-0.7988,-0.7988,-0.7988,-0.7988,-0.8834,-0.8811,-0.8757,-0.8679,-0.8462,-0.8394,-0.8313,-0.8231,-0.8167,-0.8143,-0.814,-0.8019,-0.7988,-0.7988,-0.7988,-0.7988,-0.7988,-0.7988,-0.7988,-0.7988,-0.7988,-0.7988,-0.7988,-0.7988,-0.7988,-0.7988,-0.7988,-0.7988,-0.7988,-0.7988,-0.7988,-0.7988,-0.7988,-0.7988,-0.7988,-0.7988,-0.7988,-0.7988,-0.7988,-0.7988,-0.7988,-0.7988,-0.7988,-0.7988,-0.7988,-0.7988,-0.7988,-0.7753,-0.7597,-0.7587,-0.7231,-0.695,-0.6889,-0.6766,-0.661,0.0,0.0,0.0,0.0,0.0,0.0,0.0,0.0,0.0,0.0,0.0,-0.6522,-0.6688,-0.6763,-0.6803,-0.68,-0.6858,-0.6956,-0.7109,-0.7197,-0.7329,-0.7543,-0.7645,-0.7753,-0.7892,-0.7913,-0.7894,-0.7978,-0.7988,-0.7988,-0.7988,-0.7988,-0.7988,-0.7988,-0.7988,-0.7988,-0.7988,-0.7988,-0.7988,-0.7988,-0.7988,-0.7988,-0.7988,-0.7988,-0.7988,-0.7988,-0.7988,-0.7988,-0.7988,-0.7988,-0.7988,-0.7988,-0.7988,-0.7988,-0.7988,-0.7988,-0.7988,-0.7988,-0.7988,-0.7988,-0.8937,-0.8937,-0.8937,-0.8866,-0.873,-0.8598,-0.852,-0.8472,-0.835,-0.835,-0.8289,-0.8153,-0.8049,-0.8046,-0.8099,-0.8035,-0.8019,-0.8019,-0.8008,-0.7988,-0.7988,-0.7988,-0.7988,-0.7988,-0.7988,-0.7988,-0.7988,-0.7988,-0.7988,-0.7988,-0.7988,-0.7988,-0.7988,-0.7988,-0.7988,-0.7988,-0.7988,-0.7988,-0.7988,-0.7988,-0.7988,-0.7988,-0.7988,-0.7988,-0.7988,-0.7988,-0.7982,-0.7756,-0.7597,-0.7587,-0.7305,-0.7038,-0.692,-0.6896,-0.6825,0.0,-0.6712,0.0,0.0,0.0,0.0,0.0,0.0,0.0,0.0,-0.6671,-0.6756,-0.6756,-0.6898,-0.6987,-0.6983,-0.7112,-0.7255,-0.7387,-0.7417,-0.7533,-0.7777,-0.7828,-0.7889,-0.7975,-0.7988,-0.7988,-0.7988,-0.7988,-0.7988,-0.7988,-0.7988,-0.7988,-0.7988,-0.7988,-0.7988,-0.7988,-0.7988,-0.7988,-0.7988,-0.7988,-0.7988,-0.7988,-0.7988,-0.7988,-0.7988,-0.7988,-0.7988,-0.7988,-0.7988,-0.7988,-0.7988,-0.7988,-0.7988,-0.7988,-0.7988,-0.7988,-0.7988,-0.7988,-0.7988,-0.8937,-0.8937,-0.8937,-0.8865,-0.8841,-0.8811,-0.871,-0.8479,-0.8455,-0.8442,-0.8438,-0.8411,-0.8397,-0.8397,-0.8397,-0.8336,-0.8228,-0.8228,-0.816,-0.7988,-0.7988,-0.7988,-0.7988,-0.7988,-0.7988,-0.7988,-0.7988,-0.7988,-0.7988,-0.7988,-0.7988,-0.7988,-0.7988,-0.7988,-0.7988,0.0,0.0,0.0,-0.7988,-0.7988,-0.7988,-0.7988,-0.7988,-0.7988,-0.7988,0.0,-0.7978,-0.7756,-0.7597,-0.759,-0.726,0.0,0.0,0.0,0.0,0.0,0.0,0.0,0.0,0.0,0.0,0.0,-0.679,-0.6844,-0.6802,-0.6933,-0.7014,-0.7018,-0.7197,-0.7288,-0.7288,-0.7424,-0.7526,-0.7556,-0.7658,-0.775,-0.7811,-0.787,-0.7961,-0.7982,-0.7988,-0.7988,-0.7988,-0.7988,-0.7988,-0.7988,-0.7988,-0.7988,-0.7988,-0.7988,-0.7988,-0.7988,-0.7988,-0.7988,-0.7988,-0.7988,-0.7988,-0.7988,-0.7988,-0.7988,-0.7988,-0.7988,-0.7988,-0.7988,-0.7988,-0.7988,-0.7988,-0.7988,-0.7988,-0.7988,-0.7988,-0.7988,-0.7988,-0.7988,-0.7988,-0.8937,-0.8937,-0.8937,-0.8937,0.0,-0.8937,-0.8797,-0.8703,-0.8628,-0.8554,-0.8535,-0.8535,-0.8535,-0.8535,-0.8535,-0.8445,-0.8422,-0.8354,-0.8228,-0.815,-0.8072,-0.7988,-0.7988,-0.7988,-0.7988,-0.7988,-0.7988,-0.7988,-0.7988,-0.7988,-0.7988,-0.7988,-0.7988,-0.7988,-0.7988,-0.7988,-0.7988,-0.7988,-0.7988,-0.7988,-0.7988,-0.7988,-0.7988,-0.7988,-0.7988,0.0,0.0,0.0,0.0,0.0,0.0,0.0,0.0,0.0,0.0,-0.6991,-0.6916,-0.6876,-0.6919,-0.6873,-0.6949,-0.7031,-0.7173,-0.7227,-0.7153,-0.7282,-0.7321,-0.737,-0.7441,-0.7485,-0.7489,-0.7553,-0.7631,-0.7695,-0.777,-0.7834,-0.7867,-0.7941,-0.7988,-0.7988,-0.7988,-0.7988,-0.7988,-0.7988,-0.7988,-0.7988,-0.7988,-0.7988,-0.7988,-0.7988,-0.7988,-0.7988,-0.7988,-0.7988,-0.7988,-0.7988,-0.7988,-0.7988,-0.7988,-0.7988,-0.7988,-0.7988,-0.7988,-0.7988,-0.7988,-0.7988,-0.7988,-0.7988,-0.7988,-0.7988,-0.7988,-0.7988,-0.7988,-0.7988,-0.7988,-0.8937,-0.8937,-0.8937,-0.8937,-0.8937,-0.8937,-0.8937,-0.8875,-0.8808,0.0,0.0,-0.8564,-0.8564,-0.8564,-0.8564,-0.855,-0.8513,-0.8453,-0.8333,-0.8303,-0.815,-0.8032,-0.8025,-0.8002,-0.7988,-0.7988,-0.7988,-0.7988,-0.7988,-0.7988,-0.7988,-0.7988,-0.7988,-0.7988,-0.7988,-0.7988,-0.7988,-0.7988,-0.7988,-0.7988,-0.7988,-0.7988,-0.7988,-0.7988,-0.7988,-0.7988,-0.7985,-0.7889,-0.7756,-0.7641,-0.7492,-0.7356,-0.7186,-0.7176,-0.7179,-0.7176,-0.7221,-0.7221,-0.7176,-0.7176,-0.7278,-0.7404,-0.755,-0.7573,-0.747,-0.7529,-0.7597,-0.7597,-0.7621,-0.7634,-0.7638,-0.7665,-0.7723,-0.7841,-0.7851,-0.7906,-0.7968,-0.7988,-0.7988,-0.7988,-0.7988,-0.7988,-0.7988,-0.7988,-0.7988,-0.7988,-0.7988,-0.7988,-0.7988,-0.7988,-0.7988,-0.7988,-0.7988,-0.7988,-0.7988,-0.7988,-0.7988,-0.7988,-0.7988,-0.7988,-0.7988,-0.7988,-0.7988,-0.7988,-0.7988,-0.7988,-0.7988,-0.7988,-0.7988,-0.7988,-0.7988,-0.7988,-0.7988,-0.7988,-0.7988,-0.8937,-0.8937,-0.8937,-0.8937,-0.8937,-0.8937,-0.8937,-0.8937,-0.8861,-0.8838,-0.8876,-0.8821,-0.8876,-0.8817,-0.8872,-0.8804,-0.8679,-0.8659,-0.8577,-0.8448,-0.8303,-0.8238,-0.8231,-0.8102,-0.7988,-0.7988,-0.7988,-0.7988,-0.7988,-0.7988,-0.7988,-0.7988,-0.7988,-0.7988,-0.7988,-0.7988,-0.7988,-0.7988,-0.7988,-0.7988,-0.7988,-0.7988,-0.7988,-0.7988,-0.7988,-0.7988,-0.7985,-0.7892,-0.7804,-0.778,-0.7645,-0.7556,-0.7536,-0.7526,-0.7536,-0.7536,-0.7536,-0.7536,-0.7533,-0.7533,-0.7546,-0.7573,-0.7702,-0.7723,-0.7584,-0.7587,-0.7597,-0.7604,-0.7716,-0.7784,-0.7787,-0.7892,-0.7917,-0.7997,-0.7958,-0.7968,-0.7988,-0.7988,-0.7988,-0.7988,-0.7988,-0.7988,-0.7988,-0.7988,-0.7988,-0.7988,-0.7988,-0.7988,-0.7988,-0.7988,-0.7988,-0.7988,-0.7988,-0.7988,-0.7988,-0.7988,-0.7988,-0.7988,-0.7988,-0.7988,-0.7988,-0.7988,-0.7988,-0.7988,-0.7988,-0.7988,-0.7988,-0.7988,-0.7988,-0.7988,-0.7988,-0.7988,-0.7988,-0.7988,-0.7988,-0.8937,-0.8937,-0.8937,-0.8937,-0.8937,-0.8937,-0.8937,-0.8937,-0.8937,-0.8937,-0.8937,-0.8937,-0.8937,-0.8937,-0.8937,-0.8899,-0.8832,-0.8747,-0.8672,-0.8594,-0.8377,-0.8323,-0.8306,-0.8113,-0.7988,-0.7988,-0.7988,-0.7988,-0.7988,-0.7988,-0.7988,-0.7988,-0.7988,-0.7988,-0.7988,-0.7988,-0.7988,-0.7988,-0.7988,-0.7988,-0.7988,-0.7988,-0.7988,-0.7988,-0.7988,-0.7988,-0.7988,-0.7924,-0.7896,-0.7814,-0.7746,-0.7678,-0.7604,-0.7597,-0.7597,-0.7597,-0.7597,-0.7597,-0.7597,-0.7675,-0.7712,-0.7719,-0.7851,-0.786,-0.7796,-0.7838,-0.7838,-0.7841,-0.7853,-0.7884,-0.7933,-0.7948,-0.7988,-0.7988,-0.7988,-0.7988,-0.7988,-0.7988,-0.7988,-0.7988,-0.7988,-0.7988,-0.7988,-0.7988,-0.7988,-0.7988,-0.7988,-0.7988,-0.7988,-0.7988,-0.7988,-0.7988,-0.7988,-0.7988,-0.7988,-0.7988,-0.7988,-0.7988,-0.7988,-0.7988,-0.7988,-0.7988,-0.7988,-0.7988,-0.7988,-0.7988,-0.7988,-0.7988,-0.7988,-0.7988,-0.7988,-0.7988,-0.7988,-0.7988,-0.7988,-0.8967,-0.8937,-0.8937,-0.8937,-0.8937,-0.8937,-0.8937,-0.8937,-0.8937,-0.8937,-0.8937,-0.8937,-0.8937,-0.8937,-0.8937,-0.8937,-0.892,-0.8818,-0.8764,-0.8733,-0.8492,-0.835,-0.8303,-0.8163,-0.8022,-0.7992,-0.7988,-0.7988,-0.7988,-0.7988,-0.7988,-0.7988,-0.7988,-0.7988,-0.7988,-0.7988,-0.7988,-0.7988,-0.7988,-0.7988,-0.7988,-0.7988,-0.7988,-0.7988,-0.7988,-0.7988,-0.7988,-0.7988,-0.7934,-0.7823,-0.7862,-0.7811,-0.7709,-0.7699,-0.7699,-0.7699,-0.7699,-0.7699,-0.7702,-0.7801,-0.7862,-0.7862,-0.7924,-0.7988,-0.7988,-0.7988,-0.7988,-0.7988,-0.7978,-0.7985,-0.7982,-0.7985,-0.7988,-0.7988,-0.7988,-0.7988,-0.7988,-0.7988,-0.7988,-0.7988,-0.7988,-0.7988,-0.7988,-0.7988,-0.7988,-0.7988,-0.7988,-0.7988,-0.7988,-0.7988,-0.7988,-0.7988,-0.7988,-0.7988,-0.7988,-0.7988,-0.7988,-0.7988,-0.7988,-0.7988,-0.7988,-0.7988,-0.7988,-0.7988,-0.7988,-0.7988,-0.7988,-0.7988,-0.7988,-0.7988,-0.7988,-0.7988,-0.7988,-0.7988,-0.7988,-0.9059,-0.8892,-0.8885,-0.8937,-0.8937,-0.8937,-0.8937,-0.8937,-0.8937,-0.8937,-0.8937,-0.8937,-0.8937,-0.8937,-0.8937,-0.8937,-0.8937,-0.8868,-0.8858,-0.8838,-0.8747,-0.8594,-0.8452,-0.8313,-0.8174,-0.8005,-0.7988,-0.7988,-0.7988,-0.7988,-0.7988,-0.7988,-0.7988,-0.7988,-0.7988,-0.7988,-0.7988,-0.7988,-0.7988,-0.7988,-0.7988,-0.7988,-0.7988,-0.7988,-0.7988,-0.7988,-0.7988,-0.7988,-0.7982,-0.7971,-0.7961,-0.7961,-0.7944,-0.7944,-0.7944,-0.7941,-0.7941,-0.7951,-0.7944,-0.7958,-0.7961,-0.7968,-0.7975,-0.7988,-0.7988,-0.7988,-0.7988,-0.7988,-0.7988,-0.7988,-0.7988,-0.7988,-0.7988,-0.7988,-0.7988,-0.7988,-0.7988,-0.7988,-0.7988,-0.7988,-0.7988,-0.7988,-0.7988,-0.7988,-0.7988,-0.7988,-0.7988,-0.7988,-0.7988,-0.7988,-0.7988,-0.7988,-0.7988,-0.7988,-0.7988,-0.7988,-0.7988,-0.7988,-0.7988,-0.7988,-0.7988,-0.7988,-0.7988,-0.7988,-0.7988,-0.7988,-0.7988,-0.7988,-0.7988,-0.7988,-0.7988,-0.7988,-0.7988,-0.7988,-0.7988,-0.9173,-0.9055,-0.8974,-0.8937,-0.8937,-0.8937,-0.8937,-0.8937,-0.8937,-0.8937,-0.8937,-0.8937,-0.8937,-0.8937,-0.8937,-0.8937,-0.8937,-0.8937,-0.8937,-0.8868,-0.8781,-0.8628,-0.8476,-0.8336,-0.8191,-0.7998,-0.7988,-0.7988,-0.7988,-0.7988,-0.7988,-0.7988,-0.7988,-0.7988,-0.7988,-0.7988,-0.7988,-0.7988,-0.7988,-0.7988,-0.7988,-0.7988,-0.7988,-0.7988,-0.7988,-0.7988,-0.7988,-0.7988,-0.7988,-0.7988,-0.7988,-0.7988,-0.7988,-0.7988,-0.7988,-0.7988,-0.7988,-0.7988,-0.7988,-0.7988,-0.7988,-0.7988,-0.7988,-0.7988,-0.7988,-0.7988,-0.7988,-0.7988,-0.7988,-0.7988,-0.7988,-0.7988,-0.7988,-0.7988,-0.7988,-0.7988,-0.7988,-0.7988,-0.7988,-0.7988,-0.7988,-0.7988,-0.7988,-0.7988,-0.7988,-0.7988,-0.7988,-0.7988,-0.7988,-0.7988,-0.7988,-0.7988,-0.7988,-0.7988,-0.7988,-0.7988,-0.7988,-0.7988,-0.7988,-0.7988,-0.7988,-0.7988,-0.7988,-0.7988,-0.7988,-0.7988,-0.7988,-0.7988,-0.7988,-0.7988,-0.7988,-0.7988,-0.7988,-0.7988,-0.7988,-0.9282,-0.9193,-0.8998,-0.8937,-0.8937,-0.8937,-0.8937,-0.8937,-0.8937,-0.8937,-0.8937,-0.8937,-0.8937,-0.8937,-0.8937,-0.8937,-0.8937,-0.8937,-0.8937,-0.8871,-0.8767,-0.8669,-0.8486,-0.8381,-0.8225,-0.8015,-0.7988,-0.7988,-0.7988,-0.7988,-0.7988,-0.7988,-0.7988,-0.7988,-0.7988,-0.7988,-0.7988,-0.7988,-0.7988,-0.7988,-0.7988,-0.7988,-0.7988,-0.7988,-0.7988,-0.7988,-0.7988,-0.7988,-0.7988,-0.7988,-0.7988,-0.7988,-0.7988,-0.7988,-0.7988,-0.7988,-0.7988,-0.7988,-0.7988,-0.7988,-0.7942,-0.7892,-0.7892,-0.7842,-0.7789,-0.7789,-0.7789,-0.7789,-0.7789,-0.7789,-0.7988,-0.7988,-0.7988,-0.7988,-0.7988,-0.7988,-0.7988,-0.7988,-0.7988,-0.7988,-0.7988,-0.7988,-0.7988,-0.7988,-0.7988,-0.7988,-0.7988,-0.7988,-0.7988,-0.7988,-0.7988,-0.7988,-0.7988,-0.7988,-0.7988,-0.7988,-0.7988,-0.7988,-0.7988,-0.7988,-0.7988,-0.7988,-0.7988,-0.7988,-0.7988,-0.7988,-0.7988,-0.7988,-0.7988,-0.7988,-0.7988,-0.7988,-0.7988,-0.7988,-0.7988,-0.9422,-0.9207,-0.8998,-0.8888,-0.8937,-0.8937,-0.8937,-0.8937,-0.8937,-0.8937,-0.8937,-0.8937,-0.8937,-0.8937,-0.8937,-0.8937,-0.8937,-0.8937,-0.8937,-0.8937,-0.8868,-0.8767,-0.8545,-0.8472,-0.8319,-0.8005,-0.7988,-0.7988,-0.7988,-0.7988,-0.7988,-0.7988,-0.7988,-0.7988,-0.7988,-0.7988,-0.7988,-0.7988,-0.7988,-0.7988,-0.7988,-0.7988,-0.7988,-0.7988,-0.7988,-0.7988,-0.7988,-0.7988,-0.7988,-0.7988,-0.7988,-0.7988,-0.7988,-0.7988,-0.7988,-0.7988,-0.7988,-0.7988,-0.7988,-0.7939,-0.7889,-0.7696,-0.7593,-0.749,-0.7335,-0.7338,-0.7335,-0.7235,-0.7288,-0.7487,-0.7889,-0.7889,-0.7939,-0.7992,-0.7988,-0.7988,-0.7988,-0.7988,-0.7988,-0.7988,-0.7988,-0.7988,-0.7988,-0.7988,-0.7988,-0.7988,-0.7988,-0.7988,-0.7988,-0.7988,-0.7988,-0.7988,-0.7988,-0.7988,-0.7988,-0.7988,-0.7988,-0.7958,-0.7938,-0.7958,-0.7982,-0.7988,-0.7975,-0.7971,-0.7955,-0.7955,-0.7978,-0.7988,-0.7988,-0.7988,-0.7988,-0.7988,-0.7988,-0.7988,-0.7988,-0.9432,-0.9207,-0.9156,-0.9025,-0.8885,-0.8937,-0.8937,-0.8937,-0.8937,-0.8937,-0.8937,-0.8937,-0.8937,-0.8937,-0.8937,-0.8937,-0.8937,-0.8937,-0.8937,-0.8937,-0.8937,-0.8774,-0.8506,-0.8535,-0.8326,-0.8025,-0.7988,-0.7988,-0.7988,-0.7988,-0.7988,-0.7988,-0.7988,-0.7988,-0.7988,-0.7988,-0.7988,-0.7988,-0.7988,-0.7988,-0.7988,-0.7988,-0.7988,-0.7988,-0.7988,-0.7988,-0.7988,-0.7988,-0.7988,-0.7988,-0.7988,-0.7988,-0.7988,-0.7988,-0.7939,-0.7793,-0.7746,-0.7643,-0.7537,-0.7487,-0.7437,-0.7388,-0.7338,-0.7288,-0.7235,-0.7185,-0.7185,-0.7185,-0.7185,-0.7338,-0.7391,-0.7487,-0.754,-0.7693,-0.7743,-0.7793,-0.7939,-0.7988,-0.7988,-0.7988,-0.7988,-0.7988,-0.7988,-0.7988,-0.7988,-0.7988,-0.7988,-0.7988,-0.7988,-0.7988,-0.7988,-0.7988,-0.7988,-0.7988,-0.7988,-0.7988,-0.7968,-0.7926,-0.7879,-0.7821,-0.7766,-0.7801,-0.778,-0.7811,-0.7841,-0.7906,-0.7913,-0.7961,-0.7968,-0.7988,-0.7988,-0.7988,-0.7988,-0.7988,-0.7988,-0.9459,-0.9296,-0.9231,-0.9069,-0.8944,-0.8937,-0.8937,-0.8937,-0.8937,-0.8937,-0.8937,-0.8937,-0.8826,-0.8768,-0.8768,-0.8712,-0.866,-0.8826,-0.8937,-0.8937,-0.8937,-0.8747,-0.8581,-0.8503,-0.8302,-0.7982,-0.7806,-0.7739,-0.7739,-0.7739,-0.7736,-0.7739,-0.7739,-0.7739,-0.7739,-0.7739,-0.7736,-0.7739,-0.7736,-0.7739,-0.7739,-0.7739,-0.7739,-0.7736,-0.7739,-0.7789,-0.7842,-0.7789,-0.7739,-0.7736,-0.7739,-0.7739,-0.7736,-0.7739,-0.769,-0.749,-0.7441,-0.7391,-0.7235,-0.7185,-0.7188,-0.7089,-0.6986,-0.6936,-0.6839,-0.6736,-0.6686,-0.6686,-0.6686,-0.6686,-0.6686,-0.6736,-0.6992,-0.7341,-0.749,-0.7543,-0.7686,-0.7736,-0.7736,-0.7739,-0.7793,-0.7842,-0.7892,-0.7939,-0.7988,-0.7988,-0.7988,-0.7988,-0.7988,-0.7988,-0.7988,-0.7988,-0.7889,-0.7842,-0.7793,-0.7739,-0.7826,-0.7788,-0.7721,-0.7678,-0.757,-0.754,-0.7533,-0.7604,-0.7665,-0.7743,-0.7838,-0.795,-0.7955,-0.7982,-0.7988,-0.7988,-0.7988,-0.7988,-0.7988,-0.9523,-0.9357,-0.9222,-0.9023,-0.8892,-0.883,-0.8881,-0.8826,-0.883,-0.8771,-0.8771,-0.8826,-0.8657,-0.854,-0.8484,-0.8318,-0.8211,-0.8602,-0.8826,-0.8826,-0.883,-0.8742,-0.8582,-0.8438,-0.818,-0.7858,-0.7447,-0.7238,-0.7285,-0.7288,-0.7285,-0.7235,-0.7285,-0.7288,-0.7235,-0.7288,-0.7235,-0.7285,-0.7288,-0.7235,-0.7185,-0.7285,-0.7288,-0.7235,-0.7238,-0.7341,-0.7543,-0.7341,-0.7288,-0.7235,-0.7235,-0.7235,-0.7288,-0.7288,-0.7238,-0.7188,-0.7185,-0.7185,-0.7135,-0.7086,-0.6889,-0.6742,-0.6539,-0.6337,-0.6139,-0.5887,-0.5784,-0.5787,-0.5787,-0.5684,-0.5787,-0.5939,-0.6339,-0.7036,-0.7188,-0.7238,-0.7238,-0.7235,-0.7235,-0.7288,-0.749,-0.7593,-0.7646,-0.7743,-0.7889,-0.7889,-0.7889,-0.7889,-0.7889,-0.7839,-0.7939,-0.7889,-0.7739,-0.759,-0.749,-0.7431,-0.7543,-0.7657,-0.7601,-0.7521,-0.7356,-0.7283,-0.7273,-0.7343,-0.754,-0.7672,-0.7821,-0.7926,-0.7958,-0.7988,-0.7988,-0.7988,-0.7988,-0.7988,-0.7988,-0.9612,-0.9388,-0.9103,-0.882,-0.8611,-0.838,-0.8269,-0.8266,-0.8269,-0.8266,-0.8266,-0.8269,-0.8214,-0.8156,-0.8156,-0.81,-0.7989,-0.8214,-0.8269,-0.8266,-0.8269,-0.8252,-0.8113,-0.7971,-0.7729,-0.7431,-0.726,-0.7185,-0.7185,-0.7185,-0.7185,-0.7185,-0.7185,-0.7185,-0.7135,-0.7185,-0.7185,-0.7185,-0.7185,-0.7185,-0.7185,-0.7185,-0.7185,-0.7188,-0.7039,-0.6892,-0.6789,-0.7039,-0.7185,-0.7185,-0.7185,-0.7185,-0.7185,-0.7185,-0.7036,-0.6686,-0.6637,-0.6437,-0.6134,-0.6137,-0.6087,-0.5987,-0.5887,-0.5837,-0.5737,-0.5636,-0.5534,-0.5584,-0.5584,-0.5584,-0.5586,-0.5687,-0.5987,-0.6587,-0.6839,-0.6992,-0.7089,-0.7135,-0.7185,-0.7185,-0.7288,-0.7338,-0.7341,-0.7441,-0.7487,-0.7487,-0.7487,-0.7487,-0.7487,-0.7487,-0.7437,-0.7437,-0.7338,-0.7288,-0.7188,-0.7077,-0.7066,-0.7155,-0.7174,-0.7263,-0.7105,-0.6985,-0.6976,-0.7116,-0.7356,-0.7533,-0.7729,-0.7811,-0.7852,-0.7939,-0.7939,-0.7939,-0.7988,-0.7939,-0.7889,-0.9291,-0.8978,-0.8797,-0.8521,-0.8276,-0.81,-0.7992,-0.7992,-0.7992,-0.7992,-0.7992,-0.7992,-0.7878,-0.7712,-0.7709,-0.7546,-0.7382,-0.7379,-0.7382,-0.7493,-0.7878,-0.7938,-0.7838,-0.7564,-0.7242,-0.693,-0.6789,-0.6689,-0.6637,-0.6587,-0.6587,-0.6587,-0.6584,-0.6587,-0.6587,-0.6634,-0.6587,-0.6587,-0.6587,-0.6587,-0.6587,-0.6587,-0.6584,-0.6587,-0.6439,-0.6289,-0.6134,-0.6437,-0.6637,-0.6587,-0.6587,-0.6587,-0.6587,-0.6584,-0.6437,-0.6187,-0.6087,-0.5887,-0.5536,-0.5489,-0.5386,-0.5336,-0.5236,-0.5135,-0.5135,-0.5085,-0.4985,-0.4983,-0.4985,-0.5035,-0.4985,-0.5087,-0.5338,-0.5589,-0.6039,-0.6389,-0.6587,-0.6587,-0.6637,-0.6686,-0.6789,-0.6939,-0.7042,-0.7188,-0.7185,-0.7185,-0.7185,-0.7185,-0.7185,-0.7235,-0.7185,-0.7135,-0.7089,-0.7039,-0.6886,-0.6766,-0.6636,-0.6672,-0.6652,-0.6754,-0.6743,-0.6632,-0.6627,-0.6756,-0.6985,-0.7142,-0.7286,-0.7472,-0.7587,-0.769,-0.7739,-0.7637,-0.7587,-0.7637,-0.7587,-0.8692,-0.8393,-0.8384,-0.8175,-0.7946,-0.7878,-0.7823,-0.7826,-0.7826,-0.7771,-0.7826,-0.7771,-0.7543,-0.721,-0.7157,-0.6882,-0.6442,-0.6439,-0.6439,-0.6662,-0.7213,-0.7636,-0.7575,-0.7214,-0.6785,-0.6393,-0.6147,-0.5889,-0.5787,-0.5787,-0.5636,-0.5734,-0.5734,-0.5636,-0.5734,-0.5636,-0.5734,-0.5737,-0.5636,-0.5687,-0.5634,-0.5586,-0.5586,-0.5584,-0.5586,-0.5586,-0.5536,-0.5486,-0.5584,-0.5586,-0.5737,-0.5687,-0.5636,-0.5586,-0.5586,-0.5536,-0.5536,-0.5338,-0.5188,-0.5037,-0.4987,-0.4784,-0.4537,-0.434,-0.4386,-0.4183,-0.4085,-0.4033,-0.4033,-0.4033,-0.4033,-0.4185,-0.4388,-0.4489,-0.5138,-0.5586,-0.5586,-0.5634,-0.5837,-0.6042,-0.6239,-0.6439,-0.6639,-0.6839,-0.6936,-0.6986,-0.6936,-0.6886,-0.6886,-0.6836,-0.7036,-0.6889,-0.6639,-0.6537,-0.6337,-0.6282,-0.6155,-0.6199,-0.6168,-0.6206,-0.6336,-0.6271,-0.6346,-0.6506,-0.6618,-0.6748,-0.6977,-0.7217,-0.7325,-0.7388,-0.7338,-0.7235,-0.7235,-0.7338,-0.7388,-0.8692,-0.839,-0.8154,-0.7832,-0.7393,-0.7157,-0.6937,-0.6773,-0.6771,-0.6771,-0.6773,-0.6717,-0.6717,-0.6553,-0.655,-0.6442,-0.6272,-0.6219,-0.6161,-0.5991,-0.6212,-0.6438,-0.658,-0.6447,-0.6198,-0.5909,-0.5723,-0.5636,-0.5584,-0.5486,-0.5534,-0.5584,-0.5486,-0.5534,-0.5584,-0.5536,-0.5486,-0.5338,-0.5288,-0.5188,-0.5037,-0.4985,-0.5033,-0.4983,-0.4985,-0.4885,-0.4736,-0.4535,-0.4834,-0.5536,-0.5388,-0.529,-0.5238,-0.5085,-0.4935,-0.4786,-0.4738,-0.4585,-0.4386,-0.4336,-0.4284,-0.4182,-0.393,-0.3831,-0.3831,-0.3581,-0.3432,-0.343,-0.343,-0.3432,-0.3432,-0.3482,-0.3583,-0.3882,-0.4483,-0.4985,-0.5238,-0.5288,-0.5438,-0.5687,-0.5784,-0.5837,-0.5937,-0.6037,-0.6084,-0.6087,-0.6087,-0.6087,-0.6137,-0.6134,-0.6134,-0.6034,-0.5887,-0.5884,-0.5834,-0.5787,-0.5724,-0.5705,-0.5652,-0.5563,-0.5722,-0.5799,-0.6048,-0.6299,-0.6473,-0.661,-0.6876,-0.7097,-0.7137,-0.6986,-0.7036,-0.6936,-0.7086,-0.7188,-0.7188,-0.7866,-0.7624,-0.7401,-0.716,-0.6834,-0.6606,-0.6442,-0.6272,-0.6161,-0.6102,-0.6047,-0.5989,-0.588,-0.5714,-0.5714,-0.5656,-0.5545,-0.5545,-0.5431,-0.5318,-0.5262,-0.5437,-0.5621,-0.563,-0.5481,-0.5281,-0.5135,-0.5041,-0.4935,-0.4935,-0.4933,-0.4885,-0.4935,-0.4935,-0.4885,-0.4935,-0.4887,-0.4688,-0.4686,-0.4634,-0.4485,-0.4435,-0.4383,-0.4332,-0.4282,-0.4183,-0.3934,-0.3732,-0.4083,-0.4684,-0.4786,-0.4688,-0.4686,-0.4533,-0.4334,-0.4085,-0.4085,-0.3932,-0.358,-0.353,-0.3429,-0.3327,-0.3176,-0.3126,-0.3075,-0.2925,-0.2876,-0.2876,-0.2876,-0.2876,-0.2876,-0.2876,-0.2925,-0.3126,-0.3527,-0.4031,-0.4587,-0.4688,-0.4836,-0.4987,-0.5087,-0.5138,-0.5236,-0.5336,-0.5386,-0.5336,-0.5438,-0.5386,-0.5336,-0.5286,-0.5286,-0.5286,-0.5236,-0.5186,-0.5135,-0.5037,-0.4937,-0.497,-0.4918,-0.485,-0.5156,-0.5293,-0.5562,-0.5881,-0.6173,-0.6379,-0.6467,-0.6509,-0.6407,-0.6334,-0.6484,-0.6584,-0.6587,-0.6789,-0.6839,-0.6662,-0.6497,-0.6405,-0.6252,-0.617,-0.6163,-0.6049,-0.6049,-0.571,-0.5599,-0.5543,-0.5373,-0.515,-0.4819,-0.4875,-0.4706,-0.4424,-0.448,-0.4423,-0.4369,-0.4308,-0.4446,-0.472,-0.4889,-0.4759,-0.4527,-0.4335,-0.4191,-0.4033,-0.3982,-0.3932,-0.3982,-0.3982,-0.3932,-0.4033,-0.3982,-0.3932,-0.3882,-0.3882,-0.3831,-0.3731,-0.3731,-0.3629,-0.3528,-0.3478,-0.3379,-0.3229,-0.313,-0.338,-0.3831,-0.3831,-0.3882,-0.3882,-0.3882,-0.3729,-0.3527,-0.3428,-0.3226,-0.2875,-0.2826,-0.2725,-0.2573,-0.2422,-0.2321,-0.2322,-0.227,-0.217,-0.2119,-0.222,-0.217,-0.227,-0.227,-0.2372,-0.2472,-0.2471,-0.2924,-0.353,-0.3882,-0.3984,-0.4288,-0.4336,-0.4437,-0.4686,-0.4889,-0.4989,-0.4734,-0.4786,-0.4786,-0.4734,-0.4734,-0.4734,-0.4736,-0.4636,-0.4535,-0.4435,-0.4286,-0.4185,-0.4078,-0.4043,-0.4128,-0.4574,-0.4803,-0.5068,-0.5343,-0.5584,-0.5628,-0.559,-0.5579,-0.5572,-0.5687,-0.5887,-0.5787,-0.5737,-0.6037,-0.6187,-0.6143,-0.5822,-0.5802,-0.557,-0.5216,-0.521,-0.5096,-0.4929,-0.4815,-0.476,-0.476,-0.4704,-0.448,-0.4204,-0.4148,-0.4036,-0.3811,-0.3754,-0.3642,-0.3361,-0.3197,-0.3137,-0.3433,-0.3838,-0.4095,-0.3939,-0.3636,-0.3435,-0.338,-0.338,-0.3381,-0.338,-0.338,-0.338,-0.338,-0.338,-0.3281,-0.3128,-0.3078,-0.3026,-0.2875,-0.2825,-0.2774,-0.2672,-0.2672,-0.2623,-0.2623,-0.2573,-0.2623,-0.2773,-0.2925,-0.2977,-0.3078,-0.2925,-0.2823,-0.2723,-0.2672,-0.2623,-0.2522,-0.2422,-0.2422,-0.227,-0.1969,-0.1768,-0.1717,-0.1414,-0.1212,-0.1161,-0.1162,-0.1313,-0.1515,-0.1667,-0.1818,-0.202,-0.217,-0.2422,-0.2723,-0.2925,-0.3278,-0.363,-0.3781,-0.3831,-0.4083,-0.4183,-0.4234,-0.4183,-0.4183,-0.4234,-0.4183,-0.4081,-0.4031,-0.3982,-0.393,-0.378,-0.3731,-0.3632,-0.3531,-0.343,-0.3357,-0.334,-0.38,-0.417,-0.4341,-0.4606,-0.4903,-0.4924,-0.493,-0.4947,-0.5035,-0.5135,-0.5238,-0.5238,-0.5286,-0.5489,-0.5589,-0.5321,-0.5161,-0.5123,-0.4856,-0.4485,-0.4482,-0.4314,-0.4089,-0.3921,-0.3864,-0.381,-0.3754,-0.3531,-0.3421,-0.3365,-0.3309,-0.3197,-0.3197,-0.3085,-0.2915,-0.2806,-0.2693,-0.2618,-0.2824,-0.3033,-0.3177,-0.2979,-0.2831,-0.2826,-0.2826,-0.2826,-0.2826,-0.2826,-0.2826,-0.2826,-0.2826,-0.2775,-0.2675,-0.2623,-0.2522,-0.2422,-0.2422,-0.222,-0.2019,-0.1918,-0.1766,-0.1665,-0.1666,-0.1665,-0.1665,-0.1817,-0.2119,-0.2522,-0.2472,-0.227,-0.207,-0.202,-0.1868,-0.1766,-0.1665,-0.1615,-0.1665,-0.1363,-0.1263,-0.1212,-0.096,-0.0808,-0.0808,-0.0808,-0.0859,-0.101,-0.1111,-0.1313,-0.1414,-0.1566,-0.1665,-0.1766,-0.222,-0.2674,-0.2976,-0.3026,-0.3077,-0.3177,-0.3429,-0.3379,-0.3278,-0.3429,-0.3429,-0.3228,-0.3176,-0.3176,-0.3126,-0.3075,-0.3025,-0.2975,-0.2925,-0.2875,-0.2825,-0.282,-0.2813,-0.3002,-0.3289,-0.3527,-0.3841,-0.4202,-0.4362,-0.442,-0.4433,-0.4383,-0.4485,-0.4585,-0.4686,-0.4786,-0.4836,-0.4889,-0.4347,-0.4287,-0.4227,-0.4035,-0.3813,-0.3814,-0.3645,-0.3419,-0.3139,-0.3138,-0.3026,-0.2806,-0.2806,-0.2581,-0.2581,-0.2525,-0.2412,-0.2412,-0.2299,-0.2244,-0.2244,-0.2188,-0.217,-0.201,-0.197,-0.2282,-0.2158,-0.2123,-0.2119,-0.2169,-0.2069,-0.2119,-0.2119,-0.207,-0.2119,-0.2119,-0.2069,-0.2018,-0.2018,-0.2018,-0.2018,-0.2018,-0.1817,-0.1515,-0.1313,-0.1161,-0.101,-0.096,-0.0859,-0.0808,-0.0808,-0.1313,-0.1867,-0.2119,-0.1969,-0.1465,-0.1465,-0.1313,-0.106,-0.0909,-0.0909,-0.0808,-0.0758,-0.0758,-0.0758,-0.0657,-0.0606,-0.0606,-0.0606,-0.0606,-0.0707,-0.0758,-0.0808,-0.0859,-0.0808,-0.0808,-0.0959,-0.1665,-0.2018,-0.2321,-0.2423,-0.2574,-0.2623,-0.2774,-0.2573,-0.2472,-0.2624,-0.2675,-0.2472,-0.2422,-0.2521,-0.2522,-0.2522,-0.2169,-0.2069,-0.2069,-0.2069,-0.2119,-0.2119,-0.217,-0.222,-0.2414,-0.2757,-0.3214,-0.3525,-0.3681,-0.3681,-0.3578,-0.363,-0.3781,-0.3831,-0.3882,-0.3984,-0.4135,-0.4185,-0.3208,-0.3041,-0.2976,-0.2974,-0.2918,-0.2918,-0.2861,-0.2862,-0.275,-0.2748,-0.2748,-0.2693,-0.23,-0.2075,-0.1963,-0.1683,-0.1458,-0.1402,-0.1346,-0.1346,-0.1346,-0.1346,-0.1337,-0.1247,-0.1174,-0.1109,-0.1132,-0.1162,-0.1161,-0.106,-0.1262,-0.1111,-0.1161,-0.1161,-0.1212,-0.1061,-0.1212,-0.1262,-0.1262,-0.1212,-0.1212,-0.1212,-0.1161,-0.101,-0.0909,-0.0808,-0.0808,-0.0758,-0.0808,-0.0808,-0.0808,-0.0909,-0.106,-0.1111,-0.106,-0.101,-0.096,-0.0909,-0.0707,-0.0758,-0.0758,-0.0758,-0.0606,-0.0455,-0.0404,0.0,0.0,0.0,0.0,-0.0252,-0.0455,-0.0455,-0.0556,-0.0707,-0.0758,-0.0758,-0.0808,-0.101,-0.1313,-0.1615,-0.1869,-0.202,-0.207,-0.2119,-0.2069,-0.2018,-0.2119,-0.217,-0.2119,-0.2119,-0.2269,-0.217,-0.2019,-0.1565,-0.1111,-0.1161,-0.1161,-0.1262,-0.1313,-0.1414,-0.1464,-0.1616,-0.1969,-0.2371,-0.2672,-0.2875,-0.2825,-0.2825,-0.2925,-0.3127,-0.3127,-0.3128,-0.3278,-0.353,-0.3629,-0.2805,-0.2693,-0.2693,-0.2524,-0.2244,-0.2244,-0.2019,-0.1795,-0.1795,-0.1795,-0.1795,-0.1739,-0.1627,-0.1402,-0.1346,-0.1121,-0.0953,-0.0897,-0.0897,-0.0897,-0.0897,-0.0897,-0.0838,-0.0705,-0.0642,-0.0581,-0.0463,-0.0556,-0.0758,-0.0808,-0.0758,-0.0808,-0.0808,-0.0808,-0.0808,-0.0859,-0.0808,-0.0808,-0.0758,-0.0758,-0.0808,-0.0808,-0.0758,-0.0606,-0.0606,-0.0505,-0.0404,-0.0404,-0.0404,-0.0353,-0.0404,0.0,0.0,0.0,0.0,-0.0556,-0.0606,-0.0505,-0.0404,-0.0404,-0.0353,-0.0353,0.0,-0.0202,-0.0151,0.0,0.0,0.0,0.0,-0.005,-0.0202,0.0,-0.0252,-0.0353,0.0,0.0,-0.0455,-0.0556,-0.0758,-0.101,-0.1162,-0.1313,-0.1414,-0.1464,-0.1515,-0.1565,-0.1615,-0.1665,-0.1716,-0.1716,-0.1766,-0.1615,-0.1414,-0.1212,-0.0758,-0.0707,-0.0657,-0.0707,-0.0707,-0.0808,-0.0909,-0.1162,-0.1263,-0.1463,-0.1716,-0.217,-0.2422,-0.2573,-0.2573,-0.2522,-0.2573,-0.2623,-0.2774,-0.2874,-0.2975,-0.2356,-0.2356,-0.2356,-0.2075,-0.1627,-0.1627,-0.1346,-0.0953,-0.0953,-0.0953,-0.0897,-0.0897,-0.0897,-0.0785,-0.0729,-0.0729,-0.0729,-0.0673,-0.0673,-0.0673,-0.0673,-0.0673,-0.0611,-0.049,-0.032,-0.0318,-0.0154,-0.0202,-0.0505,-0.0556,-0.0606,-0.0556,-0.0606,-0.0657,-0.0606,-0.0556,-0.0657,-0.0657,-0.0657,-0.0657,-0.0657,-0.0606,-0.0556,-0.0353,-0.0353,-0.0252,-0.0101,0.0,0.0,0.0,0.0,0.0,0.0,0.0,0.0,-0.0303,-0.0303,-0.0202,0.0,0.0,0.0,0.0,0.0,0.0,0.0,0.0,0.0,0.0,0.0,0.0,0.0,0.0,0.0,0.0,0.0,0.0,0.0,-0.0202,-0.0303,-0.0455,0.0,-0.0757,-0.0959,-0.106,-0.1161,-0.1161,-0.1212,-0.1161,-0.1212,-0.1111,-0.1111,-0.0909,-0.0808,-0.0758,-0.0556,-0.0505,-0.0455,-0.0455,-0.0455,-0.0505,-0.0606,-0.0758,-0.0808,-0.0959,-0.1313,-0.1766,-0.2018,-0.2119,-0.1868,-0.1817,-0.2018,-0.2017,-0.1968,-0.2119,-0.2321,-0.1121,-0.1121,-0.1121,-0.1065,-0.1009,-0.1009,-0.1009,-0.0897,-0.0841,-0.0897,-0.0785,-0.0841,-0.0673,-0.0504,-0.0224,-0.0168,0.0,0.0,0.0,0.0,0.0,0.0,0.0,-0.0108,0.0,0.0,0.0,0.0,0.0,0.0,0.0,0.0,0.0,0.0,0.0,0.0,-0.0101,0.0,0.0,0.0,0.0,0.0,0.0,0.0,0.0,0.0,0.0,0.0,0.0,0.0,0.0,0.0,0.0,0.0,0.0,-0.005,-0.005,0.0,0.0,0.0,0.0,0.0,0.0,0.0,0.0,0.0,0.0,0.0,0.0,0.0,0.0,0.0,0.0,0.0,0.0,0.0,0.0,0.0,0.0,0.0,0.0,0.0,-0.0707,-0.0758,-0.0808,-0.0808,0.0,0.0,-0.0707,-0.0657,-0.0606,-0.0505,-0.0455,-0.0404,0.0,0.0,0.0,0.0,0.0,0.0,-0.0353,-0.0455,-0.0556,-0.0757,0.0,0.0,-0.1161,-0.1161,-0.1061,-0.1161,-0.1413,-0.1212,-0.0959,-0.1263,-0.1717,-0.0561,-0.0897,-0.0897,-0.0785,-0.0617,-0.0617,-0.0504,-0.0392,-0.0392,-0.0392,-0.0392,-0.0392,-0.028,0.0,-0.0056,0.0,0.0,0.0,0.0,0.0,0.0,0.0,0.0,0.0,0.0,0.0,0.0,0.0,0.0,0.0,0.0,0.0,0.0,0.0,0.0,0.0,0.0,0.0,0.0,0.0,0.0,0.0,0.0,0.0,0.0,0.0,0.0,0.0,0.0,0.0,0.0,0.0,0.0,0.0,0.0,0.0,0.0,0.0,0.0,0.0,0.0,0.0,0.0,0.0,0.0,0.0,0.0,0.0,0.0,0.0,0.0,0.0,0.0,0.0,0.0,0.0,0.0,0.0,0.0,0.0,0.0,0.0,0.0,0.0,0.0,0.0,0.0,0.0,0.0,-0.0252,-0.0252,-0.0202,-0.0151,-0.0151,0.0,0.0,0.0,0.0,0.0,0.0,0.0,-0.0202,0.0,0.0,0.0,0.0,0.0,-0.0606,-0.0808,-0.0808,-0.0808,-0.0707,-0.0657,-0.0808,-0.1162,-0.028,-0.0673,-0.0673,-0.0504,-0.028,-0.0336,-0.0168,0.0,0.0,0.0,0.0,0.0,0.0,0.0,0.0,0.0,0.0,0.0,0.0,0.0,0.0,0.0,0.0,0.0,0.0,0.0,0.0,0.0,0.0,0.0,0.0,0.0,0.0,0.0,0.0,0.0,0.0,0.0,0.0,0.0,0.0,0.0,0.0,0.0,0.0,0.0,0.0,0.0,0.0,0.0,0.0,0.0,0.0,0.0,0.0,0.0,0.0,0.0,0.0,0.0,0.0,0.0,0.0,0.0,0.0,0.0,0.0,0.0,0.0,0.0,0.0,0.0,0.0,0.0,0.0,0.0,0.0,0.0,0.0,0.0,0.0,0.0,0.0,0.0,0.0,0.0,0.0,0.0,0.0,0.0,0.0,0.0,0.0,0.0,0.0,0.0,0.0,0.0,0.0,0.0,0.0,0.0,0.0,0.0,0.0,0.0,0.0,0.0,-0.0606,-0.0505,-0.0455,-0.0505,-0.0556,-0.0657,-0.0758,0.0,-0.0056,0.0,0.0,0.0,0.0,0.0,0.0,0.0,0.0,0.0,0.0,0.0,0.0,0.0,0.0,0.0,0.0,0.0,0.0,0.0,0.0,0.0,0.0,0.0,0.0,0.0,0.0,0.0,0.0,0.0,0.0,0.0,0.0,0.0,0.0,0.0,0.0,0.0,0.0,0.0,0.0,0.0,0.0,0.0,0.0,0.0,0.0,0.0,0.0,0.0,0.0,0.0,0.0,0.0,0.0,0.0,0.0,0.0,0.0,0.0,0.0,0.0,0.0,0.0,0.0,0.0,0.0,0.0,0.0,0.0,0.0,0.0,0.0,0.0,0.0,0.0,0.0,0.0,0.0,0.0,0.0,0.0,0.0,0.0,0.0,0.0,0.0,0.0,0.0,0.0,0.0,0.0,0.0,0.0,0.0,0.0,0.0,0.0,0.0,0.0,0.0,0.0,0.0,0.0,0.0,0.0,0.0,0.0,0.0,0.0,0.0,0.0,-0.0353,-0.0505,0.0,0.0,0.0,0.0,0.0,0.0,0.0,0.0,0.0,0.0,0.0,0.0,0.0,0.0,0.0,0.0,0.0,0.0,0.0,0.0,0.0,0.0,0.0,0.0,0.0,0.0,0.0,0.0,0.0,0.0,0.0,0.0,0.0,0.0,0.0,0.0,0.0,0.0,0.0,0.0,0.0,0.0,0.0,0.0,0.0,0.0,0.0,0.0,0.0,0.0,0.0,0.0,0.0,0.0,0.0,0.0,0.0,0.0,0.0,0.0,0.0,0.0,0.0,0.0,0.0,0.0,0.0,0.0,0.0,0.0,0.0,0.0,0.0,0.0,0.0,0.0,0.0,0.0,0.0,0.0,0.0,0.0,0.0,0.0,0.0,0.0,0.0,0.0,0.0,0.0,0.0,0.0,0.0,0.0,0.0,0.0,0.0,0.0,0.0,0.0,0.0,0.0,0.0,0.0,0.0,0.0,0.0,0.0,0.0,0.0,0.0,0.0,0.0,0.0,0.0,0.0,0.0,0.0,0.0,0.0,0.0,0.0,0.0,0.0,0.0,0.0,0.0,0.0,0.0,0.0,0.0,0.0,0.0,0.0,0.0,0.0,0.0,0.0,0.0,0.0,0.0,0.0,0.0,0.0,0.0,0.0,0.0,0.0,0.0,0.0,0.0,0.0,0.0,0.0,0.0,0.0,0.0,0.0,0.0,0.0,0.0,0.0,0.0,0.0,0.0,0.0,0.0,0.0,0.0,0.0,0.0,0.0,0.0,0.0,0.0,0.0,0.0,0.0,0.0,0.0,0.0,0.0,0.0,0.0,0.0,0.0,0.0,0.0,0.0,0.0,0.0,0.0,0.0,0.0,0.0,0.0,0.0,0.0,0.0,0.0,0.0,0.0,0.0,0.0,0.0,0.0,0.0,0.0,0.0,0.0,0.0,0.0,0.0,0.0,0.0,0.0,0.0,0.0,0.0,0.0,0.0,0.0,0.0,0.0,0.0,0.0,0.0,0.0,0.0,0.0,0.0,0.0,0.0,0.0,0.0,0.0,0.0,0.0,0.0,0.0,0.0,0.0,0.0,0.0,0.0,0.0,0.0,0.0,0.0,0.0,0.0,0.0,0.0,0.0,0.0,0.0,0.0,0.0,0.0,0.0,0.0,0.0,0.0,0.0,0.0,0.0,0.0,0.0,0.0,0.0,0.0,0.0,0.0,0.0,0.0,0.0,0.0,0.0,0.0,0.0,0.0,0.0,0.0,0.0,0.0,0.0,0.0,0.0,0.0,0.0,0.0,0.0,0.0,0.0,0.0,0.0,0.0,0.0,0.0,0.0,0.0,0.0,0.0,0.0,0.0,0.0,0.0,0.0,0.0,0.0,0.0,0.0,0.0,0.0,0.0,0.0,0.0,0.0,0.0,0.0,0.0,0.0,0.0,0.0,0.0,0.0,0.0,0.0,0.0,0.0,0.0,0.0,0.0,0.0,0.0,0.0,0.0,0.0,0.0,0.0,0.0,0.0,0.0,0.0,0.0,0.0,0.0,0.0,0.0,0.0,0.0,0.0,0.0,0.0,0.0,0.0,0.0,0.0,0.0,0.0,0.0,0.0,0.0,0.0,0.0,0.0,0.0,0.0,0.0,0.0,0.0,0.0,0.0,0.0,0.0,0.0,0.0,0.0,0.0,0.0,0.0,0.0,0.0,0.0,0.0,0.0,0.0,0.0,0.0,0.0,0.0,0.0,0.0,0.0,0.0,0.0,0.0,0.0,0.0,0.0,0.0,0.0,0.0,0.0,0.0,0.0,0.0,0.0,0.0,0.0,0.0,0.0,0.0,0.0,0.0,0.0,0.0,0.0,0.0,0.0,0.0,0.0,0.0,0.0,0.0,0.0,0.0,0.0,0.0,0.0,0.0,0.0,0.0,0.0,0.0,0.0,0.0,0.0,0.0,0.0,0.0,0.0,0.0,0.0,0.0,0.0,0.0,0.0,0.0,0.0,0.0,0.0,0.0,0.0,0.0,0.0,0.0,0.0,0.0,0.0,0.0,0.0,0.0,0.0,0.0,0.0,0.0,0.0,0.0,0.0,0.0,0.0,0.0,0.0,0.0,0.0,0.0,0.0,0.0,0.0,0.0,0.0,0.0,0.0,0.0,0.0,0.0,0.0,0.0,0.0,0.0,0.0,0.0,0.0,0.0,0.0,0.0,0.0,0.0,0.0,0.0,0.0,0.0,0.0,0.0,0.0,0.0,0.0,0.0,0.0,0.0,0.0,0.0,0.0,0.0,0.0,0.0,0.0,0.0,0.0,0.0,0.0,0.0,0.0,0.0,0.0,0.0,0.0,0.0,0.0,0.0,0.0,0.0,0.0,0.0,0.0,0.0,0.0,0.0,0.0,0.0,0.0,0.0,0.0,0.0,0.0,0.0,0.0,0.0,0.0,0.0,0.0,0.0,0.0,0.0,0.0,0.0,0.0,0.0,0.0,0.0,0.0,0.0,0.0,0.0,0.0,0.0,0.0,0.0,0.0,0.0,0.0,0.0,0.0,0.0,0.0,0.0,0.0,0.0,0.0,0.0,0.0,0.0,0.0,0.0,0.0,0.0,0.0,0.0,0.0,0.0,0.0,0.0,0.0,0.0,0.0,0.0,0.0,0.0,0.0,0.0,0.0,0.0,0.0,0.0,0.0,0.0,0.0,0.0,0.0,0.0,0.0,0.0,0.0,0.0,0.0,0.0,0.0,0.0,0.0,0.0,0.0,0.0,0.0,0.0,0.0,0.0,0.0,0.0,0.0,0.0,0.0,0.0,0.0,0.0,0.0,0.0,0.0,0.0,0.0,0.0,0.0,0.0,0.0,0.0,0.0,0.0,0.0,0.0,0.0,0.0,0.0,0.0,0.0,0.0,0.0,0.0,0.0,0.0,0.0,0.0,0.0,0.0,0.0,0.0,0.0,0.0,0.0,0.0,0.0,0.0,0.0,0.0,0.0,0.0,0.0,0.0,0.0,0.0,0.0,0.0,0.0,0.0,0.0,0.0,0.0,0.0,0.0,0.0,0.0,0.0,0.0,0.0,0.0,0.0,0.0,0.0,0.0,0.0,0.0,0.0,0.0,0.0,0.0,0.0,0.0,0.0,0.0,0.0,0.0,0.0,0.0,0.0,0.0,0.0,0.0,0.0,0.0,0.0,0.0,0.0,0.0,0.0,0.0,0.0,0.0,0.0,0.0,0.0,0.0,0.0,0.0,0.0,0.0,0.0,0.0,0.0,0.0,0.0,0.0,0.0,0.0,0.0,0.0,0.0,0.0,0.0,0.0,0.0,0.0,0.0,0.0,0.0,0.0,0.0,0.0,0.0,0.0,0.0,0.0,0.0,0.0,0.0,0.0,0.0,0.0,0.0,0.0,0.0,0.0,0.0,0.0,0.0,0.0,0.0,0.0,0.0,0.0,0.0,0.0,0.0,0.0,0.0,0.0,0.0,0.0,0.0,0.0,0.0,0.0,0.0,0.0,0.0,0.0,0.0,0.0,0.0,0.0,0.0,0.0,0.0,0.0,0.0,0.0,0.0,0.0,0.0,0.0,0.0,0.0,0.0,0.0,0.0,0.0,0.0,0.0,0.0,0.0,0.0,0.0,0.0,0.0,0.0,0.0,0.0,0.0,0.0,0.0,0.0,0.0,0.0,0.0,0.0,0.0,0.0,0.0,0.0,0.0,0.0,0.0,0.0,0.0,0.0,0.0,0.0,0.0,0.0,0.0,0.0,0.0,0.0,0.0,0.0,0.0,0.0,0.0,0.0,0.0,0.0,0.0,0.0,0.0,0.0,0.0,0.0,0.0,0.0,0.0,0.0,0.0,0.0,0.0,0.0,0.0,0.0,0.0,0.0,0.0,0.0,0.0,0.0,0.0,0.0,0.0,0.0,0.0,0.0,0.0,0.0,0.0,0.0,0.0,0.0,0.0,0.0,0.0,0.0,0.0,0.0,0.0,0.0,0.0,0.0,0.0,0.0,0.0,0.0,0.0,0.0,0.0,0.0,0.0,0.0,0.0,0.0,0.0,0.0,0.0,0.0,0.0,0.0,0.0,0.0,0.0,0.0,0.0,0.0,0.0,0.0,0.0,0.0,0.0,0.0,0.0,0.0,0.0,0.0,0.0,0.0,0.0,0.0,0.0,0.0,0.0,0.0,0.0,0.0,0.0,0.0,0.0,0.0,0.0,0.0,0.0,0.0,0.0,0.0,0.0,0.0,0.0,0.0,0.0,0.0,0.0,0.0,0.0,0.0,0.0,0.0,0.0,0.0,0.0,0.0,0.0,0.0,0.0,0.0,0.0,0.0,0.0,0.0,0.0,0.0,0.0,0.0,0.0,0.0,0.0,0.0,0.0,0.0,0.0,0.0,0.0,0.0,0.0,0.0,0.0,0.0,0.0,0.0,0.0,0.0,0.0,0.0,0.0,0.0,0.0,0.0,0.0,0.0,0.0,0.0,0.0,0.0,0.0,0.0,0.0,0.0,0.0,0.0,0.0,0.0,0.0,0.0,0.0,0.0,0.0,0.0,0.0,0.0,0.0,0.0,0.0,0.0,0.0,0.0,0.0,0.0,0.0,0.0,0.0,0.0,0.0,0.0,0.0,0.0,0.0,0.0,0.0,0.0,0.0,0.0,0.0,0.0,0.0,0.0,0.0,0.0,0.0,0.0,0.0,0.0,0.0,0.0,0.0,0.0,0.0,0.0,0.0,0.0,0.0,0.0,0.0,0.0,0.0,0.0,0.0,0.0,0.0,0.0,0.0,0.0,0.0,0.0,0.0,0.0,0.0,0.0,0.0,0.0,0.0,0.0,0.0,0.0,0.0,0.0,0.0,0.0,0.0,0.0,0.0,0.0,0.0,0.0,0.0,0.0,0.0,0.0,0.0,0.0,0.0,0.0,0.0,0.0,0.0,0.0,0.0,0.0,0.0,0.0,0.0,0.0,0.0,0.0,0.0,0.0,0.0,0.0,0.0,0.0,0.0,0.0,0.0,0.0,0.0,0.0,0.0,0.0,0.0,0.0,0.0,0.0,0.0,0.0,0.0,0.0,0.0,0.0,0.0,0.0,0.0,0.0,0.0,0.0,0.0,0.0,0.0,0.0,0.0,0.0,0.0,0.0,0.0,0.0,0.0,0.0,0.0,0.0,0.0,0.0,0.0,0.0,0.0,0.0,0.0,0.0,0.0,0.0,0.0,0.0,0.0,0.0,0.0,0.0,0.0,0.0,0.0,0.0,0.0,0.0,0.0,0.0,0.0,0.0,0.0,0.0,0.0,0.0,0.0,0.0,0.0,0.0,0.0,0.0,0.0,0.0,0.0,0.0,0.0,0.0,0.0,0.0,0.0,0.0,0.0,0.0,0.0,0.0,0.0,0.0,0.0,0.0,0.0,0.0,0.0,0.0,0.0,0.0,0.0,0.0,0.0,0.0,0.0,0.0,0.0,0.0,0.0,0.0,0.0,0.0,0.0,0.0,0.0,0.0,0.0,0.0,0.0,0.0,0.0,0.0,0.0,0.0,0.0,0.0,0.0,0.0,0.0,0.0,0.0,0.0,0.0,0.0,0.0,0.0,0.0,0.0,0.0,0.0,0.0,0.0,0.0,0.0,0.0,0.0,0.0,0.0,0.0,0.0,0.0,0.0,0.0,0.0,0.0,0.0,0.0,0.0,0.0,0.0,0.0,0.0,0.0,0.0,0.0,0.0,0.0,0.0,0.0,0.0,0.0,0.0,0.0,0.0,0.0,0.0,0.0,0.0,0.0,0.0,0.0,0.0,0.0,0.0,0.0,0.0,0.0,0.0,0.0,0.0,0.0,0.0,0.0,0.0,0.0,0.0,0.0,0.0,0.0,0.0,0.0,0.0,0.0,0.0,0.0,0.0,0.0,0.0,0.0,0.0,0.0,0.0,0.0,0.0,0.0,0.0,0.0,0.0,0.0,0.0,0.0,0.0,0.0,0.0,0.0,0.0,0.0,0.0,0.0,0.0,0.0,0.0,0.0,0.0,0.0,0.0,0.0,0.0,0.0,0.0,0.0,0.0,0.0,0.0,0.0,0.0,0.0,0.0,0.0,0.0,0.0,0.0,0.0,0.0,0.0,0.0,0.0,0.0,0.0,0.0,0.0,0.0,0.0,0.0,0.0,0.0,0.0,0.0,0.0,0.0,0.0,0.0,0.0,0.0,0.0,0.0,0.0,0.0,0.0,0.0,0.0,0.0,0.0,0.0,0.0,0.0,0.0,0.0,0.0,0.0,0.0,0.0,0.0,0.0,0.0,0.0,0.0,0.0,0.0,0.0,0.0,0.0,0.0,0.0,0.0,0.0,0.0,0.0,0.0,0.0,0.0,0.0,0.0,0.0,0.0,0.0,0.0,0.0,0.0,0.0,0.0,0.0,0.0,0.0,0.0,0.0,0.0,0.0,0.0,0.0,0.0,0.0,0.0,0.0,0.0,0.0,0.0,0.0,0.0,0.0,0.0,0.0,0.0,0.0,0.0,0.0,0.0,0.0,0.0,0.0,0.0,0.0,0.0,0.0,0.0,0.0,0.0,0.0,0.0,0.0,0.0,0.0,0.0,0.0,0.0,0.0]}]]